[[{"header":{"parameterUnit":"m.s-1","parameterCategory":1,"la1":31.0,"la2":29.5877,"lo1":-88.7671,"lo2":-86.6584,"dy":0.0162,"dx":0.0185,"nx":115,"ny":88,"refTime":"2023-10-29T12:00:00:Z","depth":0,"parameterNumber":2,"parameterNumberName":"U-component_of_WINDS"},"data":[0.0,0.0,0.0,0.0,0.0,0.0,0.0,0.0,0.0,0.0,0.0,0.0,0.0,0.0,0.0,0.0,0.0,0.0,0.0,0.0,0.0,0.0,0.0,0.0,0.0,0.0,0.0,0.0,0.0,0.0,0.0,0.0,0.0,0.0,0.0,0.0,0.0,0.0,0.0,0.0,0.0,0.0,0.0,0.0,0.0,0.0,0.0,0.0,0.0,0.0,0.0,0.0,0.0,0.0,0.0,0.0,0.0,0.0,0.0,0.0,0.0,0.0,0.0,0.0,0.0,0.0,0.0,0.0,0.0,0.0,0.0,0.0,0.0,0.0,0.0,0.0,0.0,0.0,0.0,0.0,0.0,0.0,0.0,0.0,0.0,0.0,0.0,0.0,0.0,0.0,0.0,0.0,0.0,0.0,0.0,0.0,0.0,0.0,0.0,0.0,0.0,0.0,0.0,0.0,0.0,0.0,0.0,0.0,0.0,0.0,0.0,0.0,0.0,0.0,0.0,0.0,0.0,0.0,0.0,0.0,0.0,0.0,0.0,0.0,0.0,0.0,0.0,0.0,0.0,0.0,0.0,0.0,0.0,0.0,0.0,0.0,0.0,0.0,0.0,0.0,0.0,0.0,0.0,0.0,0.0,0.0,0.0,0.0,0.0,0.0,0.0,0.0,0.0,0.0,0.0,0.0,0.0,0.0,0.0,0.0,0.0,0.0,0.0,0.0,0.0,0.0,0.0,0.0,0.0,0.0,0.0,0.0,0.0,0.0,0.0,0.0,0.0,0.0,0.0,0.0,0.0,0.0,0.0,0.0,0.0,0.0,0.0,0.0,0.0,0.0,0.0,0.0,0.0,0.0,0.0,0.0,0.0,0.0,0.0,0.0,0.0,0.0,0.0,0.0,0.0,0.0,0.0,0.0,0.0,0.0,0.0,0.0,0.0,0.0,0.0,0.0,0.0,0.0,0.0,0.0,0.0,0.0,0.0,0.0,0.0,0.0,0.0,0.0,0.0,0.0,0.0,0.0,0.0,0.0,0.0,0.0,0.0,0.0,0.0,0.0,0.0,0.0,0.0,0.0,0.0,0.0,0.0,0.0,0.0,0.0,0.0,0.0,0.0,0.0,0.0,0.0,0.0,0.0,0.0,0.0,0.0,0.0,0.0,0.0,0.0,0.0,0.0,0.0,0.0,0.0,0.0,0.0,0.0,0.0,0.0,0.0,0.0,0.0,0.0,0.0,0.0,0.0,0.0,0.0,0.0,0.0,0.0,0.0,0.0,0.0,0.0,0.0,0.0,0.0,0.0,0.0,0.0,0.0,0.0,0.0,0.0,0.0,0.0,0.0,0.0,0.0,0.0,0.0,0.0,0.0,0.0,0.0,0.0,0.0,0.0,0.0,0.0,0.0,0.0,0.0,0.0,0.0,0.0,0.0,0.0,0.0,0.0,0.0,0.0,0.0,0.0,0.0,0.0,0.0,0.0,0.0,0.0,0.0,0.0,0.0,0.0,0.0,0.0,0.0,0.0,0.0,0.0,0.0,0.0,0.0,0.0,0.0,0.0,0.0,0.0,0.0,0.0,0.0,0.0,0.0,0.0,0.0,0.0,0.0,0.0,0.0,0.0,0.0,0.0,0.0,0.0,0.0,0.0,0.0,0.0,0.0,0.0,0.0,0.0,0.0,0.0,0.0,0.0,0.0,0.0,0.0,0.0,0.0,0.0,0.0,0.0,0.0,0.0,0.0,0.0,0.0,0.0,0.0,0.0,0.0,0.0,0.0,0.0,0.0,0.0,0.0,0.0,0.0,0.0,0.0,0.0,0.0,0.0,0.0,0.0,0.0,0.0,0.0,0.0,0.0,0.0,0.0,0.0,0.0,0.0,0.0,0.0,0.0,0.0,0.0,0.0,0.0,0.0,0.0,0.0,0.0,0.0,0.0,0.0,0.0,0.0,0.0,0.0,0.0,0.0,0.0,0.0,0.0,0.0,0.0,0.0,0.0,0.0,0.0,0.0,0.0,0.0,0.0,0.0,0.0,0.0,0.0,0.0,0.0,0.0,0.0,0.0,0.0,0.0,0.0,0.0,0.0,0.0,0.0,0.0,0.0,0.0,0.0,0.0,0.0,0.0,0.0,0.0,0.0,0.0,0.0,0.0,0.0,0.0,0.0,0.0,0.0,0.0,0.0,0.0,0.0,0.0,0.0,0.0,0.0,0.0,0.0,0.0,0.0,0.0,0.0,0.0,0.0,0.0,0.0,0.0,0.0,0.0,0.0,0.0,0.0,0.0,0.0,0.0,0.0,0.0,0.0,0.0,0.0,0.0,0.0,0.0,0.0,0.0,0.0,0.0,0.0,0.0,0.0,0.0,0.0,0.0,0.0,0.0,0.0,0.0,0.0,0.0,0.0,0.0,0.0,0.0,0.0,0.0,0.0,0.0,0.0,0.0,0.0,0.0,0.0,0.0,0.0,0.0,0.0,0.0,0.0,0.0,0.0,0.0,0.0,0.0,0.0,0.0,0.0,0.0,0.0,0.0,0.0,0.0,0.0,0.0,0.0,0.0,0.0,0.0,0.0,0.0,0.0,0.0,0.0,0.0,0.0,0.0,0.0,0.0,0.0,0.0,0.0,0.0,0.0,0.0,0.0,0.0,0.0,0.0,0.0,0.0,0.0,0.0,0.0,0.0,0.0,0.0,0.0,0.0,0.0,0.0,0.0,0.0,0.0,0.0,0.0,0.0,0.0,0.0,0.0,0.0,0.0,0.0,0.0,0.0,0.0,0.0,0.0,0.0,0.0,0.0,0.0,0.0,0.0,0.0,0.0,0.0,0.0,0.0,0.0,0.0,0.0,0.0,0.0,0.0,0.0,0.0,0.0,0.0,0.0,0.0,0.0,0.0,0.0,0.0,0.0,0.0,0.0,0.0,0.0,0.0,0.0,0.0,0.0,0.0,0.0,0.0,0.0,0.0,0.0,0.0,0.0,0.0,0.0,0.0,0.0,0.0,0.0,0.0,0.0,0.0,0.0,0.0,0.0,0.0,0.0,0.0,0.0,0.0,0.0,0.0,0.0,0.0,0.0,0.0,0.0,0.0,0.0,0.0,0.0,0.0,0.0,0.0,0.0,0.0,0.0,0.0,0.0,0.0,0.0,0.0,0.0,0.0,0.0,0.0,0.0,0.0,0.0,0.0,0.0,0.0,0.0,0.0,0.0,0.0,0.0,0.0,0.0,0.0,0.0,0.0,0.0,0.0,0.0,0.0,0.0,0.0,0.0,0.0,0.0,0.0,0.0,0.0,0.0,0.0,0.0,0.0,0.0,0.0,0.0,0.0,0.0,0.0,0.0,0.0,0.0,0.0,0.0,0.0,0.0,0.0,0.0,0.0,0.0,0.0,0.0,0.0,0.0,0.0,0.0,0.0,0.0,0.0,0.0,0.0,0.0,0.0,0.0,0.0,0.0,0.0,0.0,0.0,0.0,0.0,0.0,0.0,0.0,0.0,0.0,0.0,0.0,0.0,0.0,0.0,0.0,0.0,0.0,0.0,0.0,0.0,0.0,0.0,0.0,0.0,0.0,0.0,0.0,0.0,0.0,0.0,0.0,0.0,0.0,0.0,0.0,0.0,0.0,0.0,0.0,0.0,0.0,0.0,0.0,0.0,0.0,0.0,0.0,0.0,0.0,0.0,0.0,0.0,0.0,0.0,0.0,0.0,0.0,0.0,0.0,0.0,0.0,0.0,0.0,0.0,0.0,0.0,0.0,0.0,0.0,0.0,0.0,0.0,0.0,0.0,0.0,0.0,0.0,0.0,0.0,0.0,0.0,0.0,0.0,0.0,0.0,0.0,0.0,0.0,0.0,0.0,0.0,0.0,0.0,0.0,0.0,0.0,0.0,0.0,0.0,0.0,0.0,0.0,0.0,0.0,0.0,0.0,0.0,0.0,0.0,0.0,0.0,0.0,0.0,0.0,0.0,0.0,0.0,0.0,0.0,0.0,0.0,0.0,0.0,0.0,0.0,0.0,0.0,0.0,0.0,0.0,0.0,0.0,0.0,0.0,0.0,0.0,0.0,0.0,0.0,0.0,0.0,0.0,0.0,0.0,0.0,0.0,0.0,0.0,0.0,0.0,0.0,0.0,0.0,0.0,0.0,0.0,0.0,0.0,0.0,0.0,0.0,0.0,0.0,0.0,0.0,0.0,0.0,0.0,0.0,0.0,0.0,0.0,0.0,0.0,0.0,0.0,0.0,0.0,0.0,0.0,0.0,0.0,0.0,5.5665,0.0,0.0,0.0,0.0,0.0,0.0,0.0,0.0,0.0,0.0,0.0,0.0,0.0,0.0,0.0,0.0,0.0,0.0,0.0,0.0,0.0,0.0,0.0,0.0,0.0,0.0,0.0,0.0,0.0,0.0,0.0,0.0,0.0,0.0,0.0,0.0,0.0,0.0,0.0,0.0,0.0,0.0,0.0,0.0,0.0,0.0,0.0,0.0,0.0,0.0,0.0,0.0,0.0,0.0,0.0,0.0,0.0,0.0,0.0,0.0,0.0,0.0,0.0,0.0,0.0,0.0,0.0,0.0,0.0,0.0,0.0,0.0,0.0,0.0,0.0,0.0,0.0,0.0,0.0,0.0,0.0,0.0,0.0,0.0,0.0,0.0,0.0,0.0,0.0,0.0,0.0,0.0,0.0,0.0,0.0,0.0,0.0,0.0,0.0,0.0,0.0,0.0,0.0,0.0,0.0,0.0,0.0,0.0,0.0,0.0,5.6226,5.6092,5.5955,5.5857,5.578,0.0,0.0,0.0,0.0,0.0,0.0,0.0,0.0,0.0,0.0,0.0,0.0,0.0,0.0,0.0,0.0,0.0,0.0,0.0,0.0,0.0,0.0,0.0,0.0,0.0,0.0,0.0,0.0,0.0,0.0,0.0,0.0,0.0,0.0,0.0,0.0,0.0,0.0,0.0,0.0,0.0,0.0,0.0,0.0,0.0,0.0,0.0,0.0,0.0,0.0,0.0,0.0,0.0,0.0,0.0,0.0,0.0,0.0,0.0,0.0,0.0,0.0,0.0,0.0,0.0,0.0,0.0,0.0,0.0,0.0,0.0,0.0,0.0,0.0,0.0,0.0,0.0,0.0,0.0,0.0,0.0,0.0,0.0,0.0,0.0,0.0,0.0,0.0,0.0,0.0,0.0,0.0,0.0,0.0,0.0,0.0,0.0,0.0,0.0,0.0,0.0,0.0,0.0,0.0,0.0,0.0,0.0,0.0,0.0,0.0,0.0,0.0,5.6348,5.6032,5.5549,0.0,0.0,0.0,0.0,0.0,0.0,0.0,0.0,0.0,0.0,0.0,0.0,0.0,0.0,0.0,0.0,0.0,0.0,0.0,0.0,0.0,0.0,0.0,0.0,0.0,0.0,0.0,0.0,0.0,0.0,0.0,0.0,0.0,0.0,0.0,0.0,0.0,0.0,0.0,0.0,0.0,0.0,0.0,0.0,0.0,0.0,0.0,0.0,0.0,0.0,0.0,0.0,0.0,0.0,0.0,0.0,0.0,0.0,0.0,0.0,0.0,0.0,0.0,0.0,0.0,0.0,0.0,0.0,0.0,0.0,0.0,0.0,0.0,0.0,0.0,0.0,0.0,0.0,0.0,0.0,0.0,0.0,0.0,0.0,0.0,0.0,0.0,0.0,0.0,0.0,0.0,0.0,0.0,0.0,0.0,0.0,0.0,0.0,0.0,0.0,0.0,0.0,0.0,0.0,0.0,0.0,0.0,0.0,0.0,0.0,5.8515,5.761,5.7388,0.0,5.472,0.0,0.0,0.0,0.0,0.0,0.0,0.0,0.0,0.0,0.0,0.0,0.0,0.0,0.0,0.0,0.0,0.0,0.0,0.0,0.0,0.0,0.0,0.0,0.0,0.0,0.0,0.0,0.0,0.0,0.0,0.0,0.0,0.0,0.0,0.0,0.0,0.0,0.0,0.0,0.0,0.0,0.0,0.0,0.0,0.0,0.0,0.0,0.0,0.0,0.0,0.0,0.0,0.0,0.0,0.0,0.0,0.0,0.0,0.0,0.0,0.0,0.0,0.0,0.0,0.0,0.0,0.0,0.0,0.0,0.0,0.0,0.0,0.0,0.0,0.0,0.0,0.0,0.0,0.0,0.0,0.0,0.0,0.0,0.0,0.0,0.0,0.0,0.0,0.0,0.0,0.0,0.0,0.0,0.0,0.0,0.0,0.0,0.0,0.0,0.0,0.0,0.0,0.0,0.0,0.0,0.0,0.0,0.0,0.0,0.0,5.9023,5.8594,5.7935,5.6823,0.0,0.0,0.0,0.0,0.0,0.0,0.0,0.0,0.0,0.0,0.0,0.0,0.0,0.0,0.0,0.0,0.0,0.0,0.0,0.0,0.0,0.0,0.0,0.0,0.0,0.0,0.0,0.0,0.0,0.0,0.0,0.0,0.0,0.0,0.0,0.0,0.0,0.0,0.0,0.0,0.0,0.0,0.0,0.0,0.0,0.0,0.0,0.0,0.0,0.0,0.0,0.0,0.0,0.0,0.0,0.0,0.0,0.0,0.0,0.0,0.0,0.0,0.0,0.0,0.0,0.0,0.0,0.0,0.0,0.0,0.0,0.0,0.0,0.0,0.0,0.0,0.0,0.0,0.0,0.0,0.0,0.0,0.0,0.0,0.0,0.0,0.0,0.0,0.0,0.0,0.0,0.0,0.0,0.0,0.0,0.0,0.0,0.0,0.0,0.0,0.0,0.0,0.0,0.0,0.0,0.0,0.0,0.0,0.0,0.0,5.9883,5.9765,5.9453,5.8323,5.7236,5.6188,0.0,0.0,0.0,0.0,0.0,0.0,0.0,0.0,0.0,0.0,0.0,0.0,0.0,0.0,0.0,0.0,0.0,0.0,0.0,0.0,0.0,0.0,0.0,0.0,0.0,0.0,0.0,0.0,0.0,0.0,0.0,0.0,0.0,0.0,0.0,0.0,0.0,0.0,0.0,0.0,0.0,0.0,0.0,0.0,0.0,0.0,0.0,0.0,0.0,0.0,0.0,0.0,0.0,0.0,0.0,0.0,0.0,0.0,0.0,0.0,0.0,0.0,0.0,0.0,0.0,0.0,0.0,0.0,0.0,0.0,0.0,0.0,0.0,0.0,0.0,0.0,0.0,0.0,0.0,0.0,0.0,0.0,0.0,0.0,0.0,0.0,0.0,0.0,0.0,0.0,0.0,0.0,0.0,0.0,0.0,0.0,0.0,0.0,0.0,0.0,0.0,0.0,0.0,0.0,0.0,0.0,0.0,0.0,6.1601,6.1601,6.1133,6.0195,5.857,5.7606,0.0,0.0,0.0,0.0,0.0,0.0,0.0,0.0,0.0,0.0,0.0,0.0,0.0,0.0,0.0,0.0,0.0,0.0,0.0,0.0,0.0,0.0,0.0,0.0,0.0,0.0,0.0,0.0,0.0,0.0,0.0,0.0,0.0,0.0,0.0,0.0,0.0,0.0,0.0,0.0,0.0,0.0,0.0,0.0,0.0,0.0,0.0,0.0,0.0,0.0,0.0,0.0,0.0,0.0,0.0,0.0,0.0,0.0,0.0,0.0,0.0,0.0,0.0,0.0,0.0,0.0,0.0,0.0,0.0,0.0,0.0,0.0,0.0,0.0,0.0,0.0,0.0,0.0,0.0,0.0,0.0,0.0,0.0,0.0,0.0,0.0,0.0,0.0,0.0,0.0,0.0,0.0,0.0,0.0,0.0,0.0,0.0,0.0,0.0,0.0,0.0,0.0,0.0,0.0,0.0,0.0,0.0,0.0,0.0,6.25,6.2539,6.2031,6.1055,5.9993,5.8777,0.0,0.0,0.0,0.0,0.0,0.0,0.0,0.0,0.0,0.0,0.0,0.0,0.0,0.0,0.0,0.0,0.0,0.0,0.0,0.0,0.0,0.0,0.0,0.0,0.0,0.0,0.0,0.0,0.0,0.0,0.0,0.0,0.0,0.0,0.0,0.0,0.0,0.0,0.0,0.0,0.0,0.0,0.0,0.0,0.0,0.0,0.0,0.0,0.0,0.0,0.0,0.0,0.0,0.0,0.0,0.0,0.0,0.0,0.0,0.0,0.0,0.0,0.0,0.0,0.0,0.0,0.0,0.0,0.0,0.0,0.0,0.0,0.0,0.0,0.0,0.0,0.0,0.0,0.0,0.0,0.0,0.0,0.0,0.0,0.0,0.0,0.0,0.0,0.0,0.0,0.0,0.0,0.0,0.0,0.0,0.0,0.0,0.0,0.0,0.0,0.0,0.0,0.0,0.0,0.0,0.0,0.0,0.0,0.0,6.3359,0.0,6.3086,6.2422,6.1367,6.0039,0.0,0.0,0.0,0.0,0.0,0.0,0.0,0.0,0.0,0.0,0.0,0.0,0.0,0.0,0.0,0.0,0.0,0.0,0.0,0.0,0.0,0.0,0.0,0.0,0.0,0.0,0.0,0.0,0.0,0.0,0.0,0.0,0.0,0.0,0.0,0.0,0.0,0.0,0.0,0.0,0.0,0.0,0.0,0.0,0.0,0.0,0.0,0.0,0.0,0.0,0.0,0.0,0.0,0.0,0.0,0.0,0.0,0.0,0.0,0.0,0.0,0.0,0.0,0.0,0.0,0.0,0.0,0.0,0.0,0.0,0.0,0.0,0.0,0.0,0.0,0.0,0.0,0.0,0.0,0.0,0.0,0.0,0.0,0.0,0.0,0.0,0.0,0.0,0.0,0.0,0.0,0.0,0.0,0.0,0.0,0.0,0.0,0.0,0.0,0.0,0.0,0.0,0.0,0.0,0.0,0.0,0.0,0.0,6.3476,6.4297,6.4375,6.4414,6.4258,6.2695,6.1367,0.0,0.0,0.0,0.0,0.0,0.0,0.0,0.0,0.0,0.0,0.0,0.0,0.0,0.0,0.0,0.0,0.0,0.0,0.0,0.0,0.0,0.0,0.0,0.0,0.0,0.0,0.0,0.0,0.0,0.0,0.0,0.0,0.0,0.0,0.0,0.0,0.0,0.0,0.0,0.0,0.0,0.0,0.0,0.0,0.0,0.0,0.0,0.0,0.0,0.0,0.0,0.0,0.0,0.0,0.0,0.0,0.0,0.0,0.0,0.0,0.0,0.0,0.0,0.0,0.0,0.0,0.0,0.0,0.0,0.0,0.0,0.0,0.0,0.0,0.0,0.0,0.0,0.0,0.0,0.0,0.0,0.0,0.0,0.0,0.0,0.0,0.0,0.0,0.0,0.0,0.0,0.0,0.0,0.0,0.0,0.0,0.0,0.0,0.0,0.0,0.0,0.0,0.0,0.0,0.0,0.0,0.0,0.0,0.0,6.6094,6.668,6.6719,6.6094,6.5,6.3398,0.0,0.0,0.0,0.0,0.0,0.0,0.0,0.0,0.0,0.0,0.0,0.0,0.0,0.0,0.0,0.0,0.0,0.0,0.0,0.0,0.0,0.0,0.0,0.0,0.0,0.0,0.0,0.0,0.0,0.0,0.0,0.0,0.0,0.0,0.0,0.0,0.0,0.0,0.0,0.0,0.0,0.0,0.0,0.0,0.0,0.0,0.0,0.0,0.0,0.0,0.0,0.0,0.0,0.0,0.0,0.0,0.0,0.0,0.0,0.0,0.0,0.0,0.0,0.0,0.0,0.0,0.0,0.0,0.0,0.0,0.0,0.0,0.0,0.0,0.0,0.0,0.0,0.0,0.0,0.0,0.0,0.0,0.0,0.0,0.0,0.0,0.0,0.0,0.0,0.0,0.0,0.0,0.0,0.0,0.0,0.0,0.0,0.0,0.0,0.0,0.0,0.0,0.0,0.0,0.0,0.0,0.0,0.0,0.0,6.8789,6.8711,6.8398,6.7851,6.668,6.5,6.2773,0.0,0.0,0.0,0.0,0.0,0.0,0.0,0.0,0.0,0.0,0.0,0.0,0.0,0.0,0.0,0.0,0.0,0.0,0.0,0.0,0.0,0.0,0.0,0.0,0.0,0.0,0.0,0.0,0.0,0.0,0.0,0.0,0.0,0.0,0.0,0.0,0.0,0.0,0.0,0.0,0.0,0.0,0.0,0.0,0.0,0.0,0.0,0.0,0.0,0.0,0.0,0.0,0.0,0.0,0.0,0.0,0.0,0.0,0.0,0.0,0.0,0.0,0.0,0.0,0.0,0.0,0.0,0.0,0.0,0.0,0.0,0.0,0.0,0.0,0.0,0.0,0.0,0.0,0.0,0.0,0.0,0.0,0.0,0.0,0.0,0.0,0.0,0.0,0.0,0.0,0.0,0.0,0.0,0.0,0.0,0.0,0.0,0.0,0.0,0.0,0.0,0.0,0.0,0.0,0.0,0.0,0.0,0.0,7.2187,7.0703,6.9883,6.9609,6.8086,6.6367,0.0,0.0,0.0,0.0,0.0,0.0,0.0,0.0,0.0,0.0,0.0,0.0,0.0,0.0,0.0,0.0,0.0,0.0,0.0,0.0,0.0,0.0,0.0,0.0,0.0,0.0,0.0,0.0,0.0,0.0,0.0,0.0,0.0,0.0,0.0,0.0,0.0,0.0,0.0,0.0,0.0,0.0,0.0,0.0,0.0,0.0,0.0,0.0,0.0,0.0,0.0,0.0,0.0,0.0,0.0,0.0,0.0,0.0,0.0,0.0,0.0,0.0,0.0,0.0,0.0,0.0,0.0,0.0,0.0,0.0,0.0,0.0,0.0,0.0,0.0,0.0,0.0,0.0,0.0,0.0,0.0,0.0,0.0,0.0,0.0,0.0,0.0,0.0,0.0,0.0,0.0,0.0,0.0,0.0,0.0,0.0,0.0,0.0,0.0,0.0,0.0,0.0,0.0,0.0,0.0,0.0,0.0,0.0,0.0,7.4805,7.5078,7.4258,7.2344,7.125,6.957,0.0,0.0,0.0,0.0,0.0,0.0,0.0,0.0,0.0,0.0,0.0,0.0,0.0,0.0,0.0,0.0,0.0,0.0,0.0,0.0,0.0,0.0,0.0,0.0,0.0,0.0,0.0,0.0,0.0,0.0,0.0,0.0,0.0,0.0,0.0,0.0,0.0,0.0,0.0,0.0,0.0,0.0,0.0,0.0,0.0,0.0,0.0,0.0,0.0,0.0,0.0,0.0,0.0,0.0,0.0,0.0,0.0,0.0,0.0,0.0,0.0,0.0,0.0,0.0,0.0,0.0,0.0,0.0,0.0,0.0,0.0,0.0,0.0,0.0,0.0,0.0,0.0,0.0,0.0,0.0,0.0,0.0,0.0,0.0,0.0,0.0,0.0,0.0,0.0,0.0,0.0,0.0,0.0,0.0,0.0,0.0,0.0,0.0,0.0,0.0,0.0,0.0,0.0,0.0,0.0,0.0,0.0,0.0,7.5781,7.7461,7.8359,7.8086,7.6562,7.3945,7.1367,0.0,0.0,0.0,0.0,0.0,0.0,0.0,0.0,0.0,0.0,0.0,0.0,0.0,0.0,0.0,0.0,0.0,0.0,0.0,0.0,0.0,0.0,0.0,0.0,0.0,0.0,0.0,0.0,0.0,0.0,0.0,0.0,0.0,0.0,0.0,0.0,0.0,0.0,0.0,0.0,0.0,0.0,0.0,0.0,0.0,0.0,0.0,0.0,0.0,0.0,0.0,0.0,0.0,0.0,0.0,0.0,0.0,0.0,0.0,0.0,0.0,0.0,0.0,0.0,0.0,0.0,0.0,0.0,0.0,0.0,0.0,0.0,0.0,0.0,0.0,0.0,0.0,0.0,0.0,0.0,0.0,0.0,0.0,0.0,0.0,0.0,0.0,0.0,0.0,0.0,0.0,0.0,0.0,0.0,0.0,0.0,0.0,0.0,0.0,0.0,0.0,0.0,0.0,0.0,0.0,0.0,0.0,0.0,7.8281,7.9922,8.0937,8.1328,8.1015,7.6406,7.2656,0.0,0.0,0.0,0.0,0.0,0.0,0.0,0.0,0.0,0.0,0.0,0.0,0.0,0.0,0.0,0.0,0.0,0.0,0.0,0.0,0.0,0.0,0.0,0.0,0.0,0.0,0.0,0.0,0.0,0.0,0.0,0.0,0.0,0.0,0.0,0.0,0.0,0.0,0.0,0.0,0.0,0.0,0.0,0.0,0.0,0.0,0.0,0.0,0.0,0.0,0.0,0.0,0.0,0.0,0.0,0.0,0.0,0.0,0.0,0.0,0.0,0.0,0.0,0.0,0.0,0.0,0.0,0.0,0.0,0.0,0.0,0.0,0.0,0.0,0.0,0.0,0.0,0.0,0.0,0.0,0.0,0.0,0.0,0.0,0.0,0.0,0.0,0.0,0.0,0.0,0.0,0.0,0.0,0.0,0.0,0.0,0.0,0.0,0.0,0.0,0.0,0.0,0.0,0.0,0.0,0.0,0.0,0.0,8.0,8.1719,8.3242,8.3398,8.2031,7.9023,7.6172,0.0,0.0,0.0,0.0,0.0,0.0,0.0,0.0,0.0,0.0,0.0,0.0,0.0,0.0,0.0,0.0,0.0,0.0,0.0,0.0,0.0,0.0,0.0,0.0,0.0,0.0,0.0,0.0,0.0,0.0,0.0,0.0,0.0,0.0,0.0,0.0,0.0,0.0,0.0,0.0,0.0,0.0,0.0,0.0,0.0,0.0,0.0,0.0,5.0779,0.0,0.0,0.0,0.0,0.0,0.0,0.0,0.0,0.0,0.0,0.0,0.0,0.0,0.0,0.0,0.0,0.0,0.0,0.0,0.0,0.0,0.0,0.0,0.0,0.0,0.0,0.0,0.0,0.0,0.0,0.0,0.0,0.0,0.0,0.0,0.0,0.0,0.0,0.0,0.0,0.0,0.0,0.0,0.0,0.0,0.0,0.0,0.0,0.0,0.0,0.0,0.0,0.0,0.0,0.0,0.0,0.0,0.0,0.0,8.2187,8.4687,8.6015,8.6054,8.4726,8.2617,7.9336,0.0,0.0,0.0,0.0,0.0,0.0,0.0,0.0,0.0,0.0,0.0,0.0,0.0,0.0,0.0,0.0,0.0,0.0,0.0,0.0,0.0,0.0,0.0,0.0,0.0,0.0,0.0,0.0,0.0,0.0,0.0,0.0,0.0,0.0,0.0,0.0,0.0,0.0,0.0,0.0,0.0,0.0,0.0,0.0,0.0,0.0,0.0,0.0,0.0,0.0,0.0,0.0,0.0,0.0,0.0,0.0,0.0,0.0,0.0,0.0,0.0,0.0,0.0,0.0,0.0,0.0,0.0,0.0,0.0,0.0,0.0,0.0,0.0,0.0,0.0,0.0,0.0,0.0,0.0,0.0,0.0,0.0,0.0,0.0,0.0,0.0,0.0,0.0,0.0,0.0,0.0,0.0,0.0,0.0,0.0,0.0,0.0,0.0,0.0,0.0,0.0,0.0,0.0,0.0,0.0,0.0,0.0,8.1328,8.4258,8.7383,8.8398,8.8437,8.75,8.582,8.1836,7.543,0.0,0.0,0.0,0.0,0.0,0.0,0.0,0.0,0.0,0.0,0.0,0.0,0.0,0.0,0.0,0.0,0.0,0.0,0.0,0.0,0.0,0.0,0.0,0.0,0.0,0.0,0.0,0.0,0.0,0.0,0.0,0.0,0.0,0.0,0.0,0.0,0.0,0.0,5.2162,5.2951,0.0,0.0,0.0,0.0,0.0,0.0,0.0,0.0,5.2088,0.0,0.0,0.0,0.0,0.0,0.0,0.0,0.0,0.0,0.0,0.0,0.0,0.0,0.0,0.0,0.0,0.0,0.0,0.0,0.0,0.0,0.0,0.0,0.0,0.0,0.0,0.0,0.0,0.0,0.0,0.0,0.0,0.0,0.0,0.0,0.0,0.0,0.0,0.0,0.0,0.0,0.0,0.0,0.0,0.0,0.0,0.0,0.0,0.0,0.0,0.0,0.0,0.0,0.0,0.0,0.0,7.9453,8.2773,8.5469,8.7461,8.8984,8.9062,8.7539,8.582,8.2695,7.8047,0.0,0.0,0.0,0.0,0.0,0.0,0.0,0.0,0.0,0.0,0.0,0.0,0.0,0.0,0.0,0.0,0.0,0.0,0.0,0.0,0.0,0.0,0.0,0.0,0.0,0.0,0.0,0.0,0.0,0.0,0.0,0.0,0.0,0.0,0.0,0.0,0.0,0.0,0.0,5.4182,5.478,0.0,0.0,0.0,0.0,0.0,0.0,0.0,0.0,5.2647,0.0,0.0,0.0,0.0,0.0,0.0,0.0,0.0,0.0,0.0,0.0,0.0,0.0,0.0,0.0,0.0,0.0,0.0,0.0,0.0,0.0,0.0,0.0,0.0,0.0,0.0,0.0,0.0,0.0,0.0,0.0,0.0,0.0,0.0,0.0,0.0,0.0,0.0,0.0,0.0,0.0,0.0,0.0,0.0,0.0,0.0,0.0,0.0,0.0,0.0,0.0,0.0,0.0,0.0,0.0,8.0273,8.3828,8.664,8.875,9.0469,9.0547,8.8828,8.7148,8.4219,0.0,0.0,0.0,0.0,0.0,0.0,0.0,0.0,0.0,0.0,0.0,0.0,0.0,0.0,0.0,0.0,0.0,0.0,0.0,0.0,0.0,0.0,0.0,0.0,0.0,0.0,0.0,0.0,0.0,0.0,0.0,0.0,0.0,0.0,0.0,0.0,0.0,0.0,0.0,0.0,5.5489,5.6242,5.7511,0.0,0.0,0.0,0.0,0.0,0.0,5.4493,5.407,0.0,0.0,0.0,0.0,0.0,0.0,0.0,0.0,0.0,0.0,0.0,0.0,0.0,0.0,0.0,0.0,0.0,0.0,0.0,0.0,0.0,0.0,0.0,0.0,0.0,0.0,0.0,0.0,0.0,0.0,0.0,0.0,0.0,0.0,0.0,0.0,0.0,0.0,0.0,0.0,0.0,0.0,0.0,0.0,0.0,0.0,0.0,0.0,0.0,0.0,0.0,0.0,0.0,0.0,0.0,8.1172,8.4687,8.7617,8.9961,9.1679,9.1758,9.0039,8.8359,8.5469,0.0,0.0,0.0,0.0,0.0,0.0,0.0,0.0,0.0,0.0,0.0,0.0,0.0,0.0,0.0,0.0,0.0,0.0,0.0,0.0,0.0,0.0,0.0,0.0,0.0,0.0,0.0,0.0,0.0,0.0,0.0,0.0,0.0,0.0,0.0,0.0,0.0,0.0,0.0,0.0,0.0,5.7434,5.8627,5.8665,0.0,0.0,0.0,0.0,5.6686,5.6165,0.0,0.0,0.0,0.0,0.0,0.0,0.0,0.0,0.0,0.0,0.0,0.0,0.0,0.0,0.0,0.0,0.0,0.0,0.0,0.0,0.0,0.0,0.0,0.0,0.0,0.0,0.0,0.0,0.0,0.0,0.0,0.0,0.0,0.0,0.0,0.0,0.0,0.0,0.0,0.0,0.0,0.0,0.0,0.0,0.0,0.0,0.0,0.0,0.0,0.0,0.0,0.0,0.0,0.0,0.0,0.0,8.207,8.5586,8.8203,8.9961,9.1719,9.1758,9.0039,8.8359,8.5469,0.0,0.0,0.0,0.0,0.0,0.0,0.0,0.0,0.0,0.0,0.0,0.0,0.0,0.0,0.0,0.0,0.0,0.0,0.0,0.0,0.0,0.0,0.0,0.0,0.0,0.0,0.0,0.0,0.0,0.0,0.0,0.0,0.0,0.0,0.0,0.0,0.0,0.0,0.0,0.0,0.0,5.7857,6.0204,5.9858,5.9896,0.0,0.0,5.9326,5.9072,5.7824,0.0,0.0,0.0,0.0,0.0,0.0,0.0,0.0,0.0,0.0,0.0,0.0,0.0,0.0,0.0,0.0,0.0,0.0,0.0,0.0,0.0,0.0,0.0,0.0,0.0,0.0,0.0,0.0,0.0,0.0,0.0,0.0,0.0,0.0,0.0,0.0,0.0,0.0,0.0,0.0,0.0,0.0,0.0,0.0,0.0,0.0,0.0,0.0,0.0,0.0,0.0,0.0,0.0,0.0,0.0,7.8008,8.2226,8.5742,8.832,8.9961,9.1719,9.1758,9.0039,8.8359,8.5703,0.0,0.0,0.0,0.0,0.0,0.0,0.0,0.0,0.0,0.0,0.0,0.0,0.0,0.0,0.0,0.0,0.0,0.0,0.0,0.0,0.0,0.0,0.0,0.0,0.0,0.0,0.0,0.0,0.0,0.0,0.0,0.0,0.0,0.0,0.0,0.0,0.0,0.0,0.0,0.0,0.0,0.0,6.132,6.1627,0.0,0.0,0.0,6.1343,6.0381,0.0,0.0,0.0,0.0,0.0,0.0,0.0,0.0,0.0,0.0,0.0,0.0,0.0,0.0,0.0,0.0,0.0,0.0,0.0,0.0,0.0,0.0,0.0,0.0,0.0,0.0,0.0,0.0,0.0,0.0,0.0,0.0,0.0,0.0,0.0,0.0,0.0,0.0,0.0,0.0,0.0,0.0,0.0,0.0,0.0,0.0,0.0,0.0,0.0,0.0,0.0,0.0,0.0,0.0,0.0,0.0,0.0,8.2265,8.5742,8.832,8.9961,9.1719,9.1758,9.0039,8.8359,0.0,0.0,0.0,0.0,0.0,0.0,0.0,0.0,0.0,0.0,0.0,0.0,0.0,0.0,0.0,0.0,0.0,0.0,0.0,0.0,0.0,0.0,0.0,0.0,0.0,0.0,0.0,4.5873,0.0,0.0,0.0,0.0,0.0,0.0,0.0,0.0,0.0,0.0,0.0,0.0,0.0,0.0,6.1281,6.2551,6.3435,6.4012,0.0,0.0,6.3512,6.2281,6.1358,6.0188,0.0,0.0,0.0,0.0,0.0,0.0,0.0,0.0,0.0,0.0,0.0,0.0,0.0,0.0,0.0,0.0,0.0,0.0,0.0,0.0,0.0,0.0,0.0,0.0,0.0,0.0,0.0,0.0,0.0,0.0,0.0,0.0,0.0,0.0,0.0,0.0,0.0,0.0,0.0,0.0,0.0,0.0,0.0,0.0,0.0,0.0,0.0,0.0,0.0,0.0,0.0,0.0,0.0,0.0,7.8828,8.2265,8.5742,8.832,8.9961,9.1719,9.1758,9.0039,8.8359,8.5859,0.0,0.0,0.0,0.0,0.0,0.0,0.0,0.0,0.0,0.0,0.0,0.0,0.0,0.0,0.0,0.0,0.0,0.0,0.0,0.0,0.0,0.0,0.0,0.0,0.0,0.0,0.0,0.0,0.0,0.0,0.0,0.0,0.0,0.0,0.0,0.0,0.0,0.0,0.0,0.0,0.0,6.1704,6.4089,6.5166,6.5974,0.0,6.6205,6.5667,6.5551,6.2858,6.0742,6.055,0.0,0.0,0.0,0.0,0.0,0.0,0.0,0.0,0.0,0.0,0.0,0.0,0.0,0.0,0.0,0.0,0.0,0.0,0.0,0.0,0.0,0.0,0.0,0.0,0.0,0.0,0.0,0.0,0.0,0.0,0.0,0.0,0.0,0.0,0.0,0.0,0.0,0.0,0.0,0.0,0.0,0.0,0.0,0.0,0.0,0.0,0.0,0.0,0.0,0.0,0.0,0.0,0.0,7.8906,8.2265,8.5742,8.832,8.9961,9.1719,9.1797,9.0039,8.8398,8.5859,0.0,0.0,0.0,0.0,0.0,0.0,0.0,0.0,0.0,0.0,0.0,0.0,0.0,0.0,0.0,0.0,0.0,0.0,0.0,0.0,0.0,0.0,0.0,0.0,0.0,0.0,0.0,0.0,4.5863,4.6048,4.6535,0.0,0.0,0.0,0.0,0.0,0.0,0.0,0.0,0.0,0.0,6.3089,6.5128,6.609,0.0,0.0,6.7628,6.709,6.6051,6.482,6.3205,6.1127,5.9973,0.0,0.0,0.0,0.0,0.0,0.0,0.0,0.0,0.0,0.0,0.0,0.0,0.0,0.0,0.0,0.0,0.0,0.0,0.0,0.0,0.0,0.0,0.0,0.0,0.0,0.0,0.0,0.0,0.0,0.0,0.0,0.0,0.0,0.0,0.0,0.0,0.0,0.0,0.0,0.0,0.0,0.0,0.0,0.0,0.0,0.0,0.0,0.0,0.0,0.0,0.0,0.0,7.8867,8.2265,8.5742,8.832,8.9961,9.1719,9.1758,9.0039,8.8398,8.5859,0.0,0.0,0.0,0.0,0.0,0.0,0.0,0.0,0.0,0.0,0.0,0.0,0.0,0.0,0.0,0.0,0.0,0.0,0.0,0.0,0.0,0.0,0.0,0.0,0.0,0.0,0.0,0.0,4.623,4.68,4.7777,0.0,0.0,0.0,0.0,0.0,0.0,0.0,0.0,0.0,0.0,6.4666,6.6167,6.7244,6.809,6.8706,6.8821,6.8371,6.7244,6.6397,6.5051,6.2704,0.0,0.0,0.0,0.0,0.0,0.0,0.0,0.0,0.0,0.0,0.0,0.0,0.0,0.0,0.0,0.0,0.0,0.0,0.0,0.0,0.0,0.0,0.0,0.0,0.0,0.0,0.0,6.5586,0.0,0.0,6.4414,0.0,0.0,0.0,0.0,0.0,0.0,0.0,0.0,0.0,0.0,0.0,0.0,0.0,0.0,0.0,0.0,0.0,0.0,0.0,0.0,0.0,0.0,7.8867,8.2265,8.5742,8.832,9.0,9.1719,9.1758,9.0039,8.8398,8.5859,8.2304,0.0,0.0,0.0,0.0,0.0,0.0,0.0,0.0,0.0,0.0,0.0,0.0,0.0,0.0,0.0,0.0,0.0,0.0,0.0,0.0,0.0,0.0,0.0,0.0,0.0,0.0,4.6143,4.6995,4.8181,0.0,0.0,0.0,0.0,0.0,0.0,0.0,0.0,0.0,6.2259,6.4537,6.6359,6.7244,6.8667,6.9629,6.9706,6.9679,6.9679,6.9602,6.7564,6.5859,0.0,0.0,0.0,0.0,0.0,0.0,0.0,0.0,0.0,0.0,0.0,0.0,0.0,0.0,0.0,0.0,0.0,0.0,0.0,0.0,0.0,0.0,0.0,0.0,0.0,0.0,0.0,6.8398,6.8125,0.0,0.0,0.0,0.0,0.0,0.0,0.0,0.0,0.0,0.0,0.0,7.0273,7.0312,0.0,0.0,0.0,0.0,0.0,0.0,0.0,0.0,0.0,0.0,0.0,0.0,7.9453,8.2304,8.5742,8.832,9.0,9.1719,9.1758,9.0039,8.8906,8.5625,7.9961,0.0,0.0,0.0,0.0,0.0,0.0,0.0,0.0,0.0,0.0,0.0,0.0,0.0,0.0,0.0,0.0,0.0,0.0,0.0,0.0,0.0,0.0,0.0,0.0,0.0,4.7963,0.0,0.0,0.0,0.0,0.0,0.0,0.0,0.0,0.0,0.0,5.8791,6.1237,6.2438,6.474,6.6786,6.8206,6.9706,7.0898,0.0,0.0,0.0,0.0,0.0,0.0,0.0,0.0,0.0,0.0,0.0,0.0,0.0,0.0,5.7896,5.6785,5.6592,5.6571,5.6571,0.0,0.0,0.0,0.0,0.0,0.0,0.0,0.0,0.0,0.0,0.0,0.0,0.0,0.0,7.1055,0.0,7.082,0.0,0.0,0.0,0.0,0.0,0.0,0.0,0.0,7.2226,7.2812,7.3359,7.3359,7.3047,0.0,7.1914,7.043,0.0,0.0,0.0,0.0,0.0,0.0,0.0,0.0,8.0156,8.2773,8.6172,8.8594,9.0,9.1679,9.1758,9.0039,8.8008,8.4414,7.9062,7.5586,7.1914,0.0,0.0,0.0,0.0,0.0,0.0,0.0,0.0,0.0,0.0,0.0,0.0,0.0,0.0,0.0,0.0,0.0,0.0,0.0,0.0,0.0,0.0,0.0,4.9023,0.0,0.0,0.0,0.0,0.0,0.0,0.0,0.0,0.0,5.7426,6.0015,6.2383,6.3906,6.5985,6.7969,6.9639,0.0,0.0,0.0,0.0,0.0,0.0,0.0,6.9667,6.7628,6.7013,6.6205,6.4462,6.3526,6.2858,6.2551,0.0,0.0,5.9502,5.9177,5.9155,5.9194,5.9419,5.9642,5.9619,6.0258,6.0819,0.0,0.0,0.0,0.0,0.0,0.0,0.0,0.0,7.5039,7.418,0.0,7.3437,0.0,0.0,0.0,0.0,0.0,7.3047,0.0,0.0,7.5156,7.5976,7.6015,7.6015,7.5976,7.5859,7.4258,7.3437,7.3242,7.0898,0.0,0.0,0.0,0.0,0.0,0.0,8.1015,8.3594,8.6953,8.914,9.0,9.1719,9.1797,9.0,8.5976,8.2539,7.9805,7.6445,7.3008,6.9531,6.6172,0.0,0.0,0.0,0.0,0.0,0.0,0.0,0.0,0.0,0.0,0.0,0.0,0.0,0.0,0.0,0.0,0.0,0.0,0.0,0.0,4.9023,0.0,0.0,0.0,0.0,0.0,0.0,0.0,0.0,0.0,5.9351,6.0147,6.1836,6.3906,6.6523,0.0,0.0,0.0,0.0,7.3113,7.3961,7.4021,7.379,7.2993,7.1964,7.0937,7.0063,0.0,0.0,6.6244,6.5282,6.4474,6.3628,6.3589,6.2935,6.1427,6.1042,6.0866,6.0896,6.1488,6.2079,6.2194,6.2719,6.3358,8.3086,0.0,0.0,0.0,0.0,7.9258,7.8594,7.8515,7.707,7.6328,7.6094,7.6094,0.0,0.0,0.0,0.0,0.0,0.0,7.6406,7.7031,7.7539,7.8047,7.8633,7.8594,7.832,7.7734,7.7226,7.668,7.6055,7.4726,7.3555,7.2617,0.0,0.0,0.0,0.0,8.1601,8.3672,8.6953,8.914,9.0,9.1719,9.1758,9.0039,8.7031,8.3945,8.0742,7.7344,7.3672,6.9648,6.6758,0.0,0.0,0.0,0.0,0.0,0.0,0.0,0.0,0.0,0.0,0.0,0.0,0.0,0.0,0.0,0.0,0.0,0.0,0.0,5.1562,5.1601,5.1953,0.0,0.0,0.0,0.0,0.0,0.0,0.0,0.0,0.0,6.2109,6.4258,6.6015,0.0,0.0,7.0664,7.1758,7.3038,7.4184,7.5031,7.512,0.0,7.463,7.3388,7.2157,7.1206,6.9679,6.841,6.7782,6.7475,6.7244,6.6974,6.6936,6.6744,6.6217,6.4176,6.2704,6.2579,6.2784,6.3169,6.3758,6.4539,6.532,8.8281,8.625,8.4922,8.4375,8.4179,8.25,8.1758,8.164,7.9961,7.9219,7.9219,7.9219,7.9219,7.9219,7.9219,0.0,0.0,0.0,7.9531,8.0,8.0351,8.0781,8.1211,8.125,8.1015,8.0508,7.9805,7.9219,7.8672,7.7851,7.6875,7.5859,0.0,0.0,7.8242,8.0742,8.289,8.4648,8.7656,8.9648,9.0508,9.1211,9.1054,9.0,8.7187,8.4375,8.1601,7.8242,7.457,7.0664,6.8047,6.5312,0.0,0.0,0.0,0.0,0.0,0.0,0.0,0.0,0.0,0.0,0.0,5.2305,5.1953,0.0,0.0,0.0,5.2461,5.2656,5.3164,5.3242,0.0,0.0,0.0,0.0,0.0,0.0,0.0,6.0,6.1601,6.3125,6.4414,6.6523,6.793,6.793,6.9805,7.168,7.2851,0.0,7.5234,7.6094,7.6235,7.6048,7.5582,7.4706,7.3596,7.2219,7.1108,7.0014,6.9217,6.9025,6.8871,6.859,6.8475,6.8398,6.8385,6.6692,6.532,6.532,6.5295,6.5526,6.6012,6.6526,6.7051,9.2969,9.2617,8.9531,8.8047,8.7656,8.6015,8.5273,8.5078,8.3437,8.2695,8.2734,8.2734,8.2695,8.2617,8.2539,0.0,8.25,8.2578,8.2578,8.2656,8.3515,8.3906,8.3906,8.3828,8.3828,8.375,8.2109,8.1328,8.125,8.0429,8.0039,8.0078,7.8515,7.8437,7.9961,8.2344,8.4492,8.6289,8.875,9.0429,9.1367,9.0547,9.0078,8.9961,8.6758,8.414,8.2304,7.9023,7.5586,7.2148,6.957,6.664,6.332,0.0,0.0,0.0,0.0,0.0,0.0,0.0,0.0,0.0,0.0,0.0,0.0,0.0,0.0,5.3984,5.4062,0.0,5.418,5.4258,0.0,0.0,0.0,5.7187,5.8086,5.957,6.0859,6.1797,0.0,0.0,6.6719,6.8476,6.9609,6.9687,7.1094,7.2734,7.4453,7.5351,7.6211,7.6992,7.7187,7.6914,7.6172,7.5742,7.4844,7.3086,7.2847,7.2105,7.0645,7.0157,6.9708,6.9167,6.8783,6.8706,6.8667,6.8629,6.8629,6.8527,6.8373,6.8334,6.8359,6.841,6.8448,9.6133,9.5508,9.4726,9.2851,9.0312,8.9258,8.8437,8.7734,8.6679,8.625,8.625,8.625,8.5898,8.5234,8.457,8.4297,8.4297,8.4961,8.5273,8.5351,8.6172,8.6562,8.6523,8.5898,8.5586,8.5508,8.4492,8.3984,8.3945,8.3086,8.3008,8.3594,8.2617,8.1953,8.1758,8.2969,8.4765,8.7187,8.9062,9.0742,9.2187,9.1445,9.0664,9.0,8.7304,8.4765,8.2344,7.9023,7.5586,7.2148,6.957,6.6914,6.414,6.2539,0.0,0.0,0.0,0.0,0.0,0.0,0.0,0.0,0.0,5.3906,5.3711,0.0,5.3984,0.0,5.4609,5.5273,5.5898,5.6562,0.0,0.0,5.8437,5.918,6.0625,6.1133,6.1992,6.3515,6.5234,6.6445,6.6836,6.8945,7.0664,7.1328,7.2344,7.3594,7.5312,7.5742,7.6211,7.6992,7.7226,7.7148,7.6875,7.6289,7.5195,7.3281,7.2969,7.2548,7.1397,7.1137,7.1068,7.0838,7.0783,7.0744,7.0706,7.0771,7.0667,7.0502,6.9436,6.8641,6.9256,6.9398,6.9552,9.9179,9.875,9.8359,9.6836,9.457,9.2578,9.1445,9.0976,9.0156,8.957,8.914,8.8789,8.8359,8.789,8.7383,8.7187,8.7187,8.7695,8.789,8.7929,8.8398,8.8594,8.8594,8.8125,8.789,8.7851,8.664,8.6054,8.5976,8.4804,8.4414,8.4883,8.4414,8.4336,8.4609,8.5078,8.625,8.8008,9.0078,9.164,9.25,9.1367,9.0469,8.9961,8.7148,8.457,8.2383,7.9023,7.5781,7.2734,7.0156,6.7773,6.5547,6.3828,6.2305,0.0,0.0,0.0,0.0,0.0,0.0,0.0,0.0,0.0,0.0,0.0,5.5898,5.6289,5.6758,5.7226,5.7695,5.8515,5.9336,6.0234,6.0664,6.1406,6.2695,6.3203,6.3945,6.5312,6.664,6.7773,6.8515,6.9844,7.1328,7.289,7.3594,7.4375,7.5625,7.6211,7.664,7.7109,7.7226,7.7226,7.7226,7.6797,7.5859,7.414,7.3711,7.3277,7.2002,7.1636,7.1585,7.1587,7.1532,7.1518,7.1479,7.1503,7.1464,7.1245,7.0552,6.9986,7.0179,7.0244,7.0398,10.1992,10.1679,10.0937,10.0078,9.8945,9.5976,9.4531,9.4179,9.332,9.25,9.1758,9.0859,9.0429,9.0312,9.0195,9.0117,9.0,9.0117,9.0156,9.0156,9.0273,9.0351,9.0312,9.0234,9.0156,9.0078,8.8554,8.7773,8.7617,8.6133,8.5312,8.5234,8.5312,8.6172,8.7617,8.789,8.832,8.9062,9.1406,9.2578,9.2578,9.0898,9.0,8.9844,8.6679,8.4062,8.2304,7.9023,7.6015,7.3398,7.0859,6.8711,6.6992,6.5351,6.3672,0.0,6.1055,0.0,0.0,0.0,0.0,0.0,0.0,0.0,0.0,5.7187,5.8359,5.914,5.9414,5.9531,5.9531,6.0351,6.1211,6.1953,6.2695,6.3555,6.4531,6.5312,6.6133,6.7109,6.7969,6.9101,7.039,7.0859,7.1992,7.4023,7.4648,7.5117,7.5937,7.668,7.7148,7.7226,7.7226,7.7226,7.7226,7.7187,7.6562,7.5,7.4492,7.3984,7.2265,7.1875,7.1758,7.1719,7.1643,7.1573,7.1556,7.1588,7.1549,7.154,7.1414,7.1272,7.1014,7.0937,7.0975,10.3945,10.2656,10.2461,10.1484,10.0,9.9375,9.789,9.5937,9.5078,9.4609,9.4375,9.3554,9.2773,9.207,9.1367,9.0664,9.0039,9.0742,9.1054,9.1094,9.1797,9.2109,9.207,9.1367,9.1054,9.1015,9.0,8.9179,8.8476,8.8125,8.7656,8.7031,8.7656,8.8164,8.8515,0.0,0.0,0.0,9.1992,9.2578,9.2539,9.0898,9.0,8.9922,8.6679,0.0,8.2304,7.9023,7.5976,7.3398,7.0859,0.0,0.0,0.0,0.0,0.0,0.0,0.0,0.0,0.0,0.0,0.0,5.8906,5.8633,5.8476,5.875,5.9023,5.9219,6.043,6.1211,6.125,6.2617,6.3633,6.3789,6.3945,6.4648,6.6172,6.6562,6.7226,6.875,6.9687,7.0312,7.0742,7.1914,7.3203,7.4375,7.5195,7.5976,7.6797,7.707,7.7187,7.7226,7.7226,7.7226,7.7226,7.7187,7.6523,7.5078,7.457,7.3906,7.2383,7.1992,7.1914,7.1953,7.1911,7.1875,7.1914,7.1914,7.1836,7.168,7.1659,7.1618,7.1464,7.1387,7.136,10.5976,10.4765,10.4336,10.3437,0.0,10.1758,10.0625,9.8906,9.7617,9.6601,9.5781,9.4922,9.4297,9.3867,9.3437,9.2969,9.2578,9.3008,9.3242,9.3242,9.3672,9.3672,9.3242,9.2773,9.2344,9.1914,9.1054,9.039,8.9961,8.957,8.914,8.875,8.914,8.957,9.0,9.1289,9.1953,9.1953,9.2383,9.2578,9.2539,9.0898,9.0,8.9922,8.6679,0.0,0.0,0.0,0.0,0.0,0.0,0.0,0.0,6.6953,0.0,6.4375,6.3476,6.2773,6.2383,6.1953,6.1719,6.1719,6.1719,6.1328,6.0508,6.043,6.0781,6.164,6.25,6.2969,6.3047,6.414,6.5117,6.5547,6.5976,6.6758,6.789,6.8164,6.8672,6.9805,7.043,7.082,7.1289,7.207,7.3203,7.4375,7.4961,7.5742,7.6914,7.7226,7.7226,7.7226,7.7226,7.7226,7.7148,7.6797,7.6172,7.4922,7.4258,7.3437,7.2226,7.1992,7.1992,7.1992,7.1992,7.1992,7.1992,7.1992,7.1953,7.1875,7.1838,7.1835,7.1743,7.1624,7.1492,10.7695,10.6875,10.6054,10.5117,10.414,10.3437,10.2539,10.1484,0.0,0.0,0.0,9.6015,9.5547,9.5429,9.5429,9.5351,9.5195,9.5195,9.5195,9.5195,9.5195,9.4844,9.414,9.3984,9.3515,9.2812,9.1953,9.1445,9.1289,9.0586,9.0156,9.0039,9.0156,9.0664,9.1523,9.2226,9.2578,9.2578,9.2578,9.2578,9.2539,9.0898,9.0,9.0,8.6679,8.414,8.2578,7.9922,7.7383,7.4922,7.3008,7.1289,6.9765,6.8086,6.6758,6.5859,6.5,6.4453,6.4336,6.4297,6.4297,6.4297,6.4297,6.3672,6.2265,6.2148,6.2734,6.418,6.457,6.4765,6.4765,6.5703,6.6562,6.7305,6.8008,6.8711,6.9492,6.9687,7.0,7.0781,7.0937,7.1172,7.1875,7.2148,7.2734,7.4023,7.4531,7.5039,7.6406,7.6953,7.7226,7.7226,7.7031,7.6914,7.6836,7.6211,7.539,7.4453,7.375,7.3008,7.2265,7.1992,7.1953,7.168,7.1758,7.168,7.1562,7.1406,7.1523,7.1562,7.1562,7.1523,7.1523,7.1312,7.1182,10.8593,10.7734,10.6875,10.5625,10.4179,10.4062,10.3125,10.1484,9.9765,9.8867,9.8594,9.7734,9.6953,9.6328,9.6328,9.5898,9.5195,9.5195,9.5195,9.5195,9.5195,9.5117,9.5,9.4258,9.3828,9.3672,9.2812,9.2031,9.1367,9.1172,9.0742,9.0195,9.0742,9.1562,9.2344,9.2539,9.2578,9.2578,9.2578,9.2578,9.2578,9.0898,9.0,8.9844,8.6719,8.4453,8.3398,8.0273,7.7656,7.5781,7.3359,7.1562,7.0547,6.8945,6.7617,6.6758,6.5898,6.5078,6.4375,6.4297,6.4297,6.4297,6.4297,6.418,6.3984,6.3945,6.4062,6.4375,6.5703,6.6523,6.664,6.789,6.8789,6.9062,6.9219,6.9648,7.043,7.0547,7.0859,7.164,7.1797,7.1797,7.1992,7.2578,7.3047,7.3515,7.418,7.4726,7.5195,7.6289,7.7109,7.7109,7.6562,7.6133,7.5976,7.5351,7.4492,7.3633,7.3398,7.289,7.2031,7.1875,7.164,7.1015,7.0898,7.0625,7.0078,6.9765,6.9922,6.9961,6.9961,6.9922,7.0,6.9883,7.0234,10.9492,10.8633,10.7773,10.6679,10.5508,10.4609,10.3476,10.2226,10.0976,9.9883,9.8984,9.8554,9.7929,9.7187,9.7148,9.6953,9.6562,9.6562,9.6562,9.6562,9.6562,9.6328,9.5898,9.5508,9.4804,9.3906,9.3515,9.2851,9.207,9.1992,9.1797,9.1445,9.1836,9.2226,9.2578,9.2578,9.2578,9.2578,9.2578,9.2578,9.2578,9.1367,9.0469,9.0,8.7539,8.5429,8.3633,8.1172,7.8867,7.668,7.5039,7.3281,7.1523,7.0664,6.9687,6.8359,6.789,6.75,6.7109,6.7109,6.7109,6.707,6.7109,6.7109,6.707,6.6211,6.6094,6.6953,6.7851,6.832,6.832,6.8984,6.9609,7.0117,7.0156,7.0508,7.1211,7.1406,7.1562,7.1914,7.1992,7.1992,7.1992,7.2344,7.2812,7.3242,7.4062,7.4531,7.457,7.5234,7.5781,7.5742,7.543,7.5234,7.5156,7.4453,7.3789,7.332,7.289,7.2265,7.1484,7.1289,7.0937,7.0234,7.0078,6.9922,6.9453,6.9453,6.9453,6.9414,6.9414,6.9453,6.9453,6.9414,6.9844,11.039,10.9531,10.8672,10.7578,10.6328,10.4844,10.3711,10.2851,10.2187,10.0937,9.9414,9.9101,9.8515,9.7734,9.7695,9.7695,9.7695,9.7695,9.7695,9.7695,9.7695,9.7383,9.6797,9.6601,9.5703,9.4297,9.3984,9.3437,9.2695,9.2578,9.2578,9.2578,9.2578,9.2695,9.289,9.289,9.2969,9.3164,9.2969,9.2812,9.2578,9.1758,9.0898,8.9961,8.8359,8.6367,8.3984,8.2226,8.0117,7.7656,7.668,7.5078,7.2773,7.2226,7.1406,7.0117,6.9609,6.9414,6.9453,6.9453,6.9453,6.9414,6.9453,6.9531,6.957,6.8515,6.8164,6.9219,6.9531,6.9726,6.9765,6.9961,7.0273,7.0898,7.1015,7.125,7.1875,7.1992,7.1992,7.1992,7.1992,7.1992,7.1992,7.1992,7.2265,7.293,7.3594,7.3984,7.3984,7.4023,7.4023,7.4062,7.418,7.4297,7.4258,7.3594,7.3047,7.3008,7.2265,7.1523,7.0898,7.0586,7.0078,6.9414,6.9219,6.9062,6.8984,6.8867,6.8789,6.8672,6.8672,6.8789,6.875,6.875,6.918,11.125,11.039,10.9492,10.7773,10.5625,10.4609,10.3711,10.2969,10.2812,10.1797,10.0156,9.9336,9.8515,9.7773,9.7695,9.7695,9.7695,9.7695,9.7695,9.7695,9.7695,9.7656,9.75,9.6875,9.6015,9.5078,9.4297,9.3515,9.2734,9.2617,9.2578,9.2578,9.2578,9.3008,9.3672,9.3789,9.4179,9.4922,9.4179,9.3398,9.2617,9.1758,9.0898,9.0,8.8398,8.664,8.4883,8.3086,8.1015,7.8594,7.7578,7.625,7.4492,7.289,7.1953,7.1719,7.0351,6.9492,6.9531,6.9414,6.9492,6.9414,6.957,6.9883,7.0508,7.043,7.0,6.9805,7.0156,7.0547,7.0664,7.1211,7.164,7.1719,7.1797,7.1953,7.1992,7.1992,7.1992,7.1992,7.1992,7.1992,7.1992,7.1992,7.2031,7.2226,7.2422,7.2539,7.2539,7.2539,7.25,7.2539,7.289,7.3359,7.332,7.2695,7.2265,7.2109,7.1406,7.082,7.0469,6.9883,6.9258,6.8555,6.832,6.8086,6.7578,6.7148,6.7265,6.75,6.7422,6.7226,6.7187,6.7305,6.789,11.1406,11.0508,10.9687,10.7851,10.5586,10.5117,10.4179,10.2969,10.289,10.2187,10.1054,10.0156,9.8984,9.7695,9.7695,9.7695,9.7695,9.7695,9.7695,9.7695,9.7695,9.7695,9.7656,9.7383,9.6758,9.5937,9.5078,9.4219,9.3437,9.2851,9.2578,9.2656,9.3086,9.3554,9.3906,9.4414,9.4844,9.5156,9.4844,9.4219,9.3359,9.2539,9.164,9.0742,8.9609,8.8203,8.6445,8.4258,8.2344,8.0781,7.8984,7.7422,7.6211,7.4961,7.4062,7.3515,7.2422,7.1758,7.1758,7.125,7.0937,7.0937,7.0937,7.1133,7.1406,7.1484,7.1289,7.1094,7.125,7.1484,7.1484,7.1797,7.1992,7.1992,7.1992,7.1992,7.1992,7.1992,7.1992,7.1992,7.1992,7.1992,7.1992,7.1992,7.1992,7.1992,7.1992,7.1992,7.1992,7.1992,7.1992,7.2031,7.2344,7.25,7.25,7.2265,7.1836,7.1328,7.0976,7.0586,6.9414,6.9023,6.8398,6.7578,6.75,6.7383,6.707,6.6914,6.6914,6.6914,6.6914,6.6914,6.6914,6.6914,6.7305,11.1601,11.0508,10.9414,10.7734,10.5859,10.5586,10.4648,10.3281,10.3008,10.2422,10.1562,10.0664,9.9492,9.8164,9.7812,9.7695,9.7695,9.7695,9.7695,9.7695,9.7695,9.7695,9.7695,9.7695,9.7304,9.6523,9.5859,9.5117,9.4297,9.3672,9.332,9.3398,9.3945,9.4375,9.4648,9.5273,9.5703,9.5859,9.5703,9.5117,9.4258,9.3398,9.2422,9.1367,9.0469,8.9219,8.7539,8.5234,8.3437,8.2304,8.0312,7.8672,7.7617,7.6719,7.5742,7.4687,7.4023,7.3672,7.3672,7.3086,7.2695,7.2734,7.2695,7.2695,7.2695,7.2695,7.2578,7.2344,7.2344,7.2305,7.1992,7.1992,7.1992,7.1992,7.1992,7.1992,7.1992,7.1992,7.1992,7.1992,7.1992,7.1992,7.1992,7.1992,7.1992,7.1992,7.1992,7.1992,7.1992,7.1992,7.1992,7.1992,7.1992,7.2031,7.1992,7.1992,7.1601,7.0937,7.0547,6.9765,6.8437,6.8125,6.7812,6.7226,6.6992,6.6914,6.6914,6.6914,6.6914,6.6914,6.6914,6.6914,6.6914,6.6914,6.6914,11.2148,11.0429,10.875,10.7539,10.6562,10.582,10.4961,10.3984,10.3242,10.2422,10.1601,10.0703,9.9804,9.8867,9.8086,9.7695,9.7695,9.7695,9.7695,9.7695,9.7695,9.7695,9.7695,9.7695,9.7304,9.664,9.6406,9.5898,9.5117,9.5039,9.5117,9.5039,9.5078,9.5547,9.6133,9.6367,9.6797,9.7265,9.6758,9.6015,9.5156,9.4297,9.3047,9.1562,9.0469,8.9258,8.7617,8.582,8.4101,8.2383,8.1406,8.0117,7.8594,7.7617,7.6406,7.4961,7.4609,7.4531,7.457,7.4414,7.4336,7.4375,7.4258,7.4414,7.4219,7.4219,7.3945,7.332,7.3242,7.293,7.2226,7.2031,7.1992,7.1992,7.1992,7.1992,7.1992,7.1992,7.1992,7.1992,7.1992,7.1992,7.1992,7.1992,7.1992,7.1992,7.1992,7.1992,7.1992,7.1992,7.1992,7.1992,7.1992,7.1992,7.1992,7.1797,7.1484,7.0703,6.9805,6.914,6.8359,6.7617,6.7226,6.6953,6.6914,6.6914,6.6914,6.6914,6.6914,6.6914,6.6914,6.6914,6.6914,6.6914,6.6914,11.1736,11.0195,10.8476,10.7344,10.664,10.5859,10.5,10.414,10.3242,10.2734,10.2226,10.0937,10.0117,9.9765,9.832,9.7695,9.7695,9.7695,9.7695,9.7695,9.7695,9.7695,9.7695,9.7695,9.7578,9.7265,9.6758,9.6054,9.5273,9.5195,9.5195,9.5312,9.5781,9.6211,9.6523,9.7031,9.7422,9.7617,9.7383,9.6875,9.6015,9.5195,9.414,9.2929,9.1015,8.9726,8.914,8.6953,8.5156,8.3984,8.2617,8.1328,8.0117,7.8789,7.7812,7.7109,7.6055,7.543,7.539,7.4883,7.457,7.457,7.457,7.4648,7.457,7.457,7.4453,7.4219,7.414,7.375,7.2969,7.2344,7.1992,7.1992,7.1992,7.1992,7.1992,7.1992,7.1992,7.1992,7.1992,7.1992,7.1992,7.1992,7.1992,7.1992,7.1992,7.1992,7.1992,7.1992,7.1992,7.1992,7.1992,7.1992,7.1992,7.1445,7.0859,7.0,6.918,6.8359,6.7578,6.7305,6.6953,6.6914,6.6914,6.6914,6.6914,6.6914,6.6914,6.6914,6.6914,6.6914,6.6914,6.6914,6.6914,11.0949,10.9887,10.8176,10.7249,10.6758,10.5703,10.4883,10.4258,10.3162,10.2672,10.2344,10.1172,10.0469,10.0,9.8711,9.7929,9.7695,9.7695,9.7695,9.7695,9.7695,9.7695,9.7695,9.7695,9.7695,9.7617,9.7148,9.6562,9.6094,9.6015,9.6015,9.6094,9.6601,9.6875,9.6992,9.7461,9.7695,9.7695,9.7695,9.7304,9.6523,9.5664,9.4765,9.3711,9.164,9.0273,8.9961,8.7812,8.6211,8.5234,8.3633,8.2187,8.1015,7.9648,7.875,7.8398,7.7383,7.6601,7.6289,7.5742,7.5469,7.543,7.5469,7.543,7.543,7.543,7.5312,7.5117,7.5,7.4648,7.3789,7.293,7.2305,7.207,7.1992,7.1992,7.1992,7.1992,7.1992,7.1992,7.1992,7.1992,7.1992,7.1992,7.1992,7.1992,7.1992,7.1992,7.1992,7.1992,7.1992,7.1992,7.1992,7.1992,7.1719,7.1094,7.043,6.957,6.8789,6.789,6.7265,6.6992,6.6914,6.6914,6.6914,6.6914,6.6914,6.6914,6.6914,6.6914,6.6914,6.6914,6.6914,6.6914,6.6914,10.9838,10.9532,10.7922,10.7196,10.6914,10.5469,10.4726,10.4414,10.2849,10.221,10.2109,10.1406,10.0625,9.9883,9.9101,9.8437,9.7734,9.7617,9.7656,9.7695,9.7695,9.7695,9.7695,9.7656,9.7656,9.7695,9.7656,9.7617,9.75,9.7422,9.7461,9.7578,9.75,9.7539,9.7656,9.7656,9.7695,9.7695,9.7695,9.7344,9.6523,9.5664,9.4844,9.3906,9.2226,9.0937,9.0078,8.8398,8.707,8.6054,8.4531,8.2812,8.1289,8.0195,7.9375,7.8828,7.8515,7.8047,7.7344,7.7148,7.7031,7.6914,7.707,7.6914,7.6836,7.6914,7.664,7.6055,7.5859,7.5547,7.4687,7.3945,7.3086,7.2187,7.207,7.1992,7.1992,7.1992,7.1992,7.1992,7.1992,7.1992,7.1992,7.1992,7.1992,7.1992,7.1992,7.1992,7.1992,7.1992,7.1992,7.1992,7.1992,7.1992,7.1367,7.0664,7.0,6.9297,6.8515,6.7695,6.7226,6.6914,6.6914,6.6914,6.6914,6.6914,6.6914,6.6914,6.6914,6.6914,6.6914,6.6914,6.6914,6.6914,6.6914,10.9294,10.9258,10.7641,10.7028,10.6998,10.5419,10.471,10.4516,10.2825,10.2118,10.1941,10.127,10.0483,9.9656,9.888,9.8062,9.7253,9.7226,9.7383,9.7617,9.7539,9.7539,9.7656,9.7578,9.7578,9.7656,9.7695,9.7695,9.7695,9.7695,9.7695,9.7695,9.7695,9.7695,9.7695,9.7695,9.7695,9.7695,9.7695,9.7539,9.7187,9.5937,9.5078,9.4648,9.3086,9.1797,9.0898,8.9258,8.7695,8.6328,8.5117,8.3711,8.2148,8.1094,8.0508,8.0195,7.9648,7.8984,7.8242,7.8086,7.7812,7.7383,7.7226,7.7226,7.7226,7.7226,7.707,7.6797,7.6758,7.6445,7.5664,7.5273,7.4414,7.3047,7.2344,7.2031,7.1992,7.1992,7.1992,7.1992,7.1992,7.1992,7.1992,7.1992,7.1992,7.1992,7.1992,7.1992,7.1992,7.1992,7.1992,7.1992,7.1992,7.1992,7.1562,7.082,6.9961,6.914,6.8281,6.7617,6.7109,6.6914,6.6914,6.6914,6.6914,6.6914,6.6914,6.6914,6.6914,6.6914,6.6914,6.6914,6.6914,6.6914,6.6914,10.8983,10.8944,10.7328,10.6713,10.6713,10.5133,10.4405,10.4138,10.2559,10.1789,10.1673,10.1327,10.0673,9.9865,9.9133,9.8295,9.7483,9.7143,9.7174,9.7408,9.733,9.733,9.7433,9.7332,9.7383,9.7539,9.7617,9.7617,9.7695,9.7695,9.7695,9.7695,9.7695,9.7695,9.7695,9.7695,9.7695,9.7695,9.7695,9.7695,9.7422,9.6367,9.5547,9.5078,9.3828,9.25,9.1328,8.9922,8.8554,8.7109,8.5742,8.4219,8.2851,8.1953,8.1328,8.0937,8.0469,7.9844,7.9062,7.8945,7.8594,7.789,7.7695,7.75,7.7305,7.7226,7.7226,7.7226,7.7187,7.6992,7.6484,7.6015,7.539,7.4414,7.3203,7.2422,7.2109,7.1992,7.1992,7.1992,7.1992,7.1992,7.1992,7.1992,7.1992,7.1992,7.1992,7.1992,7.1992,7.1992,7.1992,7.1992,7.1992,7.1953,7.1875,7.1055,7.0,6.9023,6.8086,6.7461,6.6914,6.6914,6.6914,6.6914,6.6914,6.6914,6.6914,6.6914,6.6914,6.6914,6.6914,6.6914,6.6914,6.6914,6.6914,10.8906,10.8675,10.7098,10.6444,10.6251,10.4749,10.4059,10.3675,10.2174,10.1481,10.1404,10.1481,10.1135,10.0366,9.9596,9.8859,9.8207,9.7273,9.6911,9.6955,9.696,9.6989,9.7024,9.7028,9.7187,9.7344,9.7344,9.7461,9.7578,9.7578,9.7656,9.7656,9.7656,9.7695,9.7695,9.7695,9.7695,9.7695,9.7695,9.7695,9.7656,9.6875,9.6054,9.5195,9.4297,9.3086,9.164,9.0469,8.9453,8.8359,8.6133,8.4609,8.3633,8.2812,8.2031,8.1289,8.1094,8.0625,8.0,7.9765,7.9414,7.8672,7.8515,7.8203,7.7539,7.7461,7.7344,7.7226,7.7226,7.7187,7.6992,7.6523,7.5976,7.5664,7.414,7.293,7.2148,7.1992,7.1992,7.1992,7.1992,7.1992,7.1992,7.1992,7.1992,7.1992,7.1992,7.1992,7.1992,7.1992,7.1992,7.1992,7.1992,7.1992,7.1914,7.1211,7.0234,6.9648,6.8515,6.7539,6.6953,6.6914,6.6914,6.6914,6.6914,6.6914,6.6914,6.6914,6.6914,6.6914,6.6914,6.6914,6.6914,6.6914,6.6914,10.8906,10.8713,10.7098,10.6405,10.6251,10.5249,10.4443,10.383,10.2751,10.1866,10.1443,10.1404,10.1019,10.0173,9.9365,9.8557,9.7787,9.6903,9.648,9.648,9.648,9.6557,9.6748,9.6924,9.7018,9.7083,9.7106,9.7108,9.7187,9.7226,9.7304,9.7461,9.75,9.7539,9.7656,9.7695,9.7695,9.7695,9.7695,9.7695,9.7578,9.6953,9.6094,9.5195,9.4375,9.3398,9.2226,9.0781,8.8945,8.7031,8.6328,8.5156,8.3828,8.3359,8.2812,8.207,8.1875,8.1601,8.0859,8.0664,8.0273,7.9531,7.9375,7.9023,7.8242,7.8164,7.7851,7.7422,7.7226,7.7226,7.7187,7.6992,7.6601,7.5781,7.4453,7.3086,7.2305,7.1992,7.1992,7.1992,7.1992,7.1992,7.1992,7.1992,7.1992,7.1992,7.1992,7.1992,7.1992,7.1992,7.1992,7.1992,7.1992,7.1992,7.1797,7.1133,7.0586,7.0273,6.918,6.7812,6.7265,6.6914,6.6914,6.6914,6.6914,6.6914,6.6914,6.6914,6.6914,6.6914,6.6914,6.6914,6.6914,6.6914,6.6914,10.8906,10.8752,10.7098,10.6405,10.629,10.5441,10.4634,10.3828,10.2982,10.2097,10.1443,10.1289,10.1058,10.0519,9.975,9.8904,9.798,9.7173,9.6634,9.6288,9.6326,9.6365,9.648,9.6634,9.6749,9.6826,9.6826,9.689,9.6992,9.6998,9.7076,9.7226,9.7355,9.7461,9.7539,9.7656,9.7695,9.7695,9.7695,9.7695,9.7656,9.7265,9.6601,9.5742,9.4883,9.3828,9.2187,9.0703,8.9101,8.7539,8.6601,8.5586,8.4297,8.3789,8.3203,8.2383,8.2304,8.2031,8.1679,8.1523,8.1133,8.0469,8.0234,7.9805,7.914,7.875,7.8203,7.789,7.7422,7.7226,7.7226,7.7226,7.6758,7.5976,7.5,7.3906,7.2695,7.2578,7.2344,7.2148,7.1992,7.1992,7.1992,7.1992,7.1992,7.1992,7.1992,7.1992,7.1992,7.1992,7.1992,7.1992,7.1992,7.1992,7.1992,7.1523,7.0898,7.0547,6.9883,6.8437,6.7617,6.7109,6.6914,6.6914,6.6914,6.6914,6.6914,6.6914,6.6914,6.6914,6.6914,6.6914,6.6914,6.6914,6.6914,10.8906,10.8752,10.7098,10.6405,10.629,10.5556,10.4787,10.3824,10.3135,10.2212,10.1443,10.1289,10.125,10.1289,10.0288,9.9634,9.8865,9.7827,9.698,9.6519,9.6288,9.6326,9.6326,9.6365,9.6442,9.6557,9.6557,9.6707,9.6796,9.6849,9.6898,9.6985,9.7174,9.7332,9.7383,9.7539,9.7656,9.7656,9.7695,9.7695,9.7695,9.7578,9.7148,9.6328,9.5234,9.3789,9.1992,9.0664,8.9726,8.8828,8.7226,8.6015,8.5078,8.4219,8.3398,8.2656,8.2422,8.2265,8.2265,8.2148,8.1953,8.1289,8.1133,8.0742,7.9961,7.9375,7.8906,7.8633,7.7851,7.7461,7.7226,7.7226,7.6914,7.6289,7.6015,7.5234,7.4062,7.3515,7.3125,7.2305,7.2148,7.2109,7.1992,7.1992,7.1992,7.1992,7.1992,7.1992,7.1992,7.1992,7.1992,7.1992,7.1992,7.1992,7.1992,7.1914,7.1328,7.082,7.0273,6.9219,6.8125,6.7578,6.7148,6.6953,6.6914,6.6914,6.6914,6.6914,6.6914,6.6914,6.6914,6.6914,6.6914,6.6914,6.6914,10.8906,10.8752,10.7098,10.6405,10.6367,10.6174,10.5287,10.3901,10.3674,10.2713,10.1558,10.1289,10.1289,10.1289,10.0519,9.9981,9.9519,9.825,9.7094,9.6365,9.6288,9.6288,9.6288,9.6288,9.6326,9.6365,9.6365,9.6403,9.6442,9.6519,9.6519,9.6702,9.6792,9.6896,9.7109,9.7344,9.7461,9.7461,9.7617,9.7695,9.7695,9.7656,9.7304,9.6406,9.5039,9.3711,9.25,9.1484,9.0625,8.957,8.8164,8.6797,8.5859,8.5,8.414,8.332,8.2617,8.2304,8.2304,8.2304,8.2265,8.1992,8.1875,8.164,8.082,8.0547,8.0078,7.9531,7.8711,7.8008,7.7422,7.7226,7.7109,7.6914,7.6797,7.6484,7.5508,7.4726,7.3984,7.3281,7.3008,7.2773,7.2187,7.2226,7.2148,7.2031,7.207,7.2031,7.207,7.2109,7.207,7.2109,7.1992,7.1992,7.1992,7.1992,7.164,7.125,7.0742,7.0117,6.9023,6.832,6.8008,6.7461,6.6914,6.6914,6.6992,6.6914,6.6914,6.6914,6.6914,6.6914,6.6914,6.6914,6.6914,10.8906,10.8713,10.7098,10.6405,10.6405,10.6367,10.5441,10.4134,10.3906,10.2944,10.1558,10.1289,10.1289,10.1289,10.0827,10.048,9.975,9.8288,9.7287,9.6826,9.6557,9.6288,9.6288,9.6288,9.6288,9.6288,9.6288,9.6288,9.6288,9.6288,9.6365,9.6442,9.6519,9.6684,9.6857,9.7199,9.7383,9.7461,9.7578,9.7695,9.7695,9.7656,9.7031,9.6094,9.4922,9.3945,9.2656,9.1758,9.0898,8.9922,8.8789,8.7461,8.6289,8.539,8.4531,8.3633,8.2773,8.2344,8.2304,8.2304,8.2304,8.2304,8.2304,8.207,8.1562,8.1289,8.082,8.0273,7.957,7.8711,7.793,7.7812,7.7695,7.7265,7.7226,7.6992,7.6484,7.5742,7.4883,7.418,7.3906,7.3711,7.3398,7.3008,7.3125,7.3359,7.3398,7.332,7.2734,7.2734,7.2344,7.2226,7.207,7.1992,7.1992,7.1953,7.1875,7.164,7.1484,7.0859,7.0078,6.9492,6.9023,6.8281,6.7539,6.7148,6.7148,6.7031,6.6953,6.6914,6.6914,6.6914,6.6914,6.6914,6.6914,10.8867,10.8752,10.7098,10.6405,10.6405,10.6367,10.5441,10.3977,10.3906,10.2944,10.152,10.1289,10.1289,10.1289,10.1289,10.0788,9.9904,9.8865,9.8019,9.7325,9.6865,9.6519,9.6365,9.6288,9.6288,9.6288,9.6288,9.6288,9.6288,9.6288,9.6326,9.6326,9.6442,9.6509,9.6666,9.7049,9.7309,9.7344,9.7578,9.7695,9.7695,9.7656,9.6953,9.5898,9.5234,9.4375,9.3086,9.207,9.1133,9.0234,8.9375,8.8125,8.6797,8.5586,8.4687,8.3867,8.3086,8.2578,8.2344,8.2304,8.2304,8.2304,8.2304,8.2304,8.2109,8.1719,8.1367,8.0976,8.039,7.957,7.8828,7.8437,7.8086,7.7617,7.7344,7.7226,7.707,7.6484,7.5742,7.5,7.4765,7.4609,7.4414,7.414,7.4414,7.4609,7.4609,7.4453,7.3828,7.3437,7.3164,7.2812,7.2734,7.2187,7.207,7.2031,7.1953,7.1875,7.1836,7.1484,7.0976,7.0703,7.0117,6.8984,6.8281,6.793,6.7578,6.7461,6.7305,6.707,6.6914,6.6914,6.6914,6.6914,6.6914,10.8867,10.8752,10.7098,10.6405,10.6405,10.6405,10.5403,10.4057,10.3867,10.2905,10.1443,10.1289,10.1289,10.1289,10.1289,10.0827,10.0173,9.9519,9.8827,9.7864,9.7325,9.6942,9.648,9.6326,9.6288,9.6288,9.6288,9.6288,9.6288,9.6288,9.6288,9.6326,9.6326,9.6365,9.648,9.6782,9.7057,9.7187,9.7461,9.7656,9.7695,9.7617,9.7265,9.6172,9.5547,9.4648,9.375,9.2812,9.1992,9.1133,9.0234,8.9297,8.8086,8.6758,8.5625,8.4726,8.3789,8.3008,8.2578,8.2344,8.2304,8.2304,8.2304,8.2304,8.2265,8.2148,8.1953,8.1797,8.125,8.0429,7.957,7.9101,7.8555,7.8164,7.7695,7.7265,7.7187,7.6953,7.6562,7.5859,7.5664,7.5547,7.5351,7.5156,7.5195,7.5273,7.5234,7.5039,7.457,7.4375,7.4258,7.3906,7.3594,7.2851,7.2148,7.2148,7.207,7.1992,7.1953,7.1953,7.164,7.1758,7.1172,7.0039,6.9258,6.8867,6.8515,6.8086,6.7773,6.7617,6.7305,6.6953,6.7031,6.7148,6.6914,10.8675,10.8178,10.6905,10.6405,10.6328,10.5864,10.5057,10.3901,10.3405,10.252,10.1597,10.1289,10.1289,10.1289,10.1289,10.1058,10.0711,10.025,9.9596,9.8788,9.7942,9.7364,9.6826,9.6519,9.6326,9.6288,9.6288,9.6288,9.6288,9.6288,9.6288,9.6288,9.6288,9.6288,9.6365,9.6594,9.6843,9.7031,9.7344,9.7617,9.7695,9.7695,9.7265,9.6523,9.5664,9.4804,9.3906,9.3047,9.2187,9.1328,9.0429,8.9609,8.8633,8.7617,8.6484,8.5547,8.4414,8.3476,8.2929,8.2617,8.2304,8.2304,8.2304,8.2304,8.2304,8.2304,8.2304,8.2187,8.207,8.1328,8.0469,7.9961,7.9414,7.8594,7.8086,7.7695,7.7344,7.7265,7.6953,7.6601,7.6523,7.6406,7.6328,7.6133,7.6015,7.5937,7.5898,7.5625,7.5312,7.5273,7.5195,7.4648,7.4219,7.3672,7.293,7.2734,7.2422,7.2226,7.2109,7.2109,7.1992,7.1953,7.1797,7.1172,7.0508,6.9844,6.9297,6.8828,6.8515,6.8203,6.7969,6.7695,6.75,6.7344,6.7226,10.8447,10.7639,10.6751,10.6405,10.6251,10.548,10.4672,10.3826,10.2981,10.2135,10.1366,10.1289,10.1289,10.1289,10.1289,10.1289,10.125,10.0596,10.025,9.975,9.8788,9.798,9.7364,9.6903,9.648,9.6288,9.6288,9.6288,9.6288,9.6288,9.6288,9.6288,9.6288,9.6288,9.6326,9.6519,9.6733,9.6954,9.7226,9.75,9.7656,9.7656,9.7422,9.6758,9.5898,9.5117,9.4297,9.3437,9.2578,9.1679,9.082,8.9883,8.9023,8.8203,8.7344,8.6406,8.4961,8.4179,8.3437,8.3047,8.2617,8.2344,8.2304,8.2304,8.2304,8.2304,8.2304,8.2304,8.2226,8.2031,8.1367,8.1054,8.0351,7.9492,7.8906,7.8476,7.7851,7.7539,7.7422,7.7265,7.7265,7.7148,7.6953,7.6797,7.6601,7.6601,7.6562,7.6484,7.6211,7.6172,7.5976,7.5273,7.4765,7.4414,7.3945,7.3594,7.3164,7.2656,7.2539,7.2461,7.2226,7.1992,7.1797,7.168,7.1406,7.0742,7.0156,6.9609,6.9336,6.9023,6.8711,6.8515,6.8359,6.8164,6.8047,10.8447,10.7639,10.6751,10.6405,10.6251,10.5403,10.4636,10.379,10.2905,10.2097,10.1289,10.1289,10.1289,10.1289,10.1289,10.1289,10.125,10.1135,10.0711,10.0211,9.9711,9.8827,9.7787,9.7479,9.6942,9.6596,9.6403,9.6288,9.6288,9.6288,9.6288,9.6288,9.6288,9.6288,9.6326,9.648,9.6628,9.6725,9.7143,9.75,9.7656,9.7695,9.7617,9.7344,9.6679,9.582,9.4922,9.4023,9.3203,9.2383,9.1562,9.0703,8.9883,8.9023,8.8203,8.7344,8.6367,8.5234,8.4062,8.3476,8.3047,8.2578,8.2344,8.2304,8.2304,8.2304,8.2304,8.2304,8.2304,8.2265,8.1914,8.1445,8.0976,8.0469,7.9883,7.9219,7.8555,7.8281,7.8125,7.789,7.789,7.7656,7.7422,7.7265,7.7187,7.7187,7.7187,7.707,7.6992,7.6836,7.6719,7.6015,7.5625,7.5312,7.4844,7.4492,7.3984,7.3281,7.3086,7.293,7.2578,7.2305,7.207,7.1914,7.1758,7.1523,7.0898,7.043,7.0156,6.9883,6.9609,6.9414,6.9297,6.9062,6.8789,10.7754,10.6944,10.6559,10.6136,10.5556,10.4787,10.3903,10.3098,10.2212,10.1635,10.1366,10.1289,10.1289,10.1289,10.1289,10.1289,10.1289,10.1289,10.1135,10.0673,10.0288,9.9673,9.9058,9.8441,9.7787,9.7171,9.6903,9.6673,9.6519,9.6326,9.6288,9.6326,9.6288,9.6288,9.648,9.6403,9.648,9.6706,9.7109,9.7422,9.7539,9.7617,9.7695,9.7656,9.6953,9.6133,9.5273,9.4375,9.3515,9.2656,9.1758,9.1172,9.0469,8.9531,8.8476,8.8203,8.7383,8.6367,8.5234,8.4219,8.3515,8.3008,8.2617,8.2304,8.2304,8.2304,8.2304,8.2304,8.2304,8.2304,8.2304,8.1953,8.1484,8.1054,8.0703,8.0078,7.9453,7.9258,7.9062,7.8789,7.8515,7.8359,7.8086,7.7773,7.7617,7.7539,7.7422,7.7226,7.7187,7.7109,7.6953,7.6758,7.6484,7.6289,7.5781,7.5312,7.4883,7.4297,7.4062,7.375,7.3086,7.2734,7.2578,7.2226,7.1953,7.168,7.1406,7.1289,7.1055,7.0781,7.0508,7.0312,7.0078,6.957,6.9336,10.6867,10.6097,10.6059,10.5672,10.5018,10.4016,10.3211,10.2559,10.1712,10.1327,10.1289,10.1289,10.1289,10.1289,10.1289,10.1289,10.1289,10.1289,10.1289,10.1058,10.0711,10.0288,9.9788,9.9288,9.8672,9.7864,9.7825,9.7557,9.7211,9.698,9.698,9.6596,9.6711,9.6826,9.6903,9.7133,9.7287,9.7508,9.7613,9.7734,9.7773,9.7695,9.7695,9.7539,9.707,9.6406,9.5547,9.4726,9.3867,9.3008,9.2187,9.1601,9.1054,9.0234,8.9219,8.875,8.8008,8.7383,8.6328,8.5312,8.4219,8.3476,8.289,8.2304,8.2304,8.2304,8.2304,8.2304,8.2304,8.2304,8.2304,8.2265,8.1992,8.164,8.1328,8.0742,8.0273,8.0117,7.9765,7.9336,7.918,7.9375,7.9023,7.8398,7.8086,7.793,7.7695,7.75,7.7383,7.7383,7.7226,7.7109,7.6992,7.6836,7.6562,7.6055,7.5625,7.5273,7.5039,7.457,7.3906,7.3515,7.332,7.289,7.2383,7.2031,7.1836,7.1914,7.1953,7.1562,7.1211,7.1133,7.0859,7.0312,7.0117,10.5982,10.5214,10.5174,10.5136,10.4903,10.3365,10.2674,10.2444,10.1635,10.1327,10.1289,10.1289,10.1289,10.1289,10.1289,10.1289,10.1289,10.1289,10.1289,10.1289,10.1173,10.075,10.0365,9.9981,9.9596,9.8827,9.8711,9.8634,9.8519,9.8173,9.7941,9.7556,9.7519,9.7941,9.8172,9.821,9.8326,9.844,9.83,9.8177,9.8125,9.7969,9.7695,9.7695,9.7578,9.7226,9.6406,9.5547,9.457,9.3711,9.2929,9.2109,9.1562,9.1015,9.0156,8.914,8.8594,8.8008,8.7109,8.6211,8.5156,8.3906,8.2969,8.25,8.2539,8.2344,8.2304,8.2304,8.2304,8.2304,8.2304,8.2265,8.2148,8.207,8.1836,8.1562,8.1133,8.0976,8.0586,7.9961,7.9922,8.0273,8.0351,7.9844,7.9062,7.8867,7.8515,7.832,7.793,7.7812,7.7539,7.7383,7.7305,7.7226,7.7148,7.6758,7.6367,7.6094,7.5859,7.5312,7.4687,7.4414,7.4219,7.3633,7.3164,7.2695,7.2305,7.2383,7.2344,7.2109,7.1875,7.1601,7.1562,7.1289,7.1289,10.5407,10.5022,10.3982,10.3558,10.3518,10.2865,10.2288,10.1789,10.1443,10.1289,10.1289,10.1289,10.1289,10.1289,10.1289,10.1289,10.1289,10.1289,10.1289,10.1289,10.1212,10.1096,10.0827,10.0673,10.0442,9.9788,9.9596,9.925,9.875,9.8942,9.9173,9.8865,9.8558,9.8481,9.8712,9.8942,9.8981,9.8865,9.8513,9.8207,9.8242,9.7851,9.7578,9.7695,9.7695,9.7265,9.6562,9.6211,9.5195,9.4219,9.3594,9.2851,9.207,9.164,9.0742,8.9609,8.914,8.8437,8.7578,8.6719,8.5625,8.4648,8.3672,8.3086,8.2969,8.2656,8.2383,8.2304,8.2304,8.2304,8.2304,8.2304,8.2265,8.2304,8.2226,8.2031,8.1875,8.164,8.1523,8.0937,8.1133,8.1484,8.1484,8.1367,8.0547,7.9844,7.9453,7.9101,7.8672,7.8398,7.8203,7.8047,7.8008,7.7578,7.7461,7.7305,7.7109,7.6836,7.6601,7.6094,7.5547,7.543,7.5156,7.457,7.3984,7.3594,7.3242,7.293,7.2617,7.2187,7.2031,7.1914,7.1953,7.1992,7.1992,10.483,10.4252,10.3097,10.2597,10.2557,10.2326,10.1865,10.1366,10.1327,10.1289,10.1289,10.1289,10.1289,10.1289,10.1289,10.1289,10.1289,10.1289,10.1289,10.1289,10.1289,10.1289,10.1289,10.1212,10.0943,10.0519,10.0442,10.0096,9.975,9.9557,9.9904,10.0057,9.9904,9.9711,9.9634,9.9519,9.9519,9.9404,9.9016,9.8508,9.8594,9.8125,9.7578,9.7695,9.7656,9.75,9.6953,9.6562,9.5703,9.4726,9.3945,9.3398,9.2695,9.1953,9.125,9.0469,8.9765,8.8984,8.7929,8.6797,8.5976,8.5273,8.4492,8.3945,8.3515,8.3047,8.2773,8.2304,8.2304,8.2304,8.2304,8.2304,8.2304,8.2304,8.2304,8.2187,8.2187,8.207,8.2109,8.1992,8.2148,8.207,8.2031,8.1836,8.1289,8.0586,8.0312,7.9844,7.9375,7.918,7.914,7.8984,7.8828,7.832,7.7773,7.7734,7.7656,7.7109,7.6914,7.6797,7.6445,7.6328,7.5976,7.5312,7.4805,7.4492,7.414,7.375,7.3008,7.2187,7.2109,7.2109,7.1992,7.1992,7.1992,10.4137,10.2713,10.2597,10.2558,10.2403,10.1712,10.1327,10.1289,10.1289,10.1289,10.1289,10.1289,10.1289,10.1289,10.1289,10.1289,10.1289,10.1289,10.1289,10.1289,10.1289,10.1289,10.1289,10.1289,10.125,10.1289,10.1135,10.0981,10.1019,10.0788,10.1058,10.1096,10.0865,10.0865,10.1173,10.1212,10.1212,10.1096,10.0442,9.9743,9.9086,9.8591,9.8047,9.7539,9.7617,9.7539,9.7344,9.6992,9.6211,9.5351,9.4453,9.375,9.289,9.2578,9.1953,9.1172,9.1094,9.0234,8.875,8.7148,8.6484,8.6133,8.539,8.4687,8.3984,8.3554,8.3242,8.2773,8.25,8.2383,8.2344,8.2304,8.2304,8.2304,8.2304,8.2304,8.2304,8.2304,8.2304,8.2304,8.2304,8.2304,8.2304,8.2148,8.1758,8.1328,8.1054,8.0664,8.0195,8.0117,8.0195,7.9844,7.9687,7.918,7.8672,7.8437,7.8164,7.7578,7.7148,7.7031,7.6992,7.6875,7.6484,7.5937,7.5742,7.5508,7.5039,7.4531,7.3711,7.2969,7.2383,7.2226,7.2109,7.1992,7.1992,10.3136,10.2559,10.1981,10.175,10.1712,10.1443,10.1289,10.1289,10.1289,10.1289,10.1289,10.1289,10.1289,10.1289,10.1289,10.1289,10.1289,10.1289,10.1289,10.1289,10.1289,10.1289,10.1289,10.1289,10.1289,10.1289,10.1289,10.1289,10.125,10.1289,10.1289,10.1289,10.1289,10.1289,10.1289,10.1289,10.1289,10.1173,10.0519,9.9827,9.921,9.8669,9.8047,9.7226,9.7461,9.7617,9.7539,9.7187,9.6758,9.5976,9.5117,9.4258,9.3398,9.3047,9.2226,9.1523,9.1289,9.0508,8.9179,8.8008,8.7617,8.7031,8.6289,8.5664,8.5312,8.4726,8.4062,8.3398,8.3164,8.2929,8.2461,8.2344,8.2344,8.2304,8.2304,8.2304,8.2304,8.2304,8.2304,8.2304,8.2304,8.2304,8.2304,8.2304,8.1992,8.1914,8.1679,8.1719,8.1367,8.1406,8.1445,8.0859,8.0469,8.0,7.9609,7.9258,7.8828,7.8281,7.7656,7.7148,7.7187,7.7305,7.707,7.6562,7.6562,7.6523,7.5859,7.5234,7.457,7.3867,7.3437,7.3008,7.289,7.25,7.2031,10.2444,10.2058,10.1558,10.1289,10.1289,10.1289,10.1289,10.1289,10.1289,10.1289,10.1289,10.1289,10.1289,10.1289,10.1289,10.1289,10.1289,10.1289,10.1289,10.1289,10.1289,10.1289,10.1289,10.1289,10.1289,10.1289,10.1289,10.1289,10.1289,10.1289,10.1289,10.1289,10.1289,10.1289,10.1289,10.1289,10.1289,10.1173,10.075,10.0057,9.9327,9.8643,9.8085,9.7344,9.7187,9.7422,9.7422,9.7383,9.7265,9.6484,9.5703,9.4804,9.3945,9.3125,9.2383,9.1875,9.1289,9.0742,8.9961,8.8789,8.832,8.7929,8.7109,8.6562,8.625,8.5625,8.4922,8.4375,8.4101,8.3554,8.2969,8.2812,8.2656,8.2656,8.2383,8.2383,8.2304,8.2304,8.2304,8.2304,8.2304,8.2304,8.2304,8.2304,8.2226,8.2226,8.2265,8.2304,8.2304,8.2226,8.2187,8.1679,8.125,8.0898,8.0429,8.0,7.9531,7.9023,7.8359,7.7695,7.75,7.7617,7.7422,7.7226,7.7031,7.6797,7.6484,7.5937,7.5586,7.5234,7.4844,7.4375,7.3867,7.3281,7.2695,10.2058,10.1366,10.1289,10.1289,10.1289,10.1289,10.1289,10.1289,10.1289,10.1289,10.1289,10.1289,10.1289,10.1289,10.1289,10.1289,10.1289,10.1289,10.1289,10.1289,10.1289,10.1289,10.1289,10.1289,10.1289,10.1289,10.1289,10.1289,10.1289,10.1289,10.1289,10.1289,10.1289,10.1289,10.1289,10.1289,10.1289,10.125,10.1096,10.0327,9.9481,9.9056,9.8208,9.7437,9.7071,9.7169,9.7226,9.7344,9.7109,9.6523,9.5781,9.4883,9.4023,9.3125,9.2812,9.2383,9.1758,9.1406,9.0859,8.9648,8.9062,8.8711,8.7969,8.7187,8.6601,8.6289,8.5781,8.5273,8.4922,8.4336,8.3828,8.3554,8.3281,8.2969,8.2578,8.2461,8.2344,8.2304,8.2304,8.2304,8.2304,8.2304,8.2304,8.2304,8.2304,8.2304,8.2304,8.2304,8.2304,8.2304,8.2265,8.2226,8.1914,8.1758,8.1328,8.0703,8.0312,7.9805,7.9101,7.8476,7.8242,7.7969,7.7773,7.7578,7.7305,7.7031,7.6797,7.6836,7.6914,7.6523,7.5937,7.543,7.4805,7.4375,7.3828,10.152,10.1327,10.1289,10.1289,10.1289,10.1289,10.1289,10.1289,10.1289,10.1289,10.1289,10.1289,10.1289,10.1289,10.1289,10.1289,10.1289,10.1289,10.1289,10.1289,10.1289,10.1289,10.1289,10.1289,10.1289,10.1289,10.1289,10.1289,10.1289,10.1289,10.1289,10.1289,10.1289,10.1289,10.1289,10.1289,10.1289,10.1289,10.1289,10.0596,9.9788,9.9326,9.836,9.7595,9.6955,9.7006,9.6926,9.7221,9.7148,9.7031,9.6445,9.5703,9.4844,9.4023,9.3398,9.2656,9.2265,9.1992,9.1367,9.082,9.0234,8.957,8.8828,8.8008,8.7422,8.6992,8.664,8.6133,8.5781,8.5312,8.4804,8.4453,8.4023,8.3554,8.3203,8.3008,8.2851,8.2539,8.25,8.2304,8.2304,8.2304,8.2304,8.2304,8.2304,8.2304,8.2304,8.2304,8.2304,8.2304,8.2304,8.2304,8.2265,8.207,8.1836,8.1328,8.0976,8.0586,7.9883,7.9375,7.918,7.8828,7.8359,7.7969,7.7695,7.7422,7.7148,7.7226,7.7226,7.7226,7.6719,7.625,7.5781,7.5351,7.4844,10.1289,10.1289,10.1289,10.1135,10.0827,10.0827,10.0634,10.048,10.1019,10.1289,10.1289,10.1289,10.1289,10.1289,10.1289,10.1289,10.1289,10.1289,10.1289,10.1289,10.1289,10.1289,10.1289,10.1289,10.1289,10.1289,10.1289,10.1289,10.1289,10.1289,10.1289,10.1289,10.1289,10.1289,10.1289,10.1289,10.1289,10.1289,10.1173,10.0788,10.0212,9.9442,9.8481,9.7672,9.7133,9.6711,9.663,9.7012,9.716,9.7226,9.6758,9.6211,9.5429,9.4609,9.3515,9.2812,9.2539,9.2304,9.1914,9.1445,9.1015,9.0469,8.9687,8.8867,8.8125,8.7578,8.7226,8.6797,8.664,8.6406,8.5859,8.5312,8.4765,8.4219,8.3984,8.3711,8.332,8.2929,8.2656,8.2383,8.2304,8.2304,8.2304,8.2304,8.2304,8.2304,8.2304,8.2304,8.2304,8.2304,8.2304,8.2304,8.2304,8.2226,8.2031,8.1836,8.164,8.125,8.0742,8.0312,8.0117,7.9609,7.8984,7.8476,7.8086,7.7773,7.7461,7.7265,7.7226,7.7226,7.7226,7.6836,7.6484,7.6328,7.582,10.1135,10.1058,10.1135,10.0596,10.0057,9.9981,9.9596,9.898,10.0366,10.1058,10.0981,10.1058,10.0904,10.075,10.0904,10.1058,10.1096,10.1173,10.1289,10.1289,10.1289,10.1289,10.1289,10.1289,10.1289,10.1289,10.1289,10.1289,10.1289,10.1289,10.1289,10.1289,10.1289,10.1289,10.1289,10.1289,10.1289,10.1289,10.125,10.0981,10.0211,9.9365,9.8404,9.771,9.6942,9.6403,9.6519,9.6674,9.6797,9.6875,9.6836,9.6445,9.5859,9.4804,9.3633,9.3008,9.2734,9.2539,9.2304,9.1914,9.164,9.1172,9.0625,8.9883,8.9219,8.8242,8.7773,8.7304,8.707,8.6953,8.6484,8.625,8.5859,8.5312,8.4922,8.4492,8.3984,8.3515,8.3086,8.2773,8.2422,8.2383,8.2304,8.2304,8.2304,8.2304,8.2304,8.2304,8.2304,8.2304,8.2304,8.2304,8.2304,8.2304,8.2265,8.2148,8.2187,8.1875,8.1406,8.125,8.1054,8.0351,7.9531,7.9023,7.8555,7.8047,7.7734,7.75,7.7265,7.7226,7.7226,7.7226,7.7109,7.6914,7.668,9.9981,9.9404,9.9404,9.925,9.9096,9.9096,9.898,9.8826,9.9172,9.9404,9.9404,9.9403,9.9481,9.9635,10.0173,10.0365,10.0442,10.0943,10.125,10.125,10.125,10.1289,10.1289,10.1289,10.1289,10.1289,10.1289,10.1289,10.1289,10.1289,10.1289,10.1289,10.1289,10.1289,10.1289,10.1289,10.1289,10.1289,10.125,10.1212,10.0788,9.9634,9.8596,9.798,9.7364,9.6403,9.6403,9.6553,9.6652,9.6719,9.7031,9.6875,9.6445,9.4804,9.3945,9.3515,9.2929,9.2656,9.2539,9.2344,9.2187,9.1953,9.1523,9.1094,9.0312,8.914,8.8281,8.7812,8.7461,8.7304,8.7187,8.7031,8.6875,8.6328,8.5859,8.5273,8.4687,8.414,8.3633,8.3164,8.2734,8.25,8.2422,8.2304,8.2304,8.2304,8.2304,8.2304,8.2304,8.2304,8.2304,8.2304,8.2304,8.2304,8.2304,8.2304,8.2304,8.2304,8.1953,8.1875,8.1914,8.1211,8.0429,7.9609,7.8984,7.8594,7.8125,7.7578,7.7383,7.7265,7.7226,7.7226,7.7226,7.707,7.707,9.9211,9.8826,9.8788,9.8558,9.825,9.8249,9.8018,9.771,9.7672,9.7673,9.7866,9.8404,9.8788,9.8788,9.9288,9.9481,9.9673,10.0365,10.0596,10.075,10.1058,10.1289,10.1289,10.1173,10.1289,10.1289,10.1289,10.1289,10.125,10.1289,10.1289,10.1289,10.1289,10.1289,10.1289,10.1289,10.1289,10.1289,10.1289,10.1289,10.1135,9.9827,9.8865,9.8326,9.7441,9.6519,9.6326,9.6442,9.648,9.6676,9.6941,9.6797,9.6211,9.5078,9.4258,9.3711,9.3164,9.2578,9.2617,9.2578,9.2578,9.2344,9.2265,9.1758,9.1133,9.0,8.9258,8.8711,8.7695,8.7383,8.7383,8.7265,8.7226,8.6914,8.6679,8.6328,8.5586,8.4844,8.4453,8.414,8.3633,8.3125,8.2929,8.2461,8.2422,8.2304,8.2304,8.2304,8.2304,8.2304,8.2304,8.2304,8.2304,8.2304,8.2304,8.2304,8.2304,8.2304,8.2304,8.2226,8.207,8.1836,8.1328,8.0508,7.9805,7.9297,7.8789,7.8047,7.75,7.7305,7.7226,7.7226,7.7226,7.7226,7.7148,9.8555,9.8517,9.8441,9.8057,9.7404,9.7326,9.698,9.6442,9.6326,9.6365,9.6596,9.7865,9.8403,9.848,9.8632,9.8634,9.8904,9.9596,9.9827,10.0096,10.0519,10.048,10.0596,10.0827,10.0712,10.0673,10.0673,10.0866,10.1019,10.1019,10.1058,10.1212,10.1289,10.1289,10.1289,10.1289,10.1289,10.1289,10.1289,10.1289,10.0596,9.975,9.9058,9.8211,9.7325,9.6403,9.6288,9.6326,9.6403,9.6576,9.6779,9.6679,9.6328,9.5469,9.4765,9.4101,9.3359,9.2851,9.2617,9.2578,9.2578,9.2578,9.2578,9.2265,9.1601,9.0976,9.0234,8.9453,8.8398,8.7656,8.7617,8.7539,8.75,8.7422,8.7304,8.7226,8.6367,8.5586,8.5273,8.5039,8.4492,8.3906,8.332,8.2851,8.2578,8.2422,8.2304,8.2304,8.2304,8.2304,8.2304,8.2304,8.2304,8.2304,8.2304,8.2304,8.2304,8.2304,8.2304,8.2304,8.2265,8.207,8.1797,8.1406,8.0742,8.0039,7.9297,7.8555,7.8008,7.7422,7.7265,7.7226,7.7226,7.7226,7.7226,9.7364,9.6749,9.6749,9.6673,9.6557,9.6557,9.6442,9.6326,9.6288,9.6288,9.6403,9.648,9.6788,9.6826,9.7518,9.775,9.7904,9.8634,9.8981,9.9134,9.9481,9.9404,9.9481,9.9788,9.9365,9.9404,9.9635,9.975,10.0289,10.0365,10.0673,10.1173,10.1289,10.1289,10.1289,10.1289,10.1289,10.1289,10.1289,10.1289,10.0827,9.9981,9.9019,9.8134,9.721,9.6557,9.6288,9.6288,9.6326,9.6394,9.6552,9.6666,9.6383,9.5875,9.5195,9.4531,9.375,9.3086,9.2812,9.2617,9.2539,9.2539,9.2539,9.2539,9.2031,9.164,9.1015,9.0586,8.9531,8.832,8.8047,8.7734,8.7617,8.7539,8.7422,8.7383,8.6992,8.6445,8.6015,8.5664,8.5234,8.457,8.3867,8.3398,8.2929,8.2734,8.2304,8.2304,8.2304,8.2304,8.2304,8.2304,8.2304,8.2304,8.2304,8.2304,8.2304,8.2304,8.2304,8.2304,8.2304,8.2304,8.2031,8.1758,8.1289,8.0625,7.9844,7.9101,7.8281,7.7695,7.7344,7.7226,7.7226,7.7226,7.7226]},{"header":{"parameterUnit":"m.s-1","parameterCategory":1,"la1":31.0,"la2":29.5877,"lo1":-88.7671,"lo2":-86.6584,"dy":0.0162,"dx":0.0185,"nx":115,"ny":88,"refTime":"2023-10-29T12:00:00:Z","depth":0,"parameterNumber":3,"parameterNumberName":"V-component_of_WINDS"},"data":[0.0,0.0,0.0,0.0,0.0,0.0,0.0,0.0,0.0,0.0,0.0,0.0,0.0,0.0,0.0,0.0,0.0,0.0,0.0,0.0,0.0,0.0,0.0,0.0,0.0,0.0,0.0,0.0,0.0,0.0,0.0,0.0,0.0,0.0,0.0,0.0,0.0,0.0,0.0,0.0,0.0,0.0,0.0,0.0,0.0,0.0,0.0,0.0,0.0,0.0,0.0,0.0,0.0,0.0,0.0,0.0,0.0,0.0,0.0,0.0,0.0,0.0,0.0,0.0,0.0,0.0,0.0,0.0,0.0,0.0,0.0,0.0,0.0,0.0,0.0,0.0,0.0,0.0,0.0,0.0,0.0,0.0,0.0,0.0,0.0,0.0,0.0,0.0,0.0,0.0,0.0,0.0,0.0,0.0,0.0,0.0,0.0,0.0,0.0,0.0,0.0,0.0,0.0,0.0,0.0,0.0,0.0,0.0,0.0,0.0,0.0,0.0,0.0,0.0,0.0,0.0,0.0,0.0,0.0,0.0,0.0,0.0,0.0,0.0,0.0,0.0,0.0,0.0,0.0,0.0,0.0,0.0,0.0,0.0,0.0,0.0,0.0,0.0,0.0,0.0,0.0,0.0,0.0,0.0,0.0,0.0,0.0,0.0,0.0,0.0,0.0,0.0,0.0,0.0,0.0,0.0,0.0,0.0,0.0,0.0,0.0,0.0,0.0,0.0,0.0,0.0,0.0,0.0,0.0,0.0,0.0,0.0,0.0,0.0,0.0,0.0,0.0,0.0,0.0,0.0,0.0,0.0,0.0,0.0,0.0,0.0,0.0,0.0,0.0,0.0,0.0,0.0,0.0,0.0,0.0,0.0,0.0,0.0,0.0,0.0,0.0,0.0,0.0,0.0,0.0,0.0,0.0,0.0,0.0,0.0,0.0,0.0,0.0,0.0,0.0,0.0,0.0,0.0,0.0,0.0,0.0,0.0,0.0,0.0,0.0,0.0,0.0,0.0,0.0,0.0,0.0,0.0,0.0,0.0,0.0,0.0,0.0,0.0,0.0,0.0,0.0,0.0,0.0,0.0,0.0,0.0,0.0,0.0,0.0,0.0,0.0,0.0,0.0,0.0,0.0,0.0,0.0,0.0,0.0,0.0,0.0,0.0,0.0,0.0,0.0,0.0,0.0,0.0,0.0,0.0,0.0,0.0,0.0,0.0,0.0,0.0,0.0,0.0,0.0,0.0,0.0,0.0,0.0,0.0,0.0,0.0,0.0,0.0,0.0,0.0,0.0,0.0,0.0,0.0,0.0,0.0,0.0,0.0,0.0,0.0,0.0,0.0,0.0,0.0,0.0,0.0,0.0,0.0,0.0,0.0,0.0,0.0,0.0,0.0,0.0,0.0,0.0,0.0,0.0,0.0,0.0,0.0,0.0,0.0,0.0,0.0,0.0,0.0,0.0,0.0,0.0,0.0,0.0,0.0,0.0,0.0,0.0,0.0,0.0,0.0,0.0,0.0,0.0,0.0,0.0,0.0,0.0,0.0,0.0,0.0,0.0,0.0,0.0,0.0,0.0,0.0,0.0,0.0,0.0,0.0,0.0,0.0,0.0,0.0,0.0,0.0,0.0,0.0,0.0,0.0,0.0,0.0,0.0,0.0,0.0,0.0,0.0,0.0,0.0,0.0,0.0,0.0,0.0,0.0,0.0,0.0,0.0,0.0,0.0,0.0,0.0,0.0,0.0,0.0,0.0,0.0,0.0,0.0,0.0,0.0,0.0,0.0,0.0,0.0,0.0,0.0,0.0,0.0,0.0,0.0,0.0,0.0,0.0,0.0,0.0,0.0,0.0,0.0,0.0,0.0,0.0,0.0,0.0,0.0,0.0,0.0,0.0,0.0,0.0,0.0,0.0,0.0,0.0,0.0,0.0,0.0,0.0,0.0,0.0,0.0,0.0,0.0,0.0,0.0,0.0,0.0,0.0,0.0,0.0,0.0,0.0,0.0,0.0,0.0,0.0,0.0,0.0,0.0,0.0,0.0,0.0,0.0,0.0,0.0,0.0,0.0,0.0,0.0,0.0,0.0,0.0,0.0,0.0,0.0,0.0,0.0,0.0,0.0,0.0,0.0,0.0,0.0,0.0,0.0,0.0,0.0,0.0,0.0,0.0,0.0,0.0,0.0,0.0,0.0,0.0,0.0,0.0,0.0,0.0,0.0,0.0,0.0,0.0,0.0,0.0,0.0,0.0,0.0,0.0,0.0,0.0,0.0,0.0,0.0,0.0,0.0,0.0,0.0,0.0,0.0,0.0,0.0,0.0,0.0,0.0,0.0,0.0,0.0,0.0,0.0,0.0,0.0,0.0,0.0,0.0,0.0,0.0,0.0,0.0,0.0,0.0,0.0,0.0,0.0,0.0,0.0,0.0,0.0,0.0,0.0,0.0,0.0,0.0,0.0,0.0,0.0,0.0,0.0,0.0,0.0,0.0,0.0,0.0,0.0,0.0,0.0,0.0,0.0,0.0,0.0,0.0,0.0,0.0,0.0,0.0,0.0,0.0,0.0,0.0,0.0,0.0,0.0,0.0,0.0,0.0,0.0,0.0,0.0,0.0,0.0,0.0,0.0,0.0,0.0,0.0,0.0,0.0,0.0,0.0,0.0,0.0,0.0,0.0,0.0,0.0,0.0,0.0,0.0,0.0,0.0,0.0,0.0,0.0,0.0,0.0,0.0,0.0,0.0,0.0,0.0,0.0,0.0,0.0,0.0,0.0,0.0,0.0,0.0,0.0,0.0,0.0,0.0,0.0,0.0,0.0,0.0,0.0,0.0,0.0,0.0,0.0,0.0,0.0,0.0,0.0,0.0,0.0,0.0,0.0,0.0,0.0,0.0,0.0,0.0,0.0,0.0,0.0,0.0,0.0,0.0,0.0,0.0,0.0,0.0,0.0,0.0,0.0,0.0,0.0,0.0,0.0,0.0,0.0,0.0,0.0,0.0,0.0,0.0,0.0,0.0,0.0,0.0,0.0,0.0,0.0,0.0,0.0,0.0,0.0,0.0,0.0,0.0,0.0,0.0,0.0,0.0,0.0,0.0,0.0,0.0,0.0,0.0,0.0,0.0,0.0,0.0,0.0,0.0,0.0,0.0,0.0,0.0,0.0,0.0,0.0,0.0,0.0,0.0,0.0,0.0,0.0,0.0,0.0,0.0,0.0,0.0,0.0,0.0,0.0,0.0,0.0,0.0,0.0,0.0,0.0,0.0,0.0,0.0,0.0,0.0,0.0,0.0,0.0,0.0,0.0,0.0,0.0,0.0,0.0,0.0,0.0,0.0,0.0,0.0,0.0,0.0,0.0,0.0,0.0,0.0,0.0,0.0,0.0,0.0,0.0,0.0,0.0,0.0,0.0,0.0,0.0,0.0,0.0,0.0,0.0,0.0,0.0,0.0,0.0,0.0,0.0,0.0,0.0,0.0,0.0,0.0,0.0,0.0,0.0,0.0,0.0,0.0,0.0,0.0,0.0,0.0,0.0,0.0,0.0,0.0,0.0,0.0,0.0,0.0,0.0,0.0,0.0,0.0,0.0,0.0,0.0,0.0,0.0,0.0,0.0,0.0,0.0,0.0,0.0,0.0,0.0,0.0,0.0,0.0,0.0,0.0,0.0,0.0,0.0,0.0,0.0,0.0,0.0,0.0,0.0,0.0,0.0,0.0,0.0,0.0,0.0,0.0,0.0,0.0,0.0,0.0,0.0,0.0,0.0,0.0,0.0,0.0,0.0,0.0,0.0,0.0,0.0,0.0,0.0,0.0,0.0,0.0,0.0,0.0,0.0,0.0,0.0,0.0,0.0,0.0,0.0,0.0,0.0,0.0,0.0,0.0,0.0,0.0,0.0,0.0,0.0,0.0,0.0,0.0,0.0,0.0,0.0,0.0,0.0,0.0,0.0,0.0,0.0,0.0,0.0,0.0,0.0,0.0,0.0,0.0,0.0,0.0,0.0,0.0,0.0,0.0,0.0,0.0,0.0,0.0,0.0,0.0,0.0,0.0,0.0,0.0,0.0,0.0,0.0,0.0,0.0,0.0,0.0,0.0,0.0,0.0,0.0,0.0,0.0,0.0,0.0,0.0,0.0,0.0,0.0,0.0,0.0,0.0,0.0,0.0,0.0,0.0,0.0,0.0,0.0,0.0,0.0,0.0,0.0,0.0,0.0,0.0,0.0,0.0,0.0,0.0,0.0,0.0,0.0,0.0,0.0,0.0,0.0,0.0,0.0,0.0,-0.9815,0.0,0.0,0.0,0.0,0.0,0.0,0.0,0.0,0.0,0.0,0.0,0.0,0.0,0.0,0.0,0.0,0.0,0.0,0.0,0.0,0.0,0.0,0.0,0.0,0.0,0.0,0.0,0.0,0.0,0.0,0.0,0.0,0.0,0.0,0.0,0.0,0.0,0.0,0.0,0.0,0.0,0.0,0.0,0.0,0.0,0.0,0.0,0.0,0.0,0.0,0.0,0.0,0.0,0.0,0.0,0.0,0.0,0.0,0.0,0.0,0.0,0.0,0.0,0.0,0.0,0.0,0.0,0.0,0.0,0.0,0.0,0.0,0.0,0.0,0.0,0.0,0.0,0.0,0.0,0.0,0.0,0.0,0.0,0.0,0.0,0.0,0.0,0.0,0.0,0.0,0.0,0.0,0.0,0.0,0.0,0.0,0.0,0.0,0.0,0.0,0.0,0.0,0.0,0.0,0.0,0.0,0.0,0.0,0.0,0.0,-0.6158,-0.9638,-0.9741,-0.9849,-0.9836,0.0,0.0,0.0,0.0,0.0,0.0,0.0,0.0,0.0,0.0,0.0,0.0,0.0,0.0,0.0,0.0,0.0,0.0,0.0,0.0,0.0,0.0,0.0,0.0,0.0,0.0,0.0,0.0,0.0,0.0,0.0,0.0,0.0,0.0,0.0,0.0,0.0,0.0,0.0,0.0,0.0,0.0,0.0,0.0,0.0,0.0,0.0,0.0,0.0,0.0,0.0,0.0,0.0,0.0,0.0,0.0,0.0,0.0,0.0,0.0,0.0,0.0,0.0,0.0,0.0,0.0,0.0,0.0,0.0,0.0,0.0,0.0,0.0,0.0,0.0,0.0,0.0,0.0,0.0,0.0,0.0,0.0,0.0,0.0,0.0,0.0,0.0,0.0,0.0,0.0,0.0,0.0,0.0,0.0,0.0,0.0,0.0,0.0,0.0,0.0,0.0,0.0,0.0,0.0,0.0,0.0,0.0,0.0,0.0,0.0,0.0,0.0,-0.9051,-0.9754,-0.9795,0.0,0.0,0.0,0.0,0.0,0.0,0.0,0.0,0.0,0.0,0.0,0.0,0.0,0.0,0.0,0.0,0.0,0.0,0.0,0.0,0.0,0.0,0.0,0.0,0.0,0.0,0.0,0.0,0.0,0.0,0.0,0.0,0.0,0.0,0.0,0.0,0.0,0.0,0.0,0.0,0.0,0.0,0.0,0.0,0.0,0.0,0.0,0.0,0.0,0.0,0.0,0.0,0.0,0.0,0.0,0.0,0.0,0.0,0.0,0.0,0.0,0.0,0.0,0.0,0.0,0.0,0.0,0.0,0.0,0.0,0.0,0.0,0.0,0.0,0.0,0.0,0.0,0.0,0.0,0.0,0.0,0.0,0.0,0.0,0.0,0.0,0.0,0.0,0.0,0.0,0.0,0.0,0.0,0.0,0.0,0.0,0.0,0.0,0.0,0.0,0.0,0.0,0.0,0.0,0.0,0.0,0.0,0.0,0.0,0.0,-0.0255,-0.088,-0.6665,0.0,-0.9772,0.0,0.0,0.0,0.0,0.0,0.0,0.0,0.0,0.0,0.0,0.0,0.0,0.0,0.0,0.0,0.0,0.0,0.0,0.0,0.0,0.0,0.0,0.0,0.0,0.0,0.0,0.0,0.0,0.0,0.0,0.0,0.0,0.0,0.0,0.0,0.0,0.0,0.0,0.0,0.0,0.0,0.0,0.0,0.0,0.0,0.0,0.0,0.0,0.0,0.0,0.0,0.0,0.0,0.0,0.0,0.0,0.0,0.0,0.0,0.0,0.0,0.0,0.0,0.0,0.0,0.0,0.0,0.0,0.0,0.0,0.0,0.0,0.0,0.0,0.0,0.0,0.0,0.0,0.0,0.0,0.0,0.0,0.0,0.0,0.0,0.0,0.0,0.0,0.0,0.0,0.0,0.0,0.0,0.0,0.0,0.0,0.0,0.0,0.0,0.0,0.0,0.0,0.0,0.0,0.0,0.0,0.0,0.0,0.0,0.0,0.0,0.0,-0.6345,-0.9764,0.0,0.0,0.0,0.0,0.0,0.0,0.0,0.0,0.0,0.0,0.0,0.0,0.0,0.0,0.0,0.0,0.0,0.0,0.0,0.0,0.0,0.0,0.0,0.0,0.0,0.0,0.0,0.0,0.0,0.0,0.0,0.0,0.0,0.0,0.0,0.0,0.0,0.0,0.0,0.0,0.0,0.0,0.0,0.0,0.0,0.0,0.0,0.0,0.0,0.0,0.0,0.0,0.0,0.0,0.0,0.0,0.0,0.0,0.0,0.0,0.0,0.0,0.0,0.0,0.0,0.0,0.0,0.0,0.0,0.0,0.0,0.0,0.0,0.0,0.0,0.0,0.0,0.0,0.0,0.0,0.0,0.0,0.0,0.0,0.0,0.0,0.0,0.0,0.0,0.0,0.0,0.0,0.0,0.0,0.0,0.0,0.0,0.0,0.0,0.0,0.0,0.0,0.0,0.0,0.0,0.0,0.0,0.0,0.0,0.0,0.0,0.0,0.0,-0.6387,-0.8937,-0.7148,0.0,0.0,0.0,0.0,0.0,0.0,0.0,0.0,0.0,0.0,0.0,0.0,0.0,0.0,0.0,0.0,0.0,0.0,0.0,0.0,0.0,0.0,0.0,0.0,0.0,0.0,0.0,0.0,0.0,0.0,0.0,0.0,0.0,0.0,0.0,0.0,0.0,0.0,0.0,0.0,0.0,0.0,0.0,0.0,0.0,0.0,0.0,0.0,0.0,0.0,0.0,0.0,0.0,0.0,0.0,0.0,0.0,0.0,0.0,0.0,0.0,0.0,0.0,0.0,0.0,0.0,0.0,0.0,0.0,0.0,0.0,0.0,0.0,0.0,0.0,0.0,0.0,0.0,0.0,0.0,0.0,0.0,0.0,0.0,0.0,0.0,0.0,0.0,0.0,0.0,0.0,0.0,0.0,0.0,0.0,0.0,0.0,0.0,0.0,0.0,0.0,0.0,0.0,0.0,0.0,0.0,0.0,0.0,0.0,0.0,0.0,0.0,-0.6285,-0.6818,0.0,0.0,0.0,0.0,0.0,0.0,0.0,0.0,0.0,0.0,0.0,0.0,0.0,0.0,0.0,0.0,0.0,0.0,0.0,0.0,0.0,0.0,0.0,0.0,0.0,0.0,0.0,0.0,0.0,0.0,0.0,0.0,0.0,0.0,0.0,0.0,0.0,0.0,0.0,0.0,0.0,0.0,0.0,0.0,0.0,0.0,0.0,0.0,0.0,0.0,0.0,0.0,0.0,0.0,0.0,0.0,0.0,0.0,0.0,0.0,0.0,0.0,0.0,0.0,0.0,0.0,0.0,0.0,0.0,0.0,0.0,0.0,0.0,0.0,0.0,0.0,0.0,0.0,0.0,0.0,0.0,0.0,0.0,0.0,0.0,0.0,0.0,0.0,0.0,0.0,0.0,0.0,0.0,0.0,0.0,0.0,0.0,0.0,0.0,0.0,0.0,0.0,0.0,0.0,0.0,0.0,0.0,0.0,0.0,0.0,0.0,0.0,0.0,-0.2357,-0.2438,0.0,0.0,0.0,0.0,0.0,0.0,0.0,0.0,0.0,0.0,0.0,0.0,0.0,0.0,0.0,0.0,0.0,0.0,0.0,0.0,0.0,0.0,0.0,0.0,0.0,0.0,0.0,0.0,0.0,0.0,0.0,0.0,0.0,0.0,0.0,0.0,0.0,0.0,0.0,0.0,0.0,0.0,0.0,0.0,0.0,0.0,0.0,0.0,0.0,0.0,0.0,0.0,0.0,0.0,0.0,0.0,0.0,0.0,0.0,0.0,0.0,0.0,0.0,0.0,0.0,0.0,0.0,0.0,0.0,0.0,0.0,0.0,0.0,0.0,0.0,0.0,0.0,0.0,0.0,0.0,0.0,0.0,0.0,0.0,0.0,0.0,0.0,0.0,0.0,0.0,0.0,0.0,0.0,0.0,0.0,0.0,0.0,0.0,0.0,0.0,0.0,0.0,0.0,0.0,0.0,0.0,0.0,0.0,0.0,0.0,0.0,0.0,0.0,0.0,0.0,0.0,0.0,0.0,0.0,0.0,0.0,0.0,0.0,0.0,0.0,0.0,0.0,0.0,0.0,0.0,0.0,0.0,0.0,0.0,0.0,0.0,0.0,0.0,0.0,0.0,0.0,0.0,0.0,0.0,0.0,0.0,0.0,0.0,0.0,0.0,0.0,0.0,0.0,0.0,0.0,0.0,0.0,0.0,0.0,0.0,0.0,0.0,0.0,0.0,0.0,0.0,0.0,0.0,0.0,0.0,0.0,0.0,0.0,0.0,0.0,0.0,0.0,0.0,0.0,0.0,0.0,0.0,0.0,0.0,0.0,0.0,0.0,0.0,0.0,0.0,0.0,0.0,0.0,0.0,0.0,0.0,0.0,0.0,0.0,0.0,0.0,0.0,0.0,0.0,0.0,0.0,0.0,0.0,0.0,0.0,0.0,0.0,0.0,0.0,0.0,0.0,0.0,0.0,0.0,0.0,0.0,0.0,0.0,0.0,0.0,0.0,0.0,0.0,0.0,0.0,0.0,0.0,0.0,0.0,0.0,0.0,0.0,0.0,0.0,0.0,0.0,0.0,0.0,0.0,0.0,0.0,0.0,0.0,0.0,0.0,0.0,0.0,0.0,0.0,0.0,0.0,0.0,0.0,0.0,0.0,0.0,0.0,0.0,0.0,0.0,0.0,0.0,0.0,0.0,0.0,0.0,0.0,0.0,0.0,0.0,0.0,0.0,0.0,0.0,0.0,0.0,0.0,0.0,0.0,0.0,0.0,0.0,0.0,0.0,0.0,0.0,0.0,0.0,0.0,0.0,0.0,0.0,0.0,0.0,0.0,0.0,0.0,0.0,0.0,0.0,0.0,0.0,0.0,0.0,0.0,0.0,0.0,0.0,0.0,0.0,0.0,0.0,0.0,0.0,0.0,0.0,0.0,0.0,0.0,0.0,0.0,0.0,0.0,0.0,0.0,0.0,0.0,0.0,0.0,0.0,0.0,0.0,0.0,0.0,0.0,0.0,0.0,0.0,0.0,0.0,0.0,0.0,0.0,0.0,0.0,0.0,0.0,0.0,0.0,0.0,0.0,0.0,0.0,0.0,0.0,0.0,0.0,0.0,0.0,0.0,0.0,0.0,0.0,0.0,0.0,0.0,0.0,0.0,0.0,0.0,0.0,0.0,0.0,0.0,0.0,0.0,0.0,0.0,0.0,0.0,0.0,0.0,0.0,0.0,0.0,0.0,0.0,0.0,0.0,0.0,0.0,0.0,0.0,0.0,0.0,0.0,0.0,0.0,0.0,0.0,0.0,0.0,0.0,0.0,0.0,0.0,0.0,0.0,0.0,0.0,0.0,0.0,0.0,0.0,0.0,0.0,0.0,0.0,0.0,0.0,0.0,0.0,0.0,0.0,0.0,0.0,0.0,0.0,0.0,0.0,0.0,0.0,0.0,0.0,0.0,0.0,0.0,0.0,0.0,0.0,0.0,0.0,0.0,0.0,0.0,0.0,0.0,0.0,0.0,0.0,0.0,0.0,0.0,0.0,0.0,0.0,0.0,0.0,0.0,0.0,0.0,0.0,0.0,0.0,0.0,0.0,0.0,0.0,0.0,0.0,0.0,0.0,0.0,0.0,0.0,0.0,0.0,0.0,0.0,0.0,0.0,0.0,0.0,0.0,0.0,0.0,0.0,0.0,0.0,0.0,0.0,0.0,0.0,0.0,0.0,0.0,0.0,0.0,0.0,0.0,0.0,0.0,0.0,0.0,0.0,0.0,0.0,0.0,0.0,0.0,0.0,0.0,0.0,0.0,0.0,0.0,0.0,0.0,0.0,0.0,0.0,0.0,0.0,0.0,0.0,0.0,0.0,0.0,0.0,0.0,0.0,0.0,0.0,0.0,0.0,0.0,0.0,0.0,0.0,0.0,0.0,0.0,0.0,0.0,0.0,0.0,0.0,0.0,0.0,0.0,0.0,0.0,0.0,0.0,0.0,0.0,0.0,0.0,0.0,0.0,0.0,0.0,0.0,0.0,0.0,0.0,0.0,0.0,0.0,0.0,0.0,0.0,0.0,0.0,0.0,0.0,0.0,0.0,0.0,0.0,0.0,0.0,0.0,0.0,0.0,0.0,0.0,0.0,0.0,0.0,0.0,0.0,0.0,0.0,0.0,0.0,0.0,0.0,0.0,0.0,0.0,0.0,0.0,0.0,0.0,0.0,0.0,0.0,0.0,0.0,0.0,0.0,0.0,0.0,0.0,0.0,0.0,0.0,0.0,0.0,0.0,0.0,0.0,0.0,0.0,0.0,0.0,0.0,0.0,0.0,0.0,0.0,0.0,0.0,0.0,0.0,0.0,0.0,0.0,0.0,0.0,0.0,0.0,0.0,0.0,0.0,0.0,0.0,0.0,0.0,0.0,0.0,0.0,0.0,0.0,0.0,0.0,0.0,0.0,0.0,0.0,0.0,0.0,0.0,0.0,0.0,0.0,0.0,0.0,0.0,0.0,0.0,0.0,0.0,0.0,0.0,0.0,0.0,0.0,0.0,0.0,0.0,0.0,0.0,0.0,0.0,0.0,0.0,0.0,0.0,0.0,0.0,0.0,0.0,0.0,0.0,0.0,0.0,0.0,0.0,0.0,0.0,0.0,0.0,0.0,0.0,0.0,0.0,0.0,0.0,0.0,0.0,0.0,0.0,0.0,0.0,0.0,0.0,0.0,0.0,0.0,0.0,0.0,0.0,0.0,0.0,0.0,0.0,0.0,0.0,0.0,0.0,0.0,0.0,0.0,0.0,0.0,0.0,0.0,0.0,0.0,0.0,0.0,0.0,0.0,0.0,0.0,0.0,0.0,0.0,0.0,0.0,0.0,0.0,0.0,0.0,0.0,0.0,0.0,0.0,0.0,0.0,0.0,0.0,0.0,0.0,0.0,0.0,0.0,0.0,0.0,0.0,0.0,0.0,0.0,0.0,0.0,0.0,0.0,0.0,0.0,0.0,0.0,0.0,0.0,0.0,0.0,0.0,0.0,0.0,0.0,0.0,0.0,0.0,0.0,0.0,0.0,0.0,0.0,0.0,0.0,0.0,0.0,0.0,0.0,0.0,0.0,0.0,0.0,0.0,0.0,0.0,0.0,0.0,0.0,0.0,0.0,0.0,0.0,0.0,0.0,0.0,0.0,0.0,0.0,0.0,0.0,0.0,0.0,0.0,0.0,0.0,0.0,0.0,0.0,0.0,0.0,0.0,0.0,0.0,0.0,0.0,0.0,0.0,0.0,0.0,0.0,0.0,0.0,0.0,0.0,0.0,0.0,0.0,0.0,0.0,0.0,0.0,0.0,0.0,0.0,0.0,0.0,0.0,0.0,0.0,0.0,0.0,0.0,0.0,0.0,0.0,0.0,0.0,0.0,0.0,0.0,0.0,0.0,0.0,0.0,0.0,0.0,0.0,0.0,0.0,0.0,0.0,0.0,0.0,0.0,0.0,0.0,0.0,0.0,0.0,0.0,0.0,0.0,0.0,0.0,0.0,0.0,0.0,0.0,0.0,0.0,0.0,0.0,0.0,0.0,0.0,0.0,0.0,0.0,0.0,0.0,0.0,0.0,0.0,0.0,0.0,0.0,0.0,0.0,0.0,0.0,0.0,0.0,0.0,0.0,0.0,0.0,0.0,0.0,0.0,0.0,0.0,0.0,0.0,0.0,0.0,0.0,0.0,0.0,0.0,0.0,0.0,0.0,0.0,0.0,0.0,0.0,0.0,0.0,0.0,0.0,0.0,0.0,0.0,0.0,0.0,0.0,0.0,0.0,0.0,0.0,0.0,0.0,0.0,0.0,0.0,0.0,0.0,0.0,0.0,0.0,0.0,0.0,0.0,0.0,0.0,0.0,0.0,0.0,0.0,0.0,0.0,0.0,0.0,0.0,0.0,0.0,0.0,0.0,0.0,0.0,0.0,0.0,0.0,0.0,0.0,0.0,0.0,0.0,0.0,0.0,0.0,0.0,0.0,0.0,0.0,0.0,0.0,0.0,0.0,0.0,0.0,0.0,0.0,0.0,0.0,0.0,0.0,0.0,0.0,0.0,0.0,0.0,0.0,0.0,0.0,0.0,0.0,0.0,0.0,0.0,0.0,0.0,0.0,0.0,0.0,0.0,0.0,0.0,0.0,0.0,0.0,0.0,0.0,0.0,0.0,0.0,0.0,0.0,0.0,0.0,0.0,0.0,0.0,0.0,0.0,0.0,0.0,0.0,0.0,0.0,0.0,0.0,0.0,0.0,0.0,0.0,0.0,0.0,0.0,0.0,0.0,-0.8954,0.0,0.0,0.0,0.0,0.0,0.0,0.0,0.0,0.0,0.0,0.0,0.0,0.0,0.0,0.0,0.0,0.0,0.0,0.0,0.0,0.0,0.0,0.0,0.0,0.0,0.0,0.0,0.0,0.0,0.0,0.0,0.0,0.0,0.0,0.0,0.0,0.0,0.0,0.0,0.0,0.0,0.0,0.0,0.0,0.0,0.0,0.0,0.0,0.0,0.0,0.0,0.0,0.0,0.0,0.0,0.0,0.0,0.0,0.0,0.0,0.0,0.0,0.0,0.0,0.0,0.0,0.0,0.0,0.0,0.0,0.0,0.0,0.0,0.0,0.0,0.0,0.0,0.0,0.0,0.0,0.0,0.0,0.0,0.0,0.0,0.0,0.0,0.0,0.0,0.0,0.0,0.0,0.0,0.0,0.0,0.0,0.0,0.0,0.0,0.0,0.0,0.0,0.0,0.0,0.0,0.0,0.0,0.0,0.0,0.0,0.0,0.0,0.0,0.0,0.0,0.0,0.0,0.0,0.0,0.0,0.0,0.0,0.0,0.0,0.0,0.0,0.0,0.0,0.0,0.0,0.0,0.0,0.0,0.0,0.0,0.0,0.0,0.0,0.0,0.0,0.0,0.0,0.0,0.0,0.0,0.0,0.0,0.0,0.0,0.0,0.0,0.0,0.0,0.0,0.0,0.0,0.0,0.0,0.0,0.0,0.0,0.0,0.0,0.0,0.0,0.0,0.0,0.0,0.0,0.0,0.0,0.0,0.0,0.0,0.0,0.0,0.0,0.0,0.0,0.0,0.0,0.0,0.0,0.0,0.0,0.0,0.0,0.0,0.0,0.0,0.0,0.0,0.0,0.0,0.0,0.0,0.0,0.0,0.0,0.0,0.0,0.0,0.0,0.0,0.0,0.0,0.0,0.0,0.0,0.0,0.0,0.0,0.0,0.0,0.0,0.0,0.0,0.0,0.0,0.0,-0.9432,-0.9456,0.0,0.0,0.0,0.0,0.0,0.0,0.0,0.0,-0.895,0.0,0.0,0.0,0.0,0.0,0.0,0.0,0.0,0.0,0.0,0.0,0.0,0.0,0.0,0.0,0.0,0.0,0.0,0.0,0.0,0.0,0.0,0.0,0.0,0.0,0.0,0.0,0.0,0.0,0.0,0.0,0.0,0.0,0.0,0.0,0.0,0.0,0.0,0.0,0.0,0.0,0.0,0.0,0.0,0.0,0.0,0.0,0.0,0.0,0.0,0.0,0.0,0.0,0.0,0.0,0.0,0.0,0.0,0.0,0.0,0.0,0.0,0.0,0.0,0.0,0.0,0.0,0.0,0.0,0.0,0.0,0.0,0.0,0.0,0.0,0.0,0.0,0.0,0.0,0.0,0.0,0.0,0.0,0.0,0.0,0.0,0.0,0.0,0.0,0.0,0.0,0.0,0.0,0.0,0.0,0.0,0.0,0.0,0.0,0.0,0.0,0.0,0.0,0.0,0.0,-0.9676,-0.9659,0.0,0.0,0.0,0.0,0.0,0.0,0.0,0.0,-0.8928,0.0,0.0,0.0,0.0,0.0,0.0,0.0,0.0,0.0,0.0,0.0,0.0,0.0,0.0,0.0,0.0,0.0,0.0,0.0,0.0,0.0,0.0,0.0,0.0,0.0,0.0,0.0,0.0,0.0,0.0,0.0,0.0,0.0,0.0,0.0,0.0,0.0,0.0,0.0,0.0,0.0,0.0,0.0,0.0,0.0,0.0,0.0,0.0,0.0,0.0,0.0,0.0,0.0,0.0,0.0,0.0,0.0,0.0,0.0,0.0,0.0,0.0,0.0,0.0,0.0,0.0,0.0,0.0,0.0,0.0,0.0,0.0,0.0,0.0,0.0,0.0,0.0,0.0,0.0,0.0,0.0,0.0,0.0,0.0,0.0,0.0,0.0,0.0,0.0,0.0,0.0,0.0,0.0,0.0,0.0,0.0,0.0,0.0,0.0,0.0,0.0,0.0,0.0,0.0,-0.9909,-0.9917,-1.0141,0.0,0.0,0.0,0.0,0.0,0.0,-0.9486,-0.9412,0.0,0.0,0.0,0.0,0.0,0.0,0.0,0.0,0.0,0.0,0.0,0.0,0.0,0.0,0.0,0.0,0.0,0.0,0.0,0.0,0.0,0.0,0.0,0.0,0.0,0.0,0.0,0.0,0.0,0.0,0.0,0.0,0.0,0.0,0.0,0.0,0.0,0.0,0.0,0.0,0.0,0.0,0.0,0.0,0.0,0.0,0.0,0.0,0.0,0.0,0.0,0.0,0.0,0.0,0.0,0.0,0.0,0.0,0.0,0.0,0.0,0.0,0.0,0.0,0.0,0.0,0.0,0.0,0.0,0.0,0.0,0.0,0.0,0.0,0.0,0.0,0.0,0.0,0.0,0.0,0.0,0.0,0.0,0.0,0.0,0.0,0.0,0.0,0.0,0.0,0.0,0.0,0.0,0.0,0.0,0.0,0.0,0.0,0.0,0.0,0.0,0.0,0.0,0.0,0.0,-1.0127,-1.0337,-1.0344,0.0,0.0,0.0,0.0,-0.9868,-0.9903,0.0,0.0,0.0,0.0,0.0,0.0,0.0,0.0,0.0,0.0,0.0,0.0,0.0,0.0,0.0,0.0,0.0,0.0,0.0,0.0,0.0,0.0,0.0,0.0,0.0,0.0,0.0,0.0,0.0,0.0,0.0,0.0,0.0,0.0,0.0,0.0,0.0,0.0,0.0,0.0,0.0,0.0,0.0,0.0,0.0,0.0,0.0,0.0,0.0,0.0,0.0,0.0,0.0,0.0,0.0,0.0,0.0,0.0,0.0,0.0,0.0,0.0,0.0,0.0,0.0,0.0,0.0,0.0,0.0,0.0,0.0,0.0,0.0,0.0,0.0,0.0,0.0,0.0,0.0,0.0,0.0,0.0,0.0,0.0,0.0,0.0,0.0,0.0,0.0,0.0,0.0,0.0,0.0,0.0,0.0,0.0,0.0,0.0,0.0,0.0,0.0,0.0,0.0,0.0,0.0,0.0,-1.0202,-1.0616,-1.0555,-1.0561,0.0,0.0,-1.0194,-1.0283,-0.9936,0.0,0.0,0.0,0.0,0.0,0.0,0.0,0.0,0.0,0.0,0.0,0.0,0.0,0.0,0.0,0.0,0.0,0.0,0.0,0.0,0.0,0.0,0.0,0.0,0.0,0.0,0.0,0.0,0.0,0.0,0.0,0.0,0.0,0.0,0.0,0.0,0.0,0.0,0.0,0.0,0.0,0.0,0.0,0.0,0.0,0.0,0.0,0.0,0.0,0.0,0.0,0.0,0.0,0.0,0.0,0.0,0.0,0.0,0.0,0.0,0.0,0.0,0.0,0.0,0.0,0.0,0.0,0.0,0.0,0.0,0.0,0.0,0.0,0.0,0.0,0.0,0.0,0.0,0.0,0.0,0.0,0.0,0.0,0.0,0.0,0.0,0.0,0.0,0.0,0.0,0.0,0.0,0.0,0.0,0.0,0.0,0.0,0.0,0.0,0.0,0.0,0.0,0.0,0.0,0.0,0.0,0.0,-1.0812,-1.0867,0.0,0.0,0.0,-1.0678,-1.0511,0.0,0.0,0.0,0.0,0.0,0.0,0.0,0.0,0.0,0.0,0.0,0.0,0.0,0.0,0.0,0.0,0.0,0.0,0.0,0.0,0.0,0.0,0.0,0.0,0.0,0.0,0.0,0.0,0.0,0.0,0.0,0.0,0.0,0.0,0.0,0.0,0.0,0.0,0.0,0.0,0.0,0.0,0.0,0.0,0.0,0.0,0.0,0.0,0.0,0.0,0.0,0.0,0.0,0.0,0.0,0.0,0.0,0.0,0.0,0.0,0.0,0.0,0.0,0.0,0.0,0.0,0.0,0.0,0.0,0.0,0.0,0.0,0.0,0.0,0.0,0.0,0.0,0.0,0.0,0.0,0.0,0.0,0.0,0.0,0.0,0.0,0.0,0.0,0.0,0.0,0.0,0.0,-0.7985,0.0,0.0,0.0,0.0,0.0,0.0,0.0,0.0,0.0,0.0,0.0,0.0,0.0,0.0,-1.0806,-1.1029,-1.1185,-1.1287,0.0,0.0,-1.1199,-1.0982,-1.0819,-1.0478,0.0,0.0,0.0,0.0,0.0,0.0,0.0,0.0,0.0,0.0,0.0,0.0,0.0,0.0,0.0,0.0,0.0,0.0,0.0,0.0,0.0,0.0,0.0,0.0,0.0,0.0,0.0,0.0,0.0,0.0,0.0,0.0,0.0,0.0,0.0,0.0,0.0,0.0,0.0,0.0,0.0,0.0,0.0,0.0,0.0,0.0,0.0,0.0,0.0,0.0,0.0,0.0,0.0,0.0,0.0,0.0,0.0,0.0,0.0,0.0,0.0,0.0,0.0,0.0,0.0,0.0,0.0,0.0,0.0,0.0,0.0,0.0,0.0,0.0,0.0,0.0,0.0,0.0,0.0,0.0,0.0,0.0,0.0,0.0,0.0,0.0,0.0,0.0,0.0,0.0,0.0,0.0,0.0,0.0,0.0,0.0,0.0,0.0,0.0,0.0,0.0,0.0,0.0,0.0,0.0,-1.088,-1.1301,-1.1491,-1.1633,0.0,-1.1674,-1.1579,-1.1558,-1.1084,-1.0711,-1.0677,0.0,0.0,0.0,0.0,0.0,0.0,0.0,0.0,0.0,0.0,0.0,0.0,0.0,0.0,0.0,0.0,0.0,0.0,0.0,0.0,0.0,0.0,0.0,0.0,0.0,0.0,0.0,0.0,0.0,0.0,0.0,0.0,0.0,0.0,0.0,0.0,0.0,0.0,0.0,0.0,0.0,0.0,0.0,0.0,0.0,0.0,0.0,0.0,0.0,0.0,0.0,0.0,0.0,0.0,0.0,0.0,0.0,0.0,0.0,0.0,0.0,0.0,0.0,0.0,0.0,0.0,0.0,0.0,0.0,0.0,0.0,0.0,0.0,0.0,0.0,0.0,0.0,0.0,0.0,0.0,0.0,0.0,0.0,0.0,0.0,0.0,0.0,0.0,0.0,0.0,0.0,-0.6548,-0.5756,-0.654,0.0,0.0,0.0,0.0,0.0,0.0,0.0,0.0,0.0,0.0,-1.1124,-1.1484,-1.1653,0.0,0.0,-1.1925,-1.183,-1.1647,-1.143,-1.1145,-1.0778,-1.0575,0.0,0.0,0.0,0.0,0.0,0.0,0.0,0.0,0.0,0.0,0.0,0.0,0.0,0.0,0.0,0.0,0.0,0.0,0.0,0.0,0.0,0.0,0.0,0.0,0.0,0.0,0.0,0.0,0.0,0.0,0.0,0.0,0.0,0.0,0.0,0.0,0.0,0.0,0.0,0.0,0.0,0.0,0.0,0.0,0.0,0.0,0.0,0.0,0.0,0.0,0.0,0.0,0.0,0.0,0.0,0.0,0.0,0.0,0.0,0.0,0.0,0.0,0.0,0.0,0.0,0.0,0.0,0.0,0.0,0.0,0.0,0.0,0.0,0.0,0.0,0.0,0.0,0.0,0.0,0.0,0.0,0.0,0.0,0.0,0.0,0.0,0.0,0.0,0.0,0.0,-0.4859,-0.3786,-0.6396,0.0,0.0,0.0,0.0,0.0,0.0,0.0,0.0,0.0,0.0,-1.1402,-1.1667,-1.1857,-1.2006,-1.2115,-1.2135,-1.221,-1.1857,-1.1708,-1.147,-1.1056,0.0,0.0,0.0,0.0,0.0,0.0,0.0,0.0,0.0,0.0,0.0,0.0,0.0,0.0,0.0,0.0,0.0,0.0,0.0,0.0,0.0,0.0,0.0,0.0,0.0,0.0,0.0,0.0,0.0,0.0,0.0,0.0,0.0,0.0,0.0,0.0,0.0,0.0,0.0,0.0,0.0,0.0,0.0,0.0,0.0,0.0,0.0,0.0,0.0,0.0,0.0,0.0,0.0,0.0,0.0,0.0,0.0,0.0,0.0,0.0,0.0,0.0,0.0,0.0,0.0,0.0,0.0,0.0,0.0,0.0,0.0,0.0,0.0,0.0,0.0,0.0,0.0,0.0,0.0,0.0,0.0,0.0,0.0,0.0,0.0,0.0,0.0,0.0,0.0,0.0,-0.7308,-0.3286,-0.242,0.0,0.0,0.0,0.0,0.0,0.0,0.0,0.0,0.0,-1.0419,-1.1235,-1.1701,-1.1857,-1.2108,-1.2277,-1.2291,-1.2443,-1.2443,-1.2429,-1.2065,-1.1613,0.0,0.0,0.0,0.0,0.0,0.0,0.0,0.0,0.0,0.0,0.0,0.0,0.0,0.0,0.0,0.0,0.0,0.0,0.0,0.0,0.0,0.0,0.0,0.0,0.0,0.0,0.0,0.0,0.0,0.0,0.0,0.0,0.0,0.0,0.0,0.0,0.0,0.0,0.0,0.0,0.0,0.0,0.0,0.0,0.0,0.0,0.0,0.0,0.0,0.0,0.0,0.0,0.0,0.0,0.0,0.0,0.0,0.0,0.0,0.0,0.0,0.0,0.0,0.0,0.0,0.0,0.0,0.0,0.0,0.0,0.0,0.0,0.0,0.0,0.0,0.0,0.0,0.0,0.0,0.0,0.0,0.0,0.0,0.0,0.0,0.0,0.0,0.0,0.0,0.0,-0.0733,0.0,0.0,0.0,0.0,0.0,0.0,0.0,0.0,0.0,0.0,-0.605,-0.3343,-0.3546,-0.5806,-0.8644,-1.1567,-1.2291,-1.2501,0.0,0.0,0.0,0.0,0.0,0.0,0.0,0.0,0.0,0.0,0.0,0.0,0.0,0.0,-1.0209,-0.9757,-0.9724,-0.9848,-0.9848,0.0,0.0,0.0,0.0,0.0,0.0,0.0,0.0,0.0,0.0,0.0,0.0,0.0,0.0,0.0,0.0,0.0,0.0,0.0,0.0,0.0,0.0,0.0,0.0,0.0,0.0,0.0,0.0,0.0,0.0,0.0,0.0,0.0,0.0,0.0,0.0,0.0,0.0,0.0,0.0,0.0,0.0,0.0,0.0,0.0,0.0,0.0,0.0,0.0,0.0,0.0,0.0,0.0,0.0,0.0,0.0,0.0,0.0,0.0,0.0,0.0,0.0,0.0,0.0,0.0,0.0,0.0,0.0,0.0,0.0,0.0,0.0,0.0,0.0,0.0,0.0,0.0,0.0,0.0,0.0,0.0,0.0,0.0,0.0,0.0,0.0,0.0,-0.667,-0.2752,0.0,0.0,-0.2016,-0.4604,-0.7473,0.0,0.0,0.0,0.0,0.0,0.0,0.0,-1.2284,-1.1925,-1.1816,-1.1674,-1.1657,-1.1344,-1.1084,-1.1029,0.0,0.0,-1.0091,-0.9903,-1.0032,-1.0038,-1.0344,-1.0651,-1.0781,-1.0761,-1.0724,0.0,0.0,0.0,0.0,0.0,0.0,0.0,0.0,0.0,0.0,0.0,0.0,0.0,0.0,0.0,0.0,0.0,0.0,0.0,0.0,0.0,0.0,0.0,0.0,0.0,0.0,0.0,0.0,0.0,0.0,0.0,0.0,0.0,0.0,0.0,0.0,0.0,0.0,0.0,0.0,0.0,0.0,0.0,0.0,0.0,0.0,0.0,0.0,0.0,0.0,0.0,0.0,0.0,0.0,0.0,0.0,0.0,0.0,0.0,0.0,0.0,0.0,0.0,0.0,0.0,0.0,0.0,0.0,0.0,0.0,0.0,0.0,0.0,0.0,0.0,0.0,0.0,0.0,0.0,0.0,0.0,-0.7025,-0.105,0.0,0.0,0.0,0.0,0.0,0.0,0.0,-0.7684,-1.1714,-1.2553,-1.2514,-1.2542,-1.2527,-1.2508,-1.2512,0.0,0.0,-1.1681,-1.1511,-1.1369,-1.1219,-1.1212,-1.1097,-1.0417,-1.0352,-1.0459,-1.0738,-1.098,-1.1226,-1.1247,-1.12,-1.1172,0.0,0.0,0.0,0.0,0.0,0.0,0.0,0.0,0.0,0.0,0.0,0.0,0.0,0.0,0.0,0.0,0.0,0.0,0.0,0.0,0.0,0.0,0.0,0.0,0.0,0.0,0.0,0.0,0.0,0.0,0.0,0.0,0.0,0.0,0.0,0.0,0.0,0.0,0.0,0.0,0.0,0.0,0.0,0.0,0.0,0.0,0.0,0.0,0.0,0.0,0.0,0.0,0.0,0.0,0.0,0.0,0.0,0.0,0.0,0.0,0.0,0.0,0.0,0.0,0.0,0.0,0.0,0.0,0.0,0.0,0.0,0.0,0.0,0.0,0.0,0.0,0.0,0.0,0.0,0.0,0.0,0.0,0.0,0.0,0.0,0.0,0.0,0.0,0.0,-0.1115,-0.2267,-0.3604,-0.9057,0.0,-1.3159,-1.2775,-1.2561,-1.2556,-1.2443,-1.2216,-1.1952,-1.1898,-1.1857,-1.1809,-1.1803,-1.1769,-1.1378,-1.1028,-1.1056,-1.1316,-1.1495,-1.1565,-1.1817,-1.1671,-1.1518,0.0,0.0,0.0,0.0,0.0,0.0,0.0,0.0,0.0,0.0,0.0,0.0,0.0,0.0,0.0,0.0,0.0,0.0,0.0,0.0,0.0,0.0,0.0,0.0,0.0,0.0,0.0,0.0,0.0,0.0,0.0,0.0,0.0,0.0,0.0,0.0,0.0,0.0,0.0,0.0,0.0,0.0,0.0,0.0,0.0,0.0,0.0,0.0,0.0,0.0,0.0,0.0,0.0,0.0,0.0,0.0,0.0,0.0,0.0,0.0,0.0,0.0,0.0,0.0,0.0,0.0,0.0,0.0,0.0,0.0,0.0,0.0,0.0,0.0,0.0,0.0,0.0,0.0,0.0,0.0,0.0,0.0,0.0,0.0,0.0,0.0,0.0,0.0,0.0,0.0,0.0,0.0,-0.4496,-0.8161,-0.8111,-0.7852,-0.7573,-0.7591,-1.0469,-1.2345,-1.2361,-1.2326,-1.2299,-1.2094,-1.2074,-1.206,-1.1904,-1.161,-1.1518,-1.1518,-1.166,-1.1701,-1.2086,-1.188,-1.1823,0.0,0.0,0.0,0.0,0.0,0.0,0.0,0.0,0.0,0.0,0.0,0.0,0.0,0.0,0.0,0.0,0.0,0.0,0.0,0.0,0.0,0.0,0.0,0.0,0.0,0.0,0.0,0.0,0.0,0.0,0.0,0.0,0.0,0.0,0.0,0.0,0.0,0.0,0.0,0.0,0.0,0.0,0.0,0.0,0.0,0.0,0.0,0.0,0.0,0.0,0.0,0.0,0.0,0.0,0.0,0.0,0.0,0.0,0.0,0.0,0.0,0.0,0.0,0.0,0.0,0.0,0.0,0.0,0.0,0.0,0.0,0.0,0.0,0.0,0.0,0.0,0.0,0.0,0.0,0.0,0.0,0.0,0.0,0.0,0.0,0.0,0.0,0.0,0.0,0.0,0.0,0.0,0.0,0.0,0.0,0.0,0.0,0.0,-0.6373,-1.0937,-1.1664,-1.174,-1.1821,-1.2196,-1.2128,-1.2115,-1.2108,-1.2101,-1.2101,-1.1775,-1.1749,-1.1742,-1.2054,-1.2216,-1.2223,0.0,0.0,0.0,0.0,0.0,0.0,0.0,0.0,0.0,0.0,0.0,0.0,0.0,0.0,0.0,0.0,0.0,0.0,0.0,0.0,0.0,0.0,0.0,0.0,0.0,0.0,0.0,0.0,0.0,0.0,0.0,0.0,0.0,0.0,0.0,0.0,0.0,0.0,0.0,0.0,0.0,0.0,0.0,0.0,0.0,0.0,0.0,0.0,0.0,0.0,0.0,0.0,0.0,0.0,0.0,0.0,0.0,0.0,0.0,0.0,0.0,0.0,0.0,0.0,0.0,0.0,0.0,0.0,0.0,0.0,0.0,0.0,0.0,0.0,0.0,0.0,0.0,0.0,0.0,0.0,0.0,0.0,0.0,0.0,0.0,0.0,0.0,0.0,0.0,0.0,0.0,0.0,0.0,0.0,0.0,0.0,0.0,0.0,0.0,-0.3961,-0.7189,-0.7791,-0.8726,-1.1695,-1.2481,-1.2474,-1.2467,-1.232,-1.2461,-1.2273,-1.2244,-1.2258,-1.2368,-1.2237,-1.2264,0.0,0.0,0.0,0.0,0.0,0.0,0.0,0.0,0.0,0.0,0.0,0.0,0.0,0.0,0.0,0.0,0.0,0.0,0.0,0.0,0.0,0.0,0.0,0.0,0.0,0.0,0.0,0.0,0.0,0.0,0.0,0.0,0.0,0.0,0.0,0.0,0.0,0.0,0.0,0.0,0.0,0.0,0.0,0.0,0.0,0.0,0.0,0.0,0.0,0.0,0.0,0.0,0.0,0.0,0.0,0.0,0.0,0.0,0.0,0.0,0.0,0.0,0.0,0.0,0.0,0.0,0.0,0.0,0.0,0.0,0.0,0.0,0.0,0.0,0.0,0.0,0.0,0.0,0.0,0.0,0.0,0.0,0.0,0.0,0.0,0.0,0.0,0.0,0.0,0.0,0.0,0.0,0.0,0.0,0.0,0.0,0.0,0.0,0.0,-0.0799,-0.3144,-0.3441,-0.4378,-0.642,-0.8466,-1.037,-1.2122,-1.2447,-1.244,-1.2562,-1.244,-1.2498,-1.2532,-1.2386,-1.2413,0.0,0.0,0.0,0.0,0.0,0.0,0.0,0.0,0.0,0.0,0.0,0.0,0.0,0.0,0.0,0.0,0.0,0.0,0.0,0.0,0.0,0.0,0.0,0.0,0.0,0.0,0.0,0.0,0.0,0.0,0.0,0.0,0.0,0.0,0.0,0.0,0.0,0.0,0.0,0.0,0.0,0.0,0.0,0.0,0.0,0.0,0.0,0.0,0.0,0.0,0.0,0.0,0.0,0.0,0.0,0.0,0.0,0.0,0.0,0.0,0.0,0.0,0.0,0.0,0.0,0.0,0.0,0.0,0.0,0.0,0.0,0.0,0.0,0.0,0.0,0.0,0.0,0.0,0.0,0.0,0.0,0.0,0.0,0.0,0.0,0.0,0.0,0.0,0.0,0.0,0.0,0.0,0.0,0.0,0.0,0.0,0.0,0.0,0.0,0.0,0.0,0.0,0.0,0.0,-0.3285,-0.6577,-1.0375,-1.0699,-1.0693,-1.0214,-1.1311,-1.2407,-1.2522,-1.2508,-1.2515,0.0,0.0,0.0,0.0,0.0,0.0,0.0,0.0,0.0,0.0,0.0,0.0,0.0,0.0,0.0,0.0,0.0,0.0,0.0,0.0,0.0,0.0,0.0,0.0,0.0,0.0,0.0,0.0,0.0,0.0,0.0,0.0,0.0,0.0,0.0,0.0,0.0,0.0,0.0,0.0,0.0,0.0,0.0,0.0,0.0,0.0,0.0,0.0,0.0,0.0,0.0,0.0,0.0,0.0,0.0,0.0,0.0,0.0,0.0,0.0,0.0,0.0,0.0,0.0,0.0,0.0,0.0,0.0,0.0,0.0,0.0,0.0,0.0,0.0,0.0,0.0,0.0,0.0,0.0,0.0,0.0,0.0,0.0,0.0,0.0,0.0,0.0,0.0,0.0,0.0,0.0,0.0,0.0,0.0,0.0,0.0,0.0,0.0,0.0,0.0,0.0,0.0,0.0,0.0,-0.0628,0.0,0.0,-0.2354,0.0,0.0,-0.769,-1.2467,-1.244,-1.2427,-1.2583,0.0,0.0,0.0,0.0,0.0,0.0,0.0,0.0,0.0,0.0,0.0,0.0,0.0,0.0,0.0,0.0,0.0,0.0,0.0,0.0,0.0,0.0,0.0,0.0,0.0,0.0,0.0,0.0,0.0,0.0,0.0,0.0,0.0,0.0,0.0,0.0,0.0,0.0,0.0,0.0,0.0,0.0,0.0,0.0,0.0,0.0,0.0,0.0,0.0,0.0,0.0,0.0,0.0,0.0,0.0,0.0,0.0,0.0,0.0,0.0,0.0,0.0,0.0,0.0,0.0,0.0,0.0,0.0,0.0,0.0,0.0,0.0,0.0,0.0,0.0,0.0,0.0,0.0,0.0,0.0,0.0,0.0,0.0,0.0,0.0,0.0,0.0,0.0,0.0,0.0,0.0,0.0,0.0,0.0,0.0,0.0,0.0,0.0,0.0,0.0,0.0,0.0,0.0,0.0,0.0,0.0,0.0,0.0,0.0,0.0,-0.3294,-0.6285,-0.6434,-0.8002,-0.9412,0.0,0.0,0.0,0.0,0.0,0.0,0.0,0.0,0.0,0.0,0.0,0.0,0.0,0.0,0.0,0.0,0.0,0.0,0.0,0.0,0.0,0.0,0.0,0.0,0.0,0.0,0.0,0.0,0.0,0.0,0.0,0.0,0.0,0.0,0.0,0.0,0.0,0.0,0.0,0.0,0.0,0.0,0.0,0.0,0.0,0.0,0.0,0.0,0.0,0.0,0.0,0.0,0.0,0.0,0.0,0.0,0.0,0.0,0.0,0.0,0.0,0.0,0.0,0.0,0.0,0.0,0.0,0.0,0.0,0.0,0.0,0.0,0.0,0.0,0.0,0.0,0.0,0.0,0.0,0.0,0.0,0.0,0.0,0.0,0.0,0.0,0.0,0.0,0.0,0.0,0.0,0.0,0.0,0.0,0.0,0.0,0.0,0.0,0.0,0.0,0.0,0.0,0.0,0.0,0.0,0.0,0.0,0.0,0.0,0.0,0.0,0.0,0.0,-0.2802,-0.5134,0.0,0.0,0.0,0.0,0.0,0.0,0.0,0.0,0.0,0.0,0.0,0.0,0.0,0.0,0.0,0.0,0.0,0.0,0.0,0.0,0.0,0.0,0.0,0.0,0.0,0.0,0.0,0.0,0.0,0.0,0.0,0.0,0.0,0.0,0.0,0.0,0.0,0.0,0.0,0.0,0.0,0.0,0.0,0.0,0.0,0.0,0.0,0.0,0.0,0.0,0.0,0.0,0.0,0.0,0.0,0.0,0.0,0.0,0.0,0.0,0.0,0.0,0.0,0.0,0.0,0.0,0.0,0.0,0.0,0.0,0.0,0.0,0.0,0.0,0.0,0.0,0.0,0.0,0.0,0.0,0.0,0.0,0.0,0.0,0.0,0.0,0.0,0.0,0.0,0.0,0.0,0.0,0.0,0.0,0.0,0.0,0.0,0.0,0.0,0.0,0.0,0.0,0.0,0.0,0.0,0.0,0.0,0.0,0.0,0.0,0.0,0.0,0.0,0.0,0.0,0.0,0.0,0.0,0.0,0.0,0.0,0.0,0.0,0.0,0.0,0.0,0.0,0.0,0.0,0.0,0.0,0.0,0.0,0.0,0.0,0.0,0.0,0.0,0.0,0.0,0.0,0.0,0.0,0.0,0.0,0.0,0.0,0.0,0.0,0.0,0.0,0.0,0.0,0.0,0.0,0.0,0.0,0.0,0.0,0.0,0.0,0.0,0.0,0.0,0.0,0.0,0.0,0.0,0.0,0.0,0.0,0.0,0.0,0.0,0.0,0.0,0.0,0.0,0.0,0.0,0.0,0.0,0.0,0.0,0.0,0.0,0.0,0.0,0.0,0.0,0.0,0.0,0.0,0.0,0.0,0.0,0.0,0.0,0.0,0.0,0.0,0.0,0.0,0.0,0.0,0.0,0.0,0.0,0.0,0.0,0.0,0.0,0.0,0.0,0.0,0.0,0.0,0.0,0.0,0.0,0.0,0.0,0.0,0.0,0.0,0.0,0.0,0.0,0.0,0.0,0.0,0.0,0.0,0.0,0.0,0.0,0.0,0.0,0.0,0.0,0.0,0.0,0.0,0.0,0.0,0.0,0.0,0.0,0.0,0.0,0.0,0.0,0.0,0.0,0.0,0.0,0.0,0.0,0.0,0.0,0.0,0.0,0.0,0.0,0.0,0.0,0.0,0.0,0.0,0.0,0.0,0.0,0.0,0.0,0.0,0.0,0.0,0.0,0.0,0.0,0.0,0.0,0.0,0.0,0.0,0.0,0.0,0.0,0.0,0.0,0.0,0.0,0.0,0.0,0.0,0.0,0.0,0.0,0.0,0.0,0.0,0.0,0.0,0.0,0.0,0.0,0.0,0.0,0.0,0.0,0.0,0.0,0.0,0.0,0.0,0.0,0.0,0.0,0.0,0.0,0.0,0.0,0.0,0.0,0.0,0.0,0.0,0.0,0.0,0.0,0.0,0.0,0.0,0.0,0.0,0.0,0.0,0.0,0.0,0.0,0.0,0.0,0.0,0.0,0.0,0.0,0.0,0.0,0.0,0.0,0.0,0.0,0.0,0.0,0.0,0.0,0.0,0.0,0.0,0.0,0.0,0.0,0.0,0.0,0.0,0.0,0.0,0.0,0.0,0.0,0.0,0.0,0.0,0.0,0.0,0.0,0.0,0.0,0.0,0.0,0.0,0.0,0.0,0.0,0.0,0.0,0.0,0.0,0.0,0.0,0.0,0.0,0.0,0.0,0.0,0.0,0.0,0.0,0.0,0.0,0.0,0.0,0.0,0.0,0.0,0.0,0.0,0.0,0.0,0.0,0.0,0.0,0.0,0.0,0.0,0.0,0.0,0.0,0.0,0.0,0.0,0.0,0.0,0.0,0.0,0.0,0.0,0.0,0.0,0.0,0.0,0.0,0.0,0.0,0.0,0.0,0.0,0.0,0.0,0.0,0.0,0.0,0.0,0.0,0.0,0.0,0.0,0.0,0.0,0.0,0.0,0.0,0.0,0.0,0.0,0.0,0.0,0.0,0.0,0.0,0.0,0.0,0.0,0.0,0.0,0.0,0.0,0.0,0.0,0.0,0.0,0.0,0.0,0.0,0.0,0.0,0.0,0.0,0.0,0.0,0.0,0.0,0.0,0.0,0.0,0.0,0.0,0.0,0.0,0.0,0.0,0.0,0.0,0.0,0.0,0.0,0.0,0.0,0.0,0.0,0.0,0.0,0.0,0.0,0.0,0.0,0.0,0.0,0.0,0.0,0.0,0.0,0.0,0.0,0.0,0.0,0.0,0.0,0.0,0.0,0.0,0.0,0.0,0.0,0.0,0.0,0.0,0.0,0.0,0.0,0.0,0.0,0.0,0.0,0.0,0.0,0.0,0.0,0.0,0.0,0.0,0.0,0.0,0.0,0.0,0.0,0.0,0.0,0.0,0.0,0.0,0.0,0.0,0.0,0.0,0.0,0.0,0.0,0.0,0.0,0.0,0.0,0.0,0.0,0.0,0.0,0.0,0.0,0.0,0.0,0.0,0.0,0.0,0.0,0.0,0.0,0.0,0.0,0.0,0.0,0.0,0.0,0.0,0.0,0.0,0.0,0.0,0.0,0.0,0.0,0.0,0.0,0.0,0.0,0.0,0.0,0.0,0.0,0.0,0.0,0.0,0.0,0.0,0.0,0.0,0.0,0.0,0.0,0.0,0.0,0.0,0.0,0.0,0.0,0.0,0.0,0.0,0.0,0.0,0.0,0.0,0.0,0.0,0.0,0.0,0.0,0.0,0.0,0.0,0.0,0.0,0.0,0.0,0.0,0.0,0.0,0.0,0.0,0.0,0.0,0.0,0.0,0.0,0.0,0.0,0.0,0.0,0.0,0.0,0.0,0.0,0.0,0.0,0.0,0.0,0.0,0.0,0.0,0.0,0.0,0.0,0.0,0.0,0.0,0.0,0.0,0.0,0.0,0.0,0.0,0.0,0.0,0.0,0.0,0.0,0.0,0.0,0.0,0.0,0.0,0.0,0.0,0.0,0.0,0.0,0.0,0.0,0.0,0.0,0.0,0.0,0.0,0.0,0.0,0.0,0.0,0.0,0.0,0.0,0.0,0.0,0.0,0.0,0.0,0.0,0.0,0.0,0.0,0.0,0.0,0.0,0.0,0.0,0.0,0.0,0.0,0.0,0.0,0.0,0.0,0.0,0.0,0.0,0.0,0.0,0.0,0.0,0.0,0.0,0.0,0.0,0.0,0.0,0.0,0.0,0.0,0.0,0.0,0.0,0.0,0.0,0.0,0.0,0.0,0.0,0.0,0.0,0.0,0.0,0.0,0.0,0.0,0.0,0.0,0.0,0.0,0.0,0.0,0.0,0.0,0.0,0.0,0.0,0.0,0.0,0.0,0.0,0.0,0.0,0.0,0.0,0.0,0.0,0.0,0.0,0.0,0.0,0.0,0.0,0.0,0.0,0.0,0.0,0.0,0.0,0.0,0.0,0.0,0.0,0.0,0.0,0.0,0.0,0.0,0.0,0.0,0.0,0.0,0.0,0.0,0.0,0.0,0.0,0.0,0.0,0.7568,0.0,0.0,0.0,0.0,0.0,0.0,0.0,0.0,0.0,0.0,0.0,0.0,0.0,0.0,0.0,0.0,0.0,0.0,0.0,0.0,0.0,0.0,0.0,0.0,0.0,0.0,0.0,0.0,0.0,0.0,0.0,0.0,0.0,0.0,0.0,0.0,0.0,0.0,0.0,0.0,0.0,0.0,0.0,0.0,0.0,0.0,0.0,0.0,0.0,0.0,0.0,0.0,0.0,0.0,0.0,0.0,0.0,0.0,0.0,0.0,0.0,0.0,0.0,0.0,0.0,0.0,0.0,0.0,0.0,0.0,0.0,0.0,0.0,0.0,0.0,0.0,0.0,0.0,0.0,0.0,0.0,0.0,0.0,0.0,0.0,0.0,0.0,0.0,0.0,0.0,0.0,0.0,0.0,0.0,0.0,0.0,0.0,0.0,0.0,0.0,0.0,0.0,0.0,0.0,0.0,0.0,0.0,0.0,0.0,0.0,0.0,0.0,0.0,0.0,1.4361,0.648,0.3778,0.1872,0.0,0.0,0.0,0.0,0.4053,0.3585,0.0,0.0,0.0,0.0,0.0,0.0,0.0,0.0,0.0,0.0,0.0,0.0,0.0,0.0,0.0,0.0,0.0,0.0,0.0,0.0,0.0,0.0,0.0,0.0,0.0,0.0,0.0,0.0,0.0,0.0,0.0,0.0,0.0,0.0,0.0,0.0,0.0,0.0,0.0,0.0,0.0,0.0,0.0,0.0,0.0,0.0,0.0,0.0,0.0,0.0,0.0,0.0,0.0,0.0,0.0,0.0,0.0,0.0,0.0,0.0,0.0,0.0,0.0,0.0,0.0,0.0,0.0,0.0,0.0,0.0,0.0,0.0,0.0,0.0,0.0,0.0,0.0,0.0,0.0,0.0,0.0,0.0,0.0,0.0,0.0,0.0,0.0,0.0,0.0,0.0,0.0,0.0,0.0,0.0,0.0,0.0,0.0,0.0,0.0,0.0,0.0,0.0,0.0,0.0,0.0,1.8627,1.7103,1.2058,0.6322,0.0,0.0,0.0,0.0,1.2401,1.0743,0.0,0.0,0.0,0.0,0.0,0.0,0.0,0.0,0.0,0.0,0.0,0.0,0.0,0.0,0.0,0.0,0.0,0.0,0.0,0.0,0.0,0.0,0.0,0.0,0.0,0.0,0.0,0.0,0.0,0.0,0.0,0.0,0.0,0.0,0.0,0.0,0.0,0.0,0.0,0.0,0.0,0.0,0.0,0.0,0.0,0.0,0.0,0.0,0.0,0.0,0.0,0.0,0.0,0.0,0.0,0.0,0.0,0.0,0.0,0.0,0.0,0.0,0.0,0.0,0.0,0.0,0.0,0.0,0.0,0.0,0.0,0.0,0.0,0.0,0.0,0.0,0.0,0.0,0.0,0.0,0.0,0.0,0.0,0.0,0.0,0.0,0.0,0.0,0.0,0.0,0.0,0.0,0.0,0.0,0.0,0.0,0.0,0.0,0.0,0.0,0.0,0.0,0.0,0.0,0.0,1.9026,1.8774,1.6808,1.4804,1.2901,1.2944,1.2625,1.2602,1.6746,1.5717,1.2743,1.2434,1.2115,1.1795,1.1703,0.9442,0.5735,0.0,0.0,0.0,0.0,0.0,0.0,0.0,0.0,0.0,0.0,0.0,0.0,0.0,0.0,0.0,0.0,0.0,0.0,0.0,0.0,0.0,0.0,0.0,0.0,0.0,0.0,0.0,0.0,0.0,0.0,0.0,0.0,0.0,0.0,0.0,0.0,0.0,0.0,0.0,0.0,0.0,0.0,0.0,0.0,0.0,0.0,0.0,0.0,0.0,0.0,0.0,0.0,0.0,0.0,0.0,0.0,0.0,0.0,0.0,0.0,0.0,0.0,0.0,0.0,0.0,0.0,0.0,0.0,0.0,0.0,0.0,0.0,0.0,0.0,0.0,0.0,0.0,0.0,0.0,0.0,0.0,0.0,0.0,0.0,0.0,0.0,0.0,0.0,0.0,0.0,0.0,0.0,0.0,0.0,0.0,0.0,0.0,0.0,1.9217,1.921,1.8925,1.8816,1.8816,1.8774,1.8409,1.7894,1.7853,1.7948,1.7928,1.7867,1.7751,1.7384,1.7034,1.5129,1.1538,0.7859,0.6369,0.6384,0.6379,0.6379,0.5319,0.1487,0.0,0.0,0.0,0.0,0.0,0.0,0.0,0.0,0.0,0.0,0.0,0.0,0.0,0.0,0.0,0.0,0.0,0.0,0.0,0.0,0.0,0.0,0.0,0.0,0.0,0.0,0.0,0.0,0.0,0.0,0.0,0.0,0.0,0.0,0.0,0.0,0.0,0.0,0.0,0.0,0.0,0.0,0.0,0.0,0.0,0.0,0.0,0.0,0.0,0.0,0.0,0.0,0.0,0.0,0.0,0.0,0.0,0.0,0.0,0.0,0.0,0.0,0.0,0.0,0.0,0.0,0.0,0.0,0.0,0.0,0.0,0.0,0.0,0.0,0.0,0.0,0.0,0.0,0.0,0.0,0.0,0.0,0.0,0.0,0.0,0.0,0.0,0.0,0.0,0.0,0.0,1.9203,1.9162,1.8884,1.8769,1.8735,1.8706,1.8348,1.8048,1.8016,1.7894,1.788,1.7894,1.7833,1.7697,1.7337,1.6543,1.6655,1.5842,1.5133,1.5356,1.5574,1.5145,1.3852,0.6785,0.0,0.0,0.0,0.0,0.0,0.0,0.0,0.0,0.0,0.0,0.0,0.0,0.0,0.0,0.0,0.0,0.0,0.0,0.0,0.0,0.0,0.0,0.0,0.0,0.0,0.0,0.0,0.0,0.0,0.0,0.0,0.0,0.0,0.0,0.0,0.0,0.0,0.0,0.0,0.0,0.0,0.0,0.0,0.0,0.0,0.0,0.0,0.0,0.0,0.0,0.0,0.0,0.0,0.0,0.0,0.0,0.0,0.0,0.0,0.0,0.0,0.0,0.0,0.0,0.0,0.0,0.0,0.0,0.0,0.0,0.0,0.0,0.0,0.0,0.0,0.0,0.0,0.0,0.0,0.0,0.0,0.0,0.0,0.0,0.0,0.0,0.0,0.0,0.0,0.0,0.0,1.9203,1.9169,1.8884,1.8762,1.8735,1.8795,1.8416,1.7841,1.7887,1.7962,1.7887,1.788,1.7812,1.7889,1.7521,1.7157,1.7023,1.7087,1.7012,1.7012,1.7012,1.7026,1.6842,1.4269,1.2127,1.192,1.1064,0.8282,0.0,0.0,0.0,0.0,0.0,0.0,0.0,0.0,0.0,0.0,0.0,0.0,0.0,0.0,0.0,0.0,0.0,0.0,0.0,0.0,0.0,0.0,0.0,0.0,0.0,0.0,0.0,0.0,0.0,0.0,0.0,0.0,0.0,0.0,0.0,0.0,0.0,0.0,0.0,0.0,0.0,0.0,0.0,0.0,0.0,0.0,0.0,0.0,0.0,0.0,0.0,0.0,0.0,0.0,0.0,0.0,0.0,0.0,0.0,0.0,0.0,0.0,0.0,0.0,0.0,0.0,0.0,0.0,0.0,0.0,0.0,0.0,0.0,0.0,0.0,0.0,0.0,0.0,0.0,0.0,0.0,0.0,0.0,0.0,0.0,0.0,0.0,1.9203,1.9176,1.8884,1.8762,1.8742,1.8829,1.8685,1.8308,1.7927,1.8002,1.7887,1.786,1.7819,1.795,1.7589,1.7439,1.7277,1.7134,1.7039,1.6978,1.6985,1.6992,1.7012,1.7039,1.706,1.7073,1.7073,1.3401,0.0,0.7208,0.7214,0.0,0.2337,0.0,0.0,0.0,0.0,0.0,0.0,0.0,0.0,0.0,0.0,0.0,0.0,0.0,0.0,0.0,0.0,0.0,0.0,0.0,0.0,0.0,0.0,0.0,0.0,0.0,0.0,0.0,0.0,0.0,0.0,0.0,0.0,0.0,0.0,0.0,0.0,0.0,0.0,0.0,0.0,0.0,0.0,0.0,0.0,0.0,0.0,0.0,0.0,0.0,0.0,0.0,0.0,0.0,0.0,0.0,0.0,0.0,0.0,0.0,0.0,0.0,0.0,0.0,0.0,0.0,0.0,0.0,0.0,0.0,0.0,0.0,0.0,0.0,0.0,0.0,0.0,0.0,0.0,0.0,0.0,0.0,0.0,1.9203,1.9176,1.8884,1.8762,1.8742,1.885,1.8713,1.8774,1.8186,1.8023,1.7887,1.786,1.7853,1.786,1.7909,1.7792,1.7433,1.7249,1.71,1.7019,1.6978,1.6985,1.6985,1.6992,1.7005,1.7026,1.7026,1.6617,1.5115,1.5773,1.6432,1.3846,0.6369,0.1487,0.0,0.0,0.0,0.0,0.0,0.0,0.0,0.0,0.0,0.0,0.0,0.0,0.0,0.0,0.0,0.0,0.0,0.0,0.0,0.0,0.0,0.0,0.0,0.0,0.0,0.0,0.0,0.0,0.0,0.0,0.0,0.0,0.0,0.0,0.0,0.0,0.0,0.0,0.0,0.0,0.0,0.0,0.0,0.0,0.0,0.0,0.0,0.0,0.0,0.0,0.0,0.0,0.0,0.0,0.0,0.0,0.0,0.0,0.0,0.0,0.0,0.0,0.0,0.0,0.0,0.0,0.0,0.0,0.0,0.0,0.0,0.0,0.0,0.0,0.0,0.0,0.0,0.0,0.0,0.0,0.0,1.9203,1.9176,1.8884,1.8762,1.8755,1.8721,1.8802,1.8788,1.828,1.788,1.7907,1.786,1.786,1.786,1.795,1.7854,1.7772,1.7324,1.6902,1.6992,1.6978,1.6978,1.6978,1.6978,1.6985,1.6992,1.6992,1.6998,1.7005,1.7019,1.7019,1.6182,1.3819,0.8904,0.0,0.0,0.0,0.0,0.0,0.0,0.0,0.0,0.0,0.0,0.0,0.0,0.0,0.0,0.0,0.0,0.0,0.0,0.0,0.0,0.0,0.0,0.0,0.0,0.0,0.0,0.0,0.0,0.0,0.0,0.0,0.0,0.0,0.0,0.0,0.0,0.0,0.0,0.0,0.0,0.0,0.0,0.0,0.0,0.0,0.0,0.0,0.0,0.0,0.0,0.0,0.0,0.0,0.0,0.0,0.0,0.0,0.0,0.0,0.0,0.0,0.0,0.0,0.0,0.0,0.0,0.0,0.0,0.0,0.0,0.0,0.0,0.0,0.0,0.0,0.0,0.0,0.0,0.0,0.0,0.0,1.9203,1.9169,1.8884,1.8762,1.8762,1.8755,1.8829,1.8596,1.8088,1.792,1.7907,1.786,1.786,1.786,1.8005,1.7944,1.7813,1.7331,1.6936,1.7073,1.7026,1.6978,1.6978,1.6978,1.6978,1.6978,1.6978,1.6978,1.6978,1.6978,1.6992,1.7005,1.7019,1.4019,0.89,0.765,0.0,0.0,0.0,0.0,0.0,0.0,0.0,0.0,0.0,0.0,0.0,0.0,0.0,0.0,0.0,0.0,0.0,0.0,0.0,0.0,0.0,0.0,0.0,0.0,0.0,0.0,0.0,0.0,0.0,0.0,0.0,0.0,0.0,0.0,0.0,0.0,0.0,0.0,0.0,0.0,0.0,0.0,0.0,0.0,0.0,0.0,0.0,0.0,0.0,0.0,0.0,0.0,0.0,0.0,0.0,0.0,0.0,0.0,0.0,0.0,0.0,0.0,0.0,0.0,0.0,0.0,0.0,0.0,0.0,0.0,0.0,0.0,0.0,0.0,0.0,0.0,0.0,0.0,0.0,1.9196,1.9176,1.8884,1.8762,1.8762,1.8755,1.8829,1.8802,1.8088,1.792,1.7901,1.786,1.786,1.786,1.786,1.7998,1.7841,1.7433,1.7283,1.6942,1.708,1.7019,1.6992,1.6978,1.6978,1.6978,1.6978,1.6978,1.6978,1.6978,1.6985,1.6985,1.7005,1.615,1.6393,1.624,1.0657,0.0,0.0,0.0,0.0,0.0,0.0,0.0,0.0,0.0,0.0,0.0,0.0,0.0,0.0,0.0,0.0,0.0,0.0,0.0,0.0,0.0,0.0,0.0,0.0,0.0,0.0,0.0,0.0,0.0,0.0,0.0,0.0,0.0,0.0,0.0,0.0,0.0,0.0,0.0,0.0,0.0,0.0,0.0,0.0,0.0,0.0,0.0,0.0,0.0,0.0,0.0,0.0,0.0,0.0,0.0,0.0,0.0,0.0,0.0,0.0,0.0,0.0,0.0,0.0,0.0,0.0,0.0,0.0,0.0,0.0,0.0,0.0,0.0,0.0,0.0,0.0,0.0,0.0,1.9196,1.9176,1.8884,1.8762,1.8762,1.8762,1.8823,1.8582,1.8081,1.7914,1.7887,1.786,1.786,1.786,1.786,1.8005,1.7889,1.7772,1.7426,1.7036,1.6942,1.7093,1.7012,1.6985,1.6978,1.6978,1.6978,1.6978,1.6978,1.6978,1.6978,1.6985,1.6985,1.6992,1.7012,1.6413,1.1487,0.0,0.0,0.0,0.0,0.0,0.0,0.0,0.0,0.0,0.0,0.0,0.0,0.0,0.0,0.0,0.0,0.0,0.0,0.0,0.0,0.0,0.0,0.0,0.0,0.0,0.0,0.0,0.0,0.0,0.0,0.0,0.0,0.0,0.0,0.0,0.0,0.0,0.0,0.0,0.0,0.0,0.0,0.0,0.0,0.0,0.0,0.0,0.0,0.0,0.0,0.0,0.0,0.0,0.0,0.0,0.0,0.0,0.0,0.0,0.0,0.0,0.0,0.0,0.0,0.0,0.0,0.0,0.0,0.0,0.0,0.0,0.0,0.0,0.0,0.0,0.0,0.0,0.0,1.9162,1.8831,1.885,1.8762,1.8749,1.8905,1.8761,1.8788,1.8233,1.7847,1.7914,1.786,1.786,1.786,1.786,1.7819,1.7985,1.7902,1.7786,1.7419,1.727,1.6949,1.7073,1.7019,1.6985,1.6978,1.6978,1.6978,1.6978,1.6978,1.6978,1.6978,1.6978,1.6978,1.6992,1.6815,1.0606,0.0,0.0,0.0,0.0,0.0,0.0,0.0,0.0,0.0,0.0,0.0,0.0,0.0,0.0,0.0,0.0,0.0,0.0,0.0,0.0,0.0,0.0,0.0,0.0,0.0,0.0,0.0,0.0,0.0,0.0,0.0,0.0,0.0,0.0,0.0,0.0,0.0,0.0,0.0,0.0,0.0,0.0,0.0,0.0,0.0,0.0,0.0,0.0,0.0,0.0,0.0,0.0,0.0,0.0,0.0,0.0,0.0,0.0,0.0,0.0,0.0,0.0,0.0,0.0,0.0,0.0,0.0,0.0,0.0,0.0,0.0,0.0,0.0,0.0,0.0,0.0,0.0,0.0,1.8878,1.8738,1.8823,1.8762,1.8735,1.8836,1.8692,1.8541,1.8158,1.8009,1.7874,1.786,1.786,1.786,1.786,1.786,1.7853,1.7964,1.7902,1.7813,1.7419,1.7277,1.6949,1.7087,1.7012,1.6978,1.6978,1.6978,1.6978,1.6978,1.6978,1.6978,1.6978,1.6978,1.6985,1.7019,1.0167,0.6142,0.0,0.0,0.0,0.0,0.0,0.0,0.0,0.0,0.0,0.0,0.0,0.0,0.0,0.0,0.0,0.0,0.0,0.0,0.0,0.0,0.0,0.0,0.0,0.0,0.0,0.0,0.0,0.0,0.0,0.0,0.0,0.0,0.0,0.0,0.0,0.0,0.0,0.0,0.0,0.0,0.0,0.0,0.0,0.0,0.0,0.0,0.0,0.0,0.0,0.0,0.0,0.0,0.0,0.0,0.0,0.0,0.0,0.0,0.0,0.0,0.0,0.0,0.0,0.0,0.0,0.0,0.0,0.0,0.0,0.0,0.0,0.0,0.0,0.0,0.0,0.0,0.0,1.8878,1.8738,1.8823,1.8762,1.8735,1.8823,1.845,1.8068,1.7914,1.8002,1.786,1.786,1.786,1.786,1.786,1.786,1.7853,1.7833,1.7985,1.7895,1.7806,1.7426,1.7023,1.6969,1.7093,1.7032,1.6998,1.6978,1.6978,1.6978,1.6978,1.6978,1.6978,1.6978,1.6985,1.7012,1.6387,1.3164,0.4879,0.0,0.0,0.0,0.0,0.0,0.0,0.0,0.0,0.0,0.0,0.0,0.0,0.0,0.0,0.0,0.0,0.0,0.0,0.0,0.0,0.0,0.0,0.0,0.0,0.0,0.0,0.0,0.0,0.0,0.0,0.0,0.0,0.0,0.0,0.0,0.0,0.0,0.0,0.0,0.0,0.0,0.0,0.0,0.0,0.0,0.0,0.0,0.0,0.0,0.0,0.0,0.0,0.0,0.0,0.0,0.0,0.0,0.0,0.0,0.0,0.0,0.0,0.0,0.0,0.0,0.0,0.0,0.0,0.0,0.0,0.0,0.0,0.0,0.0,0.0,0.0,1.8758,1.8857,1.8789,1.8715,1.885,1.8713,1.8555,1.7947,1.8023,1.7921,1.7874,1.786,1.786,1.786,1.786,1.786,1.786,1.786,1.7833,1.7978,1.7909,1.7799,1.7467,1.7136,1.7023,1.6915,1.7087,1.7046,1.7019,1.6985,1.6978,1.6985,1.6978,1.6978,1.7012,1.6998,1.7012,1.3591,0.0,0.0,0.0,0.0,0.0,0.0,0.0,0.0,0.0,0.0,0.0,0.0,0.0,0.0,0.0,0.0,0.0,0.0,0.0,0.0,0.0,0.0,0.0,0.0,0.0,0.0,0.0,0.0,0.0,0.0,0.0,0.0,0.0,0.0,0.0,0.0,0.0,0.0,0.0,0.0,0.0,0.0,0.0,0.0,0.0,0.0,0.0,0.0,0.0,0.0,0.0,0.0,0.0,0.0,0.0,0.0,0.0,0.0,0.0,0.0,0.0,0.0,0.0,0.0,0.0,0.0,0.0,0.0,0.0,0.0,0.0,0.0,0.0,0.0,0.0,0.0,0.0,1.8843,1.8708,1.8701,1.8871,1.8754,1.8809,1.8431,1.7853,1.7935,1.7867,1.786,1.786,1.786,1.786,1.786,1.786,1.786,1.786,1.786,1.7819,1.7985,1.7909,1.782,1.7507,1.7177,1.7036,1.7029,1.7202,1.7141,1.71,1.71,1.7032,1.7053,1.7073,1.7087,1.6909,1.6936,1.6099,0.9614,0.0,0.0,0.0,0.0,0.0,0.0,0.0,0.0,0.0,0.0,0.0,0.0,0.0,0.0,0.0,0.0,0.0,0.0,0.0,0.0,0.0,0.0,0.0,0.0,0.0,0.0,0.0,0.0,0.0,0.0,0.0,0.0,0.0,0.0,0.0,0.0,0.0,0.0,0.0,0.0,0.0,0.0,0.0,0.0,0.0,0.0,0.0,0.0,0.0,0.0,0.0,0.0,0.0,0.0,0.0,0.0,0.0,0.0,0.0,0.0,0.0,0.0,0.0,0.0,0.0,0.0,0.0,0.0,0.0,0.0,0.0,0.0,0.0,0.0,0.0,0.0,1.8687,1.8316,1.8545,1.8538,1.8733,1.8459,1.8104,1.7833,1.7921,1.7867,1.786,1.786,1.786,1.786,1.786,1.786,1.786,1.786,1.786,1.786,1.784,1.7992,1.7923,1.7854,1.7561,1.7426,1.7183,1.7392,1.7593,1.7311,1.7049,1.6982,1.7195,1.7049,1.709,1.7096,1.7116,1.6915,1.4034,0.8158,0.0,0.0,0.0,0.0,0.0,0.0,0.0,0.0,0.0,0.0,0.0,0.0,0.0,0.0,0.0,0.0,0.0,0.0,0.0,0.0,0.0,0.0,0.0,0.0,0.0,0.0,0.0,0.0,0.0,0.0,0.0,0.0,0.0,0.0,0.0,0.0,0.0,0.0,0.0,0.0,0.0,0.0,0.0,0.0,0.0,0.0,0.0,0.0,0.0,0.0,0.0,0.0,0.0,0.0,0.0,0.0,0.0,0.0,0.0,0.0,0.0,0.0,0.0,0.0,0.0,0.0,0.0,0.0,0.0,0.0,0.0,0.0,0.0,0.0,0.0,1.8349,1.8282,1.8335,1.826,1.8486,1.8369,1.8266,1.7948,1.7887,1.786,1.786,1.786,1.786,1.786,1.786,1.786,1.786,1.786,1.786,1.786,1.7846,1.7826,1.8005,1.7978,1.7711,1.7595,1.7561,1.75,1.7857,1.7669,1.7487,1.7655,1.76,1.7586,1.7628,1.7446,1.7453,1.7433,1.6485,1.1406,0.0,0.0,0.0,0.0,0.0,0.0,0.0,0.0,0.0,0.0,0.0,0.0,0.0,0.0,0.0,0.0,0.0,0.0,0.0,0.0,0.0,0.0,0.0,0.0,0.0,0.0,0.0,0.0,0.0,0.0,0.0,0.0,0.0,0.0,0.0,0.0,0.0,0.0,0.0,0.0,0.0,0.0,0.0,0.0,0.0,0.0,0.0,0.0,0.0,0.0,0.0,0.0,0.0,0.0,0.0,0.0,0.0,0.0,0.0,0.0,0.0,0.0,0.0,0.0,0.0,0.0,0.0,0.0,0.0,0.0,0.0,0.0,0.0,0.0,0.0,1.8249,1.8148,1.8179,1.8091,1.8314,1.8273,1.8191,1.7874,1.7867,1.786,1.786,1.786,1.786,1.786,1.786,1.786,1.786,1.786,1.786,1.786,1.786,1.786,1.786,1.7846,1.7799,1.795,1.7937,1.7875,1.7813,1.8003,1.7841,1.7868,1.7841,1.7806,1.7792,1.7996,1.7996,1.7751,1.6792,1.4503,0.0,0.0,0.0,0.0,0.0,0.0,0.0,0.0,0.0,0.0,0.0,0.0,0.0,0.0,0.0,0.0,0.0,0.0,0.0,0.0,0.0,0.0,0.0,0.0,0.0,0.0,0.0,0.0,0.0,0.0,0.0,0.0,0.0,0.0,0.0,0.0,0.0,0.0,0.0,0.0,0.0,0.0,0.0,0.0,0.0,0.0,0.0,0.0,0.0,0.0,0.0,0.0,0.0,0.0,0.0,0.0,0.0,0.0,0.0,0.0,0.0,0.0,0.0,0.0,0.0,0.0,0.0,0.0,0.0,0.0,0.0,0.0,0.0,0.0,0.0,1.8128,1.788,1.8091,1.8084,1.8287,1.7935,1.7867,1.786,1.786,1.786,1.786,1.786,1.786,1.786,1.786,1.786,1.786,1.786,1.786,1.786,1.786,1.786,1.786,1.786,1.7853,1.786,1.7833,1.7806,1.7812,1.7998,1.7819,1.7826,1.8012,1.8012,1.784,1.7846,1.7846,1.7826,1.7937,1.6468,1.3485,0.6246,0.0,0.0,0.0,0.0,0.0,0.0,0.0,0.0,0.0,0.0,0.0,0.0,0.0,0.0,0.0,0.0,0.0,0.0,0.0,0.0,0.0,0.0,0.0,0.0,0.0,0.0,0.0,0.0,0.0,0.0,0.0,0.0,0.0,0.0,0.0,0.0,0.0,0.0,0.0,0.0,0.0,0.0,0.0,0.0,0.0,0.0,0.0,0.0,0.0,0.0,0.0,0.0,0.0,0.0,0.0,0.0,0.0,0.0,0.0,0.0,0.0,0.0,0.0,0.0,0.0,0.0,0.0,0.0,0.0,0.0,0.0,0.0,0.0,1.7954,1.7853,1.7982,1.7941,1.7935,1.7887,1.786,1.786,1.786,1.786,1.786,1.786,1.786,1.786,1.786,1.786,1.786,1.786,1.786,1.786,1.786,1.786,1.786,1.786,1.786,1.786,1.786,1.786,1.7853,1.786,1.786,1.786,1.786,1.786,1.786,1.786,1.786,1.784,1.795,1.7602,1.7047,1.2771,0.0,0.0,0.0,0.0,0.0,0.0,0.0,0.0,0.0,0.0,0.0,0.0,0.0,0.0,0.0,0.0,0.0,0.0,0.0,0.0,0.0,0.0,0.0,0.0,0.0,0.0,0.0,0.0,0.0,0.0,0.0,0.0,0.0,0.0,0.0,0.0,0.0,0.0,0.0,0.0,0.0,0.0,0.0,0.0,0.0,0.0,0.0,0.0,0.0,0.0,0.0,0.0,0.0,0.0,0.0,0.0,0.0,0.0,0.0,0.0,0.0,0.0,0.0,0.0,0.0,0.0,0.0,0.0,0.0,0.0,0.0,0.0,0.0,1.7833,1.7996,1.7907,1.786,1.786,1.786,1.786,1.786,1.786,1.786,1.786,1.786,1.786,1.786,1.786,1.786,1.786,1.786,1.786,1.786,1.786,1.786,1.786,1.786,1.786,1.786,1.786,1.786,1.786,1.786,1.786,1.786,1.786,1.786,1.786,1.786,1.786,1.784,1.7992,1.7868,1.7514,1.5183,1.0742,0.0,0.0,0.0,0.0,0.0,0.0,0.0,0.0,0.0,0.0,0.0,0.0,0.0,0.0,0.0,0.0,0.0,0.0,0.0,0.0,0.0,0.0,0.0,0.0,0.0,0.0,0.0,0.0,0.0,0.0,0.0,0.0,0.0,0.0,0.0,0.0,0.0,0.0,0.0,0.0,0.0,0.0,0.0,0.0,0.0,0.0,0.0,0.0,0.0,0.0,0.0,0.0,0.0,0.0,0.0,0.0,0.0,0.0,0.0,0.0,0.0,0.0,0.0,0.0,0.0,0.0,0.0,0.0,0.0,0.0,0.0,0.0,1.7996,1.7874,1.786,1.786,1.786,1.786,1.786,1.786,1.786,1.786,1.786,1.786,1.786,1.786,1.786,1.786,1.786,1.786,1.786,1.786,1.786,1.786,1.786,1.786,1.786,1.786,1.786,1.786,1.786,1.786,1.786,1.786,1.786,1.786,1.786,1.786,1.786,1.7853,1.7826,1.7916,1.7765,1.7021,1.2058,0.8096,0.9133,0.8929,0.0,0.0,0.0,0.0,0.0,0.0,0.0,0.0,0.0,0.0,0.0,0.0,0.0,0.0,0.0,0.0,0.0,0.0,0.0,0.0,0.0,0.0,0.0,0.0,0.0,0.0,0.0,0.0,0.0,0.0,0.0,0.0,0.0,0.0,0.0,0.0,0.0,0.0,0.0,0.0,0.0,0.0,0.0,0.0,0.0,0.0,0.0,0.0,0.0,0.0,0.0,0.0,0.0,0.0,0.0,0.0,0.0,0.0,0.0,0.0,0.0,0.0,0.0,0.0,0.0,0.0,0.0,0.0,0.0,1.7901,1.7867,1.786,1.786,1.786,1.786,1.786,1.786,1.786,1.786,1.786,1.786,1.786,1.786,1.786,1.786,1.786,1.786,1.786,1.786,1.786,1.786,1.786,1.786,1.786,1.786,1.786,1.786,1.786,1.786,1.786,1.786,1.786,1.786,1.786,1.786,1.786,1.786,1.786,1.7964,1.782,1.7291,1.3605,1.3716,1.4058,1.3418,1.1258,0.4032,0.0,0.0,0.0,0.0,0.0,0.0,0.0,0.0,0.0,0.0,0.0,0.0,0.0,0.0,0.0,0.0,0.0,0.0,0.0,0.0,0.0,0.0,0.0,0.0,0.0,0.0,0.0,0.0,0.0,0.0,0.0,0.0,0.0,0.0,0.0,0.0,0.0,0.0,0.0,0.0,0.0,0.0,0.0,0.0,0.0,0.0,0.0,0.0,0.0,0.0,0.0,0.0,0.0,0.0,0.0,0.0,0.0,0.0,0.0,0.0,0.0,0.0,0.0,0.0,0.0,0.0,0.0,1.786,1.786,1.786,1.7833,1.8005,1.8005,1.7971,1.7944,1.7812,1.786,1.786,1.786,1.786,1.786,1.786,1.786,1.786,1.786,1.786,1.786,1.786,1.786,1.786,1.786,1.786,1.786,1.786,1.786,1.786,1.786,1.786,1.786,1.786,1.786,1.786,1.786,1.786,1.786,1.784,1.7998,1.767,1.7534,1.7365,1.7003,1.6909,1.7053,1.6604,0.8487,0.5305,0.0,0.0,0.0,0.0,0.0,0.0,0.0,0.0,0.0,0.0,0.0,0.0,0.0,0.0,0.0,0.0,0.0,0.0,0.0,0.0,0.0,0.0,0.0,0.0,0.0,0.0,0.0,0.0,0.0,0.0,0.0,0.0,0.0,0.0,0.0,0.0,0.0,0.0,0.0,0.0,0.0,0.0,0.0,0.0,0.0,0.0,0.0,0.0,0.0,0.0,0.0,0.0,0.0,0.0,0.0,0.0,0.0,0.0,0.0,0.0,0.0,0.0,0.0,0.0,0.0,0.0,1.7833,1.7819,1.7833,1.7964,1.7868,1.7854,1.7786,1.7899,1.7697,1.7819,1.7806,1.7819,1.7792,1.7765,1.7792,1.7819,1.7826,1.784,1.786,1.786,1.786,1.786,1.786,1.786,1.786,1.786,1.786,1.786,1.786,1.786,1.786,1.786,1.786,1.786,1.786,1.786,1.786,1.786,1.7853,1.7806,1.7895,1.7744,1.7573,1.7009,1.7093,1.6998,1.7019,1.488,0.0,0.0,0.0,0.0,0.0,0.0,0.0,0.0,0.0,0.0,0.0,0.0,0.0,0.0,0.0,0.0,0.0,0.0,0.0,0.0,0.0,0.0,0.0,0.0,0.0,0.0,0.0,0.0,0.0,0.0,0.0,0.0,0.0,0.0,0.0,0.0,0.0,0.0,0.0,0.0,0.0,0.0,0.0,0.0,0.0,0.0,0.0,0.0,0.0,0.0,0.0,0.0,0.0,0.0,0.0,0.0,0.0,0.0,0.0,0.0,0.0,0.0,0.0,0.0,0.0,0.0,0.0,1.7629,1.7528,1.7751,1.7947,1.7919,1.7473,1.723,1.7203,1.7264,1.7528,1.7751,1.7975,1.7765,1.7568,1.7663,1.7923,1.7937,1.7799,1.7853,1.7853,1.7853,1.786,1.786,1.786,1.786,1.786,1.786,1.786,1.786,1.786,1.786,1.786,1.786,1.786,1.786,1.786,1.786,1.786,1.7853,1.7846,1.7998,1.7792,1.7607,1.7277,1.6949,1.6998,1.6998,1.6591,1.5524,0.0,0.0,0.0,0.0,0.0,0.0,0.0,0.0,0.0,0.0,0.0,0.0,0.0,0.0,0.0,0.0,0.0,0.0,0.0,0.0,0.0,0.0,0.0,0.0,0.0,0.0,0.0,0.0,0.0,0.0,0.0,0.0,0.0,0.0,0.0,0.0,0.0,0.0,0.0,0.0,0.0,0.0,0.0,0.0,0.0,0.0,0.0,0.0,0.0,0.0,0.0,0.0,0.0,0.0,0.0,0.0,0.0,0.0,0.0,0.0,0.0,0.0,0.0,0.0,0.0,0.0,1.727,1.7203,1.7419,1.76,1.7545,1.7103,1.7063,1.7009,1.7003,1.7222,1.7477,1.7573,1.7419,1.7197,1.7507,1.7765,1.7799,1.7923,1.7964,1.7992,1.7819,1.786,1.786,1.784,1.786,1.786,1.786,1.786,1.7853,1.786,1.786,1.786,1.786,1.786,1.786,1.786,1.786,1.786,1.786,1.786,1.7833,1.7827,1.7655,1.7116,1.6962,1.7019,1.6985,1.7005,1.7012,1.3802,0.5717,0.0,0.0,0.0,0.0,0.0,0.0,0.0,0.0,0.0,0.0,0.0,0.0,0.0,0.0,0.0,0.0,0.0,0.0,0.0,0.0,0.0,0.0,0.0,0.0,0.0,0.0,0.0,0.0,0.0,0.0,0.0,0.0,0.0,0.0,0.0,0.0,0.0,0.0,0.0,0.0,0.0,0.0,0.0,0.0,0.0,0.0,0.0,0.0,0.0,0.0,0.0,0.0,0.0,0.0,0.0,0.0,0.0,0.0,0.0,0.0,0.0,0.0,0.0,0.0,1.6935,1.6928,1.7136,1.729,1.7394,1.7161,1.71,1.7005,1.6985,1.6992,1.7032,1.7256,1.713,1.7143,1.6948,1.717,1.7439,1.7561,1.7827,1.7875,1.795,1.7944,1.7964,1.7779,1.7758,1.7751,1.7751,1.7785,1.7812,1.7812,1.7819,1.7846,1.786,1.786,1.786,1.786,1.786,1.786,1.786,1.786,1.7964,1.7813,1.7467,1.7317,1.6942,1.6998,1.6978,1.6985,1.6998,1.4218,0.9319,0.0,0.0,0.0,0.0,0.0,0.0,0.0,0.0,0.0,0.0,0.0,0.0,0.0,0.0,0.0,0.0,0.0,0.0,0.0,0.0,0.0,0.0,0.0,0.0,0.0,0.0,0.0,0.0,0.0,0.0,0.0,0.0,0.0,0.0,0.0,0.0,0.0,0.0,0.0,0.0,0.0,0.0,0.0,0.0,0.0,0.0,0.0,0.0,0.0,0.0,0.0,0.0,0.0,0.0,0.0,0.0,0.0,0.0,0.0,0.0,0.0,0.0,0.0,0.0,1.6949,1.706,1.706,1.7046,1.7026,1.7026,1.7005,1.6985,1.6978,1.6978,1.6998,1.7012,1.7066,1.7073,1.6976,1.7236,1.7263,1.7392,1.7676,1.7926,1.7765,1.7751,1.7765,1.7595,1.7744,1.7751,1.7568,1.7589,1.7684,1.7923,1.7978,1.784,1.786,1.786,1.786,1.786,1.786,1.786,1.786,1.786,1.8005,1.7854,1.746,1.7304,1.6922,1.7026,1.6978,1.6978,1.6985,1.6131,1.4645,1.2726,1.013,0.5864,0.0,0.0,0.0,0.0,0.0,0.0,0.0,0.0,0.0,0.0,0.0,0.0,0.0,0.0,0.0,0.0,0.0,0.0,0.0,0.0,0.0,0.0,0.0,0.0,0.0,0.0,0.0,0.0,0.0,0.0,0.0,0.0,0.0,0.0,0.0,0.0,0.0,0.0,0.0,0.0,0.0,0.0,0.0,0.0,0.0,0.0,0.0,0.0,0.0,0.0,0.0,0.0,0.0,0.0,0.0,0.0,0.0,0.0,0.0,0.0,0.0]}]]